[[{"header":{"parameterUnit":"m.s-1","parameterCategory":1,"la1":31.0,"la2":29.5877,"lo1":-88.7671,"lo2":-86.6584,"dx":0.0162,"dy":0.0185,"nx":115,"ny":88,"refTime":"2022-11-26T18:00:00:Z","depth":0,"parameterNumber":2,"parameterNumberName":"U-component_of_WINDS"},"data":[0.0,0.0,0.0,0.0,0.0,0.0,0.0,0.0,0.0,0.0,0.0,0.0,0.0,0.0,0.0,0.0,0.0,0.0,0.0,0.0,0.0,0.0,0.0,0.0,0.0,0.0,0.0,0.0,0.0,0.0,0.0,0.0,0.0,0.0,0.0,0.0,0.0,0.0,0.0,0.0,0.0,0.0,0.0,0.0,0.0,0.0,0.0,0.0,0.0,0.0,0.0,0.0,0.0,0.0,0.0,0.0,0.0,0.0,0.0,0.0,0.0,0.0,0.0,0.0,0.0,0.0,0.0,0.0,0.0,0.0,0.0,0.0,0.0,0.0,0.0,0.0,0.0,0.0,0.0,0.0,0.0,0.0,0.0,0.0,0.0,0.0,0.0,0.0,0.0,0.0,0.0,0.0,0.0,0.0,0.0,0.0,0.0,0.0,0.0,0.0,0.0,0.0,0.0,0.0,0.0,0.0,0.0,0.0,0.0,0.0,0.0,0.0,0.0,0.0,0.0,0.0,0.0,0.0,0.0,0.0,0.0,0.0,0.0,0.0,0.0,0.0,0.0,0.0,0.0,0.0,0.0,0.0,0.0,0.0,0.0,0.0,0.0,0.0,0.0,0.0,0.0,0.0,0.0,0.0,0.0,0.0,0.0,0.0,0.0,0.0,0.0,0.0,0.0,0.0,0.0,0.0,0.0,0.0,0.0,0.0,0.0,0.0,0.0,0.0,0.0,0.0,0.0,0.0,0.0,0.0,0.0,0.0,0.0,0.0,0.0,0.0,0.0,0.0,0.0,0.0,0.0,0.0,0.0,0.0,0.0,0.0,0.0,0.0,0.0,0.0,0.0,0.0,0.0,0.0,0.0,0.0,0.0,0.0,0.0,0.0,0.0,0.0,0.0,0.0,0.0,0.0,0.0,0.0,0.0,0.0,0.0,0.0,0.0,0.0,0.0,0.0,0.0,0.0,0.0,0.0,0.0,0.0,0.0,0.0,0.0,0.0,0.0,0.0,0.0,0.0,0.0,0.0,0.0,0.0,0.0,0.0,0.0,0.0,0.0,0.0,0.0,0.0,0.0,0.0,0.0,0.0,0.0,0.0,0.0,0.0,0.0,0.0,0.0,0.0,0.0,0.0,0.0,0.0,0.0,0.0,0.0,0.0,0.0,0.0,0.0,0.0,0.0,0.0,0.0,0.0,0.0,0.0,0.0,0.0,0.0,0.0,0.0,0.0,0.0,0.0,0.0,0.0,0.0,0.0,0.0,0.0,0.0,0.0,0.0,0.0,0.0,0.0,0.0,0.0,0.0,0.0,0.0,0.0,0.0,0.0,0.0,0.0,0.0,0.0,0.0,0.0,0.0,0.0,0.0,0.0,0.0,0.0,0.0,0.0,0.0,0.0,0.0,0.0,0.0,0.0,0.0,0.0,0.0,0.0,0.0,0.0,0.0,0.0,0.0,0.0,0.0,0.0,0.0,0.0,0.0,0.0,0.0,0.0,0.0,0.0,0.0,0.0,0.0,0.0,0.0,0.0,0.0,0.0,0.0,0.0,0.0,0.0,0.0,0.0,0.0,0.0,0.0,0.0,0.0,0.0,0.0,0.0,0.0,0.0,0.0,0.0,0.0,0.0,0.0,0.0,0.0,0.0,0.0,0.0,0.0,0.0,0.0,0.0,0.0,0.0,0.0,0.0,0.0,0.0,0.0,0.0,0.0,0.0,0.0,0.0,0.0,0.0,0.0,0.0,0.0,0.0,0.0,0.0,0.0,0.0,0.0,0.0,0.0,0.0,0.0,0.0,0.0,0.0,0.0,0.0,0.0,0.0,0.0,0.0,0.0,0.0,0.0,0.0,0.0,0.0,0.0,0.0,0.0,0.0,0.0,0.0,0.0,0.0,0.0,0.0,0.0,0.0,0.0,0.0,0.0,0.0,0.0,0.0,0.0,0.0,0.0,0.0,0.0,0.0,0.0,0.0,0.0,0.0,0.0,0.0,0.0,0.0,0.0,0.0,0.0,0.0,0.0,0.0,0.0,0.0,0.0,0.0,0.0,0.0,0.0,0.0,0.0,0.0,0.0,0.0,0.0,0.0,0.0,0.0,0.0,0.0,0.0,0.0,0.0,0.0,0.0,0.0,0.0,0.0,0.0,0.0,0.0,0.0,0.0,0.0,0.0,0.0,0.0,0.0,0.0,0.0,0.0,0.0,0.0,0.0,0.0,0.0,0.0,0.0,0.0,0.0,0.0,0.0,0.0,0.0,0.0,0.0,0.0,0.0,0.0,0.0,0.0,0.0,0.0,0.0,0.0,0.0,0.0,0.0,0.0,0.0,0.0,0.0,0.0,0.0,0.0,0.0,0.0,0.0,0.0,0.0,0.0,0.0,0.0,0.0,0.0,0.0,0.0,0.0,0.0,0.0,0.0,0.0,0.0,0.0,0.0,0.0,0.0,0.0,0.0,0.0,0.0,0.0,0.0,0.0,0.0,0.0,0.0,0.0,0.0,0.0,0.0,0.0,0.0,0.0,0.0,0.0,0.0,0.0,0.0,0.0,0.0,0.0,0.0,0.0,0.0,0.0,0.0,0.0,0.0,0.0,0.0,0.0,0.0,0.0,0.0,0.0,0.0,0.0,0.0,0.0,0.0,0.0,0.0,0.0,0.0,0.0,0.0,0.0,0.0,0.0,0.0,0.0,0.0,0.0,0.0,0.0,0.0,0.0,0.0,0.0,0.0,0.0,0.0,0.0,0.0,0.0,0.0,0.0,0.0,0.0,0.0,0.0,0.0,0.0,0.0,0.0,0.0,0.0,0.0,0.0,0.0,0.0,0.0,0.0,0.0,0.0,0.0,0.0,0.0,0.0,0.0,0.0,0.0,0.0,0.0,0.0,0.0,0.0,0.0,0.0,0.0,0.0,0.0,0.0,0.0,0.0,0.0,0.0,0.0,0.0,0.0,0.0,0.0,0.0,0.0,0.0,0.0,0.0,0.0,0.0,0.0,0.0,0.0,0.0,0.0,0.0,0.0,0.0,0.0,0.0,0.0,0.0,0.0,0.0,0.0,0.0,0.0,0.0,0.0,0.0,0.0,0.0,0.0,0.0,0.0,0.0,0.0,0.0,0.0,0.0,0.0,0.0,0.0,0.0,0.0,0.0,0.0,0.0,0.0,0.0,0.0,0.0,0.0,0.0,0.0,0.0,0.0,0.0,0.0,0.0,0.0,0.0,0.0,0.0,0.0,0.0,0.0,0.0,0.0,0.0,0.0,0.0,0.0,0.0,0.0,0.0,0.0,0.0,0.0,0.0,0.0,0.0,0.0,0.0,0.0,0.0,0.0,0.0,0.0,0.0,0.0,0.0,0.0,0.0,0.0,0.0,0.0,0.0,0.0,0.0,0.0,0.0,0.0,0.0,0.0,0.0,0.0,0.0,0.0,0.0,0.0,0.0,0.0,0.0,0.0,0.0,0.0,0.0,0.0,0.0,0.0,0.0,0.0,0.0,0.0,0.0,0.0,0.0,0.0,0.0,0.0,0.0,0.0,0.0,0.0,0.0,0.0,0.0,0.0,0.0,0.0,0.0,0.0,0.0,0.0,0.0,0.0,0.0,0.0,0.0,0.0,0.0,0.0,0.0,0.0,0.0,0.0,0.0,0.0,0.0,0.0,0.0,0.0,0.0,0.0,0.0,0.0,0.0,0.0,0.0,0.0,0.0,0.0,0.0,0.0,0.0,0.0,0.0,0.0,0.0,0.0,0.0,0.0,0.0,0.0,0.0,0.0,0.0,0.0,0.0,0.0,0.0,0.0,0.0,0.0,0.0,0.0,0.0,0.0,0.0,0.0,0.0,0.0,0.0,0.0,0.0,0.0,0.0,0.0,0.0,0.0,0.0,0.0,0.0,0.0,0.0,0.0,0.0,0.0,0.0,0.0,0.0,0.0,0.0,0.0,0.0,0.0,0.0,0.0,0.0,0.0,0.0,0.0,0.0,0.0,0.0,0.0,0.0,0.0,0.0,0.0,0.0,0.0,0.0,0.0,0.0,0.0,0.0,0.0,0.0,0.0,0.0,0.0,0.0,0.0,0.0,0.0,0.0,0.0,0.0,0.0,0.0,0.0,0.0,0.0,0.0,0.0,0.0,0.0,0.0,0.0,0.0,0.0,0.0,0.0,0.0,0.0,0.0,0.0,0.0,0.0,0.0,0.0,0.0,0.0,0.0,0.0,0.0,0.0,0.0,0.0,0.0,0.0,0.0,0.0,0.0,2.884,0.0,0.0,0.0,2.8987,0.0,0.0,0.0,0.0,0.0,0.0,0.0,0.0,0.0,0.0,0.0,0.0,0.0,0.0,0.0,0.0,0.0,0.0,0.0,0.0,0.0,0.0,0.0,0.0,0.0,0.0,0.0,0.0,0.0,0.0,0.0,0.0,0.0,0.0,0.0,0.0,0.0,0.0,0.0,0.0,0.0,0.0,0.0,0.0,0.0,0.0,0.0,0.0,0.0,0.0,0.0,0.0,0.0,0.0,0.0,0.0,0.0,0.0,0.0,0.0,0.0,0.0,0.0,0.0,0.0,0.0,0.0,0.0,0.0,0.0,0.0,0.0,0.0,0.0,0.0,0.0,0.0,0.0,0.0,0.0,0.0,0.0,0.0,0.0,0.0,0.0,0.0,0.0,0.0,0.0,0.0,0.0,0.0,0.0,0.0,0.0,0.0,0.0,0.0,0.0,0.0,0.0,0.0,0.0,0.0,0.0,0.0,0.0,0.0,0.0,2.874,2.8846,2.8911,2.8955,2.8984,0.0,0.0,0.0,0.0,0.0,0.0,0.0,0.0,0.0,0.0,0.0,0.0,0.0,0.0,0.0,0.0,0.0,0.0,0.0,0.0,0.0,0.0,0.0,0.0,0.0,0.0,0.0,0.0,0.0,0.0,0.0,0.0,0.0,0.0,0.0,0.0,0.0,0.0,0.0,0.0,0.0,0.0,0.0,0.0,0.0,0.0,0.0,0.0,0.0,0.0,0.0,0.0,0.0,0.0,0.0,0.0,0.0,0.0,0.0,0.0,0.0,0.0,0.0,0.0,0.0,0.0,0.0,0.0,0.0,0.0,0.0,0.0,0.0,0.0,0.0,0.0,0.0,0.0,0.0,0.0,0.0,0.0,0.0,0.0,0.0,0.0,0.0,0.0,0.0,0.0,0.0,0.0,0.0,0.0,0.0,0.0,0.0,0.0,0.0,0.0,0.0,0.0,0.0,0.0,0.0,0.0,0.0,0.0,0.0,0.0,0.0,0.0,2.8846,2.8899,2.8943,0.0,0.0,0.0,0.0,0.0,0.0,0.0,0.0,0.0,0.0,0.0,0.0,0.0,0.0,0.0,0.0,0.0,0.0,0.0,0.0,0.0,0.0,0.0,0.0,0.0,0.0,0.0,0.0,0.0,0.0,0.0,0.0,0.0,0.0,0.0,0.0,0.0,0.0,0.0,0.0,0.0,0.0,0.0,0.0,0.0,0.0,0.0,0.0,0.0,0.0,0.0,0.0,0.0,0.0,0.0,0.0,0.0,0.0,0.0,0.0,0.0,0.0,0.0,0.0,0.0,0.0,0.0,0.0,0.0,0.0,0.0,0.0,0.0,0.0,0.0,0.0,0.0,0.0,0.0,0.0,0.0,0.0,0.0,0.0,0.0,0.0,0.0,0.0,0.0,0.0,0.0,0.0,0.0,0.0,0.0,0.0,0.0,0.0,0.0,0.0,0.0,0.0,0.0,0.0,0.0,0.0,0.0,0.0,0.0,0.0,2.8637,2.8718,2.8776,0.0,2.8813,0.0,0.0,0.0,0.0,0.0,0.0,0.0,0.0,0.0,0.0,0.0,0.0,0.0,0.0,0.0,0.0,0.0,0.0,0.0,0.0,0.0,0.0,0.0,0.0,0.0,0.0,0.0,0.0,0.0,0.0,0.0,0.0,0.0,0.0,0.0,0.0,0.0,0.0,0.0,0.0,0.0,0.0,0.0,0.0,0.0,0.0,0.0,0.0,0.0,0.0,0.0,0.0,0.0,0.0,0.0,0.0,0.0,0.0,0.0,0.0,0.0,0.0,0.0,0.0,0.0,0.0,0.0,0.0,0.0,0.0,0.0,0.0,0.0,0.0,0.0,0.0,0.0,0.0,0.0,0.0,0.0,0.0,0.0,0.0,0.0,0.0,0.0,0.0,0.0,0.0,0.0,0.0,0.0,0.0,0.0,0.0,0.0,0.0,0.0,0.0,0.0,0.0,0.0,0.0,0.0,0.0,0.0,0.0,0.0,0.0,2.9035,2.8641,2.8743,2.8792,0.0,0.0,0.0,0.0,0.0,0.0,0.0,0.0,0.0,0.0,0.0,0.0,0.0,0.0,0.0,0.0,0.0,0.0,0.0,0.0,0.0,0.0,0.0,0.0,0.0,0.0,0.0,0.0,0.0,0.0,0.0,0.0,0.0,0.0,0.0,0.0,0.0,0.0,0.0,0.0,0.0,0.0,0.0,0.0,0.0,0.0,0.0,0.0,0.0,0.0,0.0,0.0,0.0,0.0,0.0,0.0,0.0,0.0,0.0,0.0,0.0,0.0,0.0,0.0,0.0,0.0,0.0,0.0,0.0,0.0,0.0,0.0,0.0,0.0,0.0,0.0,0.0,0.0,0.0,0.0,0.0,0.0,0.0,0.0,0.0,0.0,0.0,0.0,0.0,0.0,0.0,0.0,0.0,0.0,0.0,0.0,0.0,0.0,0.0,0.0,0.0,0.0,0.0,0.0,0.0,0.0,0.0,0.0,0.0,0.0,2.9801,2.9678,2.9229,2.9069,2.9011,2.9014,0.0,0.0,0.0,0.0,0.0,0.0,0.0,0.0,0.0,0.0,0.0,0.0,0.0,0.0,0.0,0.0,0.0,0.0,0.0,0.0,0.0,0.0,0.0,0.0,0.0,0.0,0.0,0.0,0.0,0.0,0.0,0.0,0.0,0.0,0.0,0.0,0.0,0.0,0.0,0.0,0.0,0.0,0.0,0.0,0.0,0.0,0.0,0.0,0.0,0.0,0.0,0.0,0.0,0.0,0.0,0.0,0.0,0.0,0.0,0.0,0.0,0.0,0.0,0.0,0.0,0.0,0.0,0.0,0.0,0.0,0.0,0.0,0.0,0.0,0.0,0.0,0.0,0.0,0.0,0.0,0.0,0.0,0.0,0.0,0.0,0.0,0.0,0.0,0.0,0.0,0.0,0.0,0.0,0.0,0.0,0.0,0.0,0.0,0.0,0.0,0.0,0.0,0.0,0.0,0.0,0.0,0.0,0.0,3.0457,3.0609,3.0693,3.0707,2.9956,2.9564,0.0,0.0,0.0,0.0,0.0,0.0,0.0,0.0,0.0,0.0,0.0,0.0,0.0,0.0,0.0,0.0,0.0,0.0,0.0,0.0,0.0,0.0,0.0,0.0,0.0,0.0,0.0,0.0,0.0,0.0,0.0,0.0,0.0,0.0,0.0,0.0,0.0,0.0,0.0,0.0,0.0,0.0,0.0,0.0,0.0,0.0,0.0,0.0,0.0,0.0,0.0,0.0,0.0,0.0,0.0,0.0,0.0,0.0,0.0,0.0,0.0,0.0,0.0,0.0,0.0,0.0,0.0,0.0,0.0,0.0,0.0,0.0,0.0,0.0,0.0,0.0,0.0,0.0,0.0,0.0,0.0,0.0,0.0,0.0,0.0,0.0,0.0,0.0,0.0,0.0,0.0,0.0,0.0,0.0,0.0,0.0,0.0,0.0,0.0,0.0,0.0,0.0,0.0,0.0,0.0,0.0,0.0,0.0,0.0,3.18,3.2007,3.2166,3.2248,3.1457,3.0754,0.0,0.0,0.0,0.0,0.0,0.0,0.0,0.0,0.0,0.0,0.0,0.0,0.0,0.0,0.0,0.0,0.0,0.0,0.0,0.0,0.0,0.0,0.0,0.0,0.0,0.0,0.0,0.0,0.0,0.0,0.0,0.0,0.0,0.0,0.0,0.0,0.0,0.0,0.0,0.0,0.0,0.0,0.0,0.0,0.0,0.0,0.0,0.0,0.0,0.0,0.0,0.0,0.0,0.0,0.0,0.0,0.0,0.0,0.0,0.0,0.0,0.0,0.0,0.0,0.0,0.0,0.0,0.0,0.0,0.0,0.0,0.0,0.0,0.0,0.0,0.0,0.0,0.0,0.0,0.0,0.0,0.0,0.0,0.0,0.0,0.0,0.0,0.0,0.0,0.0,0.0,0.0,0.0,0.0,0.0,0.0,0.0,0.0,0.0,0.0,0.0,0.0,0.0,0.0,0.0,0.0,0.0,0.0,0.0,3.4032,3.4477,3.4721,3.4774,3.3742,3.2692,0.0,0.0,0.0,0.0,0.0,0.0,0.0,0.0,0.0,0.0,0.0,0.0,0.0,0.0,0.0,0.0,0.0,0.0,0.0,0.0,0.0,0.0,0.0,0.0,0.0,0.0,0.0,0.0,0.0,0.0,0.0,0.0,0.0,0.0,0.0,0.0,0.0,0.0,0.0,0.0,0.0,0.0,0.0,0.0,0.0,0.0,0.0,0.0,0.0,0.0,0.0,0.0,0.0,0.0,0.0,0.0,0.0,0.0,0.0,0.0,0.0,0.0,0.0,0.0,0.0,0.0,0.0,0.0,0.0,0.0,0.0,0.0,0.0,0.0,0.0,0.0,0.0,0.0,0.0,0.0,0.0,0.0,0.0,0.0,0.0,0.0,0.0,0.0,0.0,0.0,0.0,0.0,0.0,0.0,0.0,0.0,0.0,0.0,0.0,0.0,0.0,0.0,0.0,0.0,0.0,0.0,0.0,0.0,3.4815,3.7222,3.8054,3.8458,3.8413,3.6941,3.538,0.0,0.0,0.0,0.0,0.0,0.0,0.0,0.0,0.0,0.0,0.0,0.0,0.0,0.0,0.0,0.0,0.0,0.0,0.0,0.0,0.0,0.0,0.0,0.0,0.0,0.0,0.0,0.0,0.0,0.0,0.0,0.0,0.0,0.0,0.0,0.0,0.0,0.0,0.0,0.0,0.0,0.0,0.0,0.0,0.0,0.0,0.0,0.0,0.0,0.0,0.0,0.0,0.0,0.0,0.0,0.0,0.0,0.0,0.0,0.0,0.0,0.0,0.0,0.0,0.0,0.0,0.0,0.0,0.0,0.0,0.0,0.0,0.0,0.0,0.0,0.0,0.0,0.0,0.0,0.0,0.0,0.0,0.0,0.0,0.0,0.0,0.0,0.0,0.0,0.0,0.0,0.0,0.0,0.0,0.0,0.0,0.0,0.0,0.0,0.0,0.0,0.0,0.0,0.0,0.0,0.0,0.0,0.0,0.0,4.0239,4.1622,4.2358,4.2347,4.0321,3.7966,0.0,0.0,0.0,0.0,0.0,0.0,0.0,0.0,0.0,0.0,0.0,0.0,0.0,0.0,0.0,0.0,0.0,0.0,0.0,0.0,0.0,0.0,0.0,0.0,0.0,0.0,0.0,0.0,0.0,0.0,0.0,0.0,0.0,0.0,0.0,0.0,0.0,0.0,0.0,0.0,0.0,0.0,0.0,0.0,0.0,0.0,0.0,0.0,0.0,0.0,0.0,0.0,0.0,0.0,0.0,0.0,0.0,0.0,0.0,0.0,0.0,0.0,0.0,0.0,0.0,0.0,0.0,0.0,0.0,0.0,0.0,0.0,0.0,0.0,0.0,0.0,0.0,0.0,0.0,0.0,0.0,0.0,0.0,0.0,0.0,0.0,0.0,0.0,0.0,0.0,0.0,0.0,0.0,0.0,0.0,0.0,0.0,0.0,0.0,0.0,0.0,0.0,0.0,0.0,0.0,0.0,0.0,0.0,0.0,4.5111,4.5814,4.6172,4.6257,4.3909,4.094,3.7295,0.0,0.0,0.0,0.0,0.0,0.0,0.0,0.0,0.0,0.0,0.0,0.0,0.0,0.0,0.0,0.0,0.0,0.0,0.0,0.0,0.0,0.0,0.0,0.0,0.0,0.0,0.0,0.0,0.0,0.0,0.0,0.0,0.0,0.0,0.0,0.0,0.0,0.0,0.0,0.0,0.0,0.0,0.0,0.0,0.0,0.0,0.0,0.0,0.0,0.0,0.0,0.0,0.0,0.0,0.0,0.0,0.0,0.0,0.0,0.0,0.0,0.0,0.0,0.0,0.0,0.0,0.0,0.0,0.0,0.0,0.0,0.0,0.0,0.0,0.0,0.0,0.0,0.0,0.0,0.0,0.0,0.0,0.0,0.0,0.0,0.0,0.0,0.0,0.0,0.0,0.0,0.0,0.0,0.0,0.0,0.0,0.0,0.0,0.0,0.0,0.0,0.0,0.0,0.0,0.0,0.0,0.0,0.0,5.1426,5.0474,4.9926,4.987,4.7522,4.4112,0.0,0.0,0.0,0.0,0.0,0.0,0.0,0.0,0.0,0.0,0.0,0.0,0.0,0.0,0.0,0.0,0.0,0.0,0.0,0.0,0.0,0.0,0.0,0.0,0.0,0.0,0.0,0.0,0.0,0.0,0.0,0.0,0.0,0.0,0.0,0.0,0.0,0.0,0.0,0.0,0.0,0.0,0.0,0.0,0.0,0.0,0.0,0.0,0.0,0.0,0.0,0.0,0.0,0.0,0.0,0.0,0.0,0.0,0.0,0.0,0.0,0.0,0.0,0.0,0.0,0.0,0.0,0.0,0.0,0.0,0.0,0.0,0.0,0.0,0.0,0.0,0.0,0.0,0.0,0.0,0.0,0.0,0.0,0.0,0.0,0.0,0.0,0.0,0.0,0.0,0.0,0.0,0.0,0.0,0.0,0.0,0.0,0.0,0.0,0.0,0.0,0.0,0.0,0.0,0.0,0.0,0.0,0.0,0.0,5.3679,5.4641,5.4297,5.2747,4.9924,4.6247,0.0,0.0,0.0,0.0,0.0,0.0,0.0,0.0,0.0,0.0,0.0,0.0,0.0,0.0,0.0,0.0,0.0,0.0,0.0,0.0,0.0,0.0,0.0,0.0,0.0,0.0,0.0,0.0,0.0,0.0,0.0,0.0,0.0,0.0,0.0,0.0,0.0,0.0,0.0,0.0,0.0,0.0,0.0,0.0,0.0,0.0,0.0,0.0,0.0,0.0,0.0,0.0,0.0,0.0,0.0,0.0,0.0,0.0,0.0,0.0,0.0,0.0,0.0,0.0,0.0,0.0,0.0,0.0,0.0,0.0,0.0,0.0,0.0,0.0,0.0,0.0,0.0,0.0,0.0,0.0,0.0,0.0,0.0,0.0,0.0,0.0,0.0,0.0,0.0,0.0,0.0,0.0,0.0,0.0,0.0,0.0,0.0,0.0,0.0,0.0,0.0,0.0,0.0,0.0,0.0,0.0,0.0,0.0,5.0952,5.5543,5.678,5.6778,5.5542,5.2012,4.7819,0.0,0.0,0.0,0.0,0.0,0.0,0.0,0.0,0.0,0.0,0.0,0.0,0.0,0.0,0.0,0.0,0.0,0.0,0.0,0.0,0.0,0.0,0.0,0.0,0.0,0.0,0.0,0.0,0.0,0.0,0.0,0.0,0.0,0.0,0.0,0.0,0.0,0.0,0.0,0.0,0.0,0.0,0.0,0.0,0.0,0.0,0.0,0.0,0.0,0.0,0.0,0.0,0.0,0.0,0.0,0.0,0.0,0.0,0.0,0.0,0.0,0.0,0.0,0.0,0.0,0.0,0.0,0.0,0.0,0.0,0.0,0.0,0.0,0.0,0.0,0.0,0.0,0.0,0.0,0.0,0.0,0.0,0.0,0.0,0.0,0.0,0.0,0.0,0.0,0.0,0.0,0.0,0.0,0.0,0.0,0.0,0.0,0.0,0.0,0.0,0.0,0.0,0.0,0.0,0.0,0.0,0.0,0.0,5.2494,5.6797,5.7633,5.7995,5.7866,5.3779,4.9063,0.0,0.0,0.0,0.0,0.0,0.0,0.0,0.0,0.0,0.0,0.0,0.0,0.0,0.0,0.0,0.0,0.0,0.0,0.0,0.0,0.0,0.0,0.0,0.0,0.0,0.0,0.0,0.0,0.0,0.0,0.0,0.0,0.0,0.0,0.0,0.0,0.0,0.0,0.0,0.0,0.0,0.0,0.0,0.0,0.0,0.0,0.0,0.0,0.0,0.0,0.0,0.0,0.0,0.0,0.0,0.0,0.0,0.0,0.0,0.0,0.0,0.0,0.0,0.0,0.0,0.0,0.0,0.0,0.0,0.0,0.0,0.0,0.0,0.0,0.0,0.0,0.0,0.0,0.0,0.0,0.0,0.0,0.0,0.0,0.0,0.0,0.0,0.0,0.0,0.0,0.0,0.0,0.0,0.0,0.0,0.0,0.0,0.0,0.0,0.0,0.0,0.0,0.0,0.0,0.0,0.0,0.0,0.0,5.4279,5.7556,5.8383,5.8763,5.8763,5.438,5.0116,0.0,0.0,0.0,0.0,0.0,0.0,0.0,0.0,0.0,0.0,0.0,0.0,0.0,0.0,0.0,0.0,0.0,0.0,0.0,0.0,0.0,0.0,0.0,0.0,0.0,0.0,0.0,0.0,0.0,0.0,0.0,0.0,0.0,0.0,0.0,0.0,0.0,0.0,0.0,0.0,0.0,0.0,0.0,0.0,0.0,0.0,0.0,0.0,3.3115,0.0,0.0,0.0,0.0,0.0,0.0,0.0,0.0,0.0,0.0,0.0,0.0,0.0,0.0,0.0,0.0,0.0,0.0,0.0,0.0,0.0,0.0,0.0,0.0,0.0,0.0,0.0,0.0,0.0,0.0,0.0,0.0,0.0,0.0,0.0,0.0,0.0,0.0,0.0,0.0,0.0,0.0,0.0,0.0,0.0,0.0,0.0,0.0,0.0,0.0,0.0,0.0,0.0,0.0,0.0,0.0,0.0,0.0,0.0,5.5555,5.8866,5.9694,5.9935,5.9418,5.5486,5.1168,0.0,0.0,0.0,0.0,0.0,0.0,0.0,0.0,0.0,0.0,0.0,0.0,0.0,0.0,0.0,0.0,0.0,0.0,0.0,0.0,0.0,0.0,0.0,0.0,0.0,0.0,0.0,0.0,0.0,0.0,0.0,0.0,0.0,0.0,0.0,0.0,0.0,0.0,0.0,0.0,0.0,0.0,0.0,0.0,0.0,0.0,0.0,0.0,0.0,0.0,0.0,0.0,0.0,0.0,0.0,0.0,0.0,0.0,0.0,0.0,0.0,0.0,0.0,0.0,0.0,0.0,0.0,0.0,0.0,0.0,0.0,0.0,0.0,0.0,0.0,0.0,0.0,0.0,0.0,0.0,0.0,0.0,0.0,0.0,0.0,0.0,0.0,0.0,0.0,0.0,0.0,0.0,0.0,0.0,0.0,0.0,0.0,0.0,0.0,0.0,0.0,0.0,0.0,0.0,0.0,0.0,0.0,5.3218,5.6598,6.0056,6.0909,6.0944,6.0151,5.659,5.2237,4.7107,0.0,0.0,0.0,0.0,0.0,0.0,0.0,0.0,0.0,0.0,0.0,0.0,0.0,0.0,0.0,0.0,0.0,0.0,0.0,0.0,0.0,0.0,0.0,0.0,0.0,0.0,0.0,0.0,0.0,0.0,0.0,0.0,0.0,0.0,0.0,0.0,0.0,0.0,2.8956,3.0904,0.0,0.0,0.0,0.0,0.0,0.0,0.0,0.0,3.6225,0.0,0.0,0.0,0.0,0.0,0.0,0.0,0.0,0.0,0.0,0.0,0.0,0.0,0.0,0.0,0.0,0.0,0.0,0.0,0.0,0.0,0.0,0.0,0.0,0.0,0.0,0.0,0.0,0.0,0.0,0.0,0.0,0.0,0.0,0.0,0.0,0.0,0.0,0.0,0.0,0.0,0.0,0.0,0.0,0.0,0.0,0.0,0.0,0.0,0.0,0.0,0.0,0.0,0.0,0.0,0.0,5.0003,5.4253,5.7659,6.0116,6.0944,6.0944,6.0159,5.7107,5.3237,4.8548,0.0,0.0,0.0,0.0,0.0,0.0,0.0,0.0,0.0,0.0,0.0,0.0,0.0,0.0,0.0,0.0,0.0,0.0,0.0,0.0,0.0,0.0,0.0,0.0,0.0,0.0,0.0,0.0,0.0,0.0,0.0,0.0,0.0,0.0,0.0,0.0,0.0,0.0,0.0,3.3228,3.4943,0.0,0.0,0.0,0.0,0.0,0.0,0.0,0.0,3.818,0.0,0.0,0.0,0.0,0.0,0.0,0.0,0.0,0.0,0.0,0.0,0.0,0.0,0.0,0.0,0.0,0.0,0.0,0.0,0.0,0.0,0.0,0.0,0.0,0.0,0.0,0.0,0.0,0.0,0.0,0.0,0.0,0.0,0.0,0.0,0.0,0.0,0.0,0.0,0.0,0.0,0.0,0.0,0.0,0.0,0.0,0.0,0.0,0.0,0.0,0.0,0.0,0.0,0.0,0.0,5.1701,5.546,5.8495,6.0703,6.1875,6.1944,6.0771,5.7831,5.4065,0.0,0.0,0.0,0.0,0.0,0.0,0.0,0.0,0.0,0.0,0.0,0.0,0.0,0.0,0.0,0.0,0.0,0.0,0.0,0.0,0.0,0.0,0.0,0.0,0.0,0.0,0.0,0.0,0.0,0.0,0.0,0.0,0.0,0.0,0.0,0.0,0.0,0.0,0.0,0.0,3.5432,3.6817,3.7905,0.0,0.0,0.0,0.0,0.0,0.0,4.0911,4.0394,0.0,0.0,0.0,0.0,0.0,0.0,0.0,0.0,0.0,0.0,0.0,0.0,0.0,0.0,0.0,0.0,0.0,0.0,0.0,0.0,0.0,0.0,0.0,0.0,0.0,0.0,0.0,0.0,0.0,0.0,0.0,0.0,0.0,0.0,0.0,0.0,0.0,0.0,0.0,0.0,0.0,0.0,0.0,0.0,0.0,0.0,0.0,0.0,0.0,0.0,0.0,0.0,0.0,0.0,0.0,5.3521,5.6762,5.9392,6.1496,6.2884,6.2875,6.1323,5.8383,5.4736,0.0,0.0,0.0,0.0,0.0,0.0,0.0,0.0,0.0,0.0,0.0,0.0,0.0,0.0,0.0,0.0,0.0,0.0,0.0,0.0,0.0,0.0,0.0,0.0,0.0,0.0,0.0,0.0,0.0,0.0,0.0,0.0,0.0,0.0,0.0,0.0,0.0,0.0,0.0,0.0,0.0,3.8715,4.0187,4.109,0.0,0.0,0.0,0.0,4.3548,4.3047,0.0,0.0,0.0,0.0,0.0,0.0,0.0,0.0,0.0,0.0,0.0,0.0,0.0,0.0,0.0,0.0,0.0,0.0,0.0,0.0,0.0,0.0,0.0,0.0,0.0,0.0,0.0,0.0,0.0,0.0,0.0,0.0,0.0,0.0,0.0,0.0,0.0,0.0,0.0,0.0,0.0,0.0,0.0,0.0,0.0,0.0,0.0,0.0,0.0,0.0,0.0,0.0,0.0,0.0,0.0,0.0,5.4356,5.8047,6.0737,6.2298,6.3195,6.2884,6.1323,5.8357,5.4977,0.0,0.0,0.0,0.0,0.0,0.0,0.0,0.0,0.0,0.0,0.0,0.0,0.0,0.0,0.0,0.0,0.0,0.0,0.0,0.0,0.0,0.0,0.0,0.0,0.0,0.0,0.0,0.0,0.0,0.0,0.0,0.0,0.0,0.0,0.0,0.0,0.0,0.0,0.0,0.0,0.0,4.1067,4.2579,4.3448,4.416,0.0,0.0,4.5818,4.51,4.4894,0.0,0.0,0.0,0.0,0.0,0.0,0.0,0.0,0.0,0.0,0.0,0.0,0.0,0.0,0.0,0.0,0.0,0.0,0.0,0.0,0.0,0.0,0.0,0.0,0.0,0.0,0.0,0.0,0.0,0.0,0.0,0.0,0.0,0.0,0.0,0.0,0.0,0.0,0.0,0.0,0.0,0.0,0.0,0.0,0.0,0.0,0.0,0.0,0.0,0.0,0.0,0.0,0.0,0.0,0.0,5.1062,5.48,5.817,6.058,6.2055,6.2853,6.251,6.0991,5.8548,5.5264,0.0,0.0,0.0,0.0,0.0,0.0,0.0,0.0,0.0,0.0,0.0,0.0,0.0,0.0,0.0,0.0,0.0,0.0,0.0,0.0,0.0,0.0,0.0,0.0,0.0,0.0,0.0,0.0,0.0,0.0,0.0,0.0,0.0,0.0,0.0,0.0,0.0,0.0,0.0,0.0,0.0,0.0,4.4251,4.5771,0.0,0.0,0.0,4.7892,4.7075,0.0,0.0,0.0,0.0,0.0,0.0,0.0,0.0,0.0,0.0,0.0,0.0,0.0,0.0,0.0,0.0,0.0,0.0,0.0,0.0,0.0,0.0,0.0,0.0,0.0,0.0,0.0,0.0,0.0,0.0,0.0,0.0,0.0,0.0,0.0,0.0,0.0,0.0,0.0,0.0,0.0,0.0,0.0,0.0,0.0,0.0,0.0,0.0,0.0,0.0,0.0,0.0,0.0,0.0,0.0,0.0,0.0,5.5322,5.8327,6.0692,6.2298,6.2761,6.2453,6.1307,5.905,0.0,0.0,0.0,0.0,0.0,0.0,0.0,0.0,0.0,0.0,0.0,0.0,0.0,0.0,0.0,0.0,0.0,0.0,0.0,0.0,0.0,0.0,0.0,0.0,0.0,0.0,0.0,2.9436,0.0,0.0,0.0,0.0,0.0,0.0,0.0,0.0,0.0,0.0,0.0,0.0,0.0,0.0,4.4372,4.6212,4.7807,4.8949,0.0,0.0,4.9794,4.9176,4.8786,4.796,0.0,0.0,0.0,0.0,0.0,0.0,0.0,0.0,0.0,0.0,0.0,0.0,0.0,0.0,0.0,0.0,0.0,0.0,0.0,0.0,0.0,0.0,0.0,0.0,0.0,0.0,0.0,0.0,0.0,0.0,0.0,0.0,0.0,0.0,0.0,0.0,0.0,0.0,0.0,0.0,0.0,0.0,0.0,0.0,0.0,0.0,0.0,0.0,0.0,0.0,0.0,0.0,0.0,0.0,0.0,5.6082,5.9087,6.1698,6.3825,6.3298,6.2956,6.2791,5.9975,5.6978,0.0,0.0,0.0,0.0,0.0,0.0,0.0,0.0,0.0,0.0,0.0,0.0,0.0,0.0,0.0,0.0,0.0,0.0,0.0,0.0,0.0,0.0,0.0,0.0,0.0,0.0,0.0,0.0,0.0,0.0,0.0,0.0,0.0,0.0,0.0,0.0,0.0,0.0,0.0,0.0,0.0,4.6131,4.9029,4.9431,4.9941,0.0,0.0,5.1492,5.1317,5.0087,4.9067,4.8767,0.0,0.0,0.0,0.0,0.0,0.0,0.0,0.0,0.0,0.0,0.0,0.0,0.0,0.0,0.0,0.0,0.0,0.0,0.0,0.0,0.0,0.0,0.0,0.0,0.0,0.0,0.0,0.0,0.0,0.0,0.0,0.0,0.0,0.0,0.0,0.0,0.0,0.0,0.0,0.0,0.0,0.0,0.0,0.0,0.0,0.0,0.0,0.0,0.0,0.0,0.0,0.0,0.0,5.3269,5.6537,5.9516,6.1926,6.3658,6.3896,6.3566,6.2639,6.1148,5.8515,0.0,0.0,0.0,0.0,0.0,0.0,0.0,0.0,0.0,0.0,0.0,0.0,0.0,0.0,0.0,0.0,0.0,0.0,0.0,0.0,0.0,0.0,0.0,0.0,0.0,0.0,0.0,0.0,3.4559,3.5495,3.6748,0.0,0.0,0.0,0.0,0.0,0.0,0.0,0.0,0.0,0.0,4.7839,4.9389,5.0631,0.0,0.0,5.2553,5.2599,5.2076,5.1517,5.0766,4.9838,4.8383,0.0,0.0,0.0,0.0,0.0,0.0,0.0,0.0,0.0,0.0,0.0,0.0,0.0,0.0,0.0,0.0,0.0,0.0,0.0,0.0,0.0,0.0,0.0,0.0,0.0,0.0,0.0,0.0,0.0,0.0,0.0,0.0,0.0,0.0,0.0,0.0,0.0,0.0,0.0,0.0,0.0,0.0,0.0,0.0,0.0,0.0,0.0,0.0,0.0,0.0,0.0,0.0,5.4126,5.7103,6.008,6.2448,6.413,6.4444,6.4218,6.3416,6.2329,5.9954,0.0,0.0,0.0,0.0,0.0,0.0,0.0,0.0,0.0,0.0,0.0,0.0,0.0,0.0,0.0,0.0,0.0,0.0,0.0,0.0,0.0,0.0,0.0,0.0,0.0,0.0,0.0,0.0,3.6419,3.7313,3.8384,0.0,0.0,0.0,0.0,0.0,0.0,0.0,0.0,0.0,0.0,4.9269,5.0582,5.1957,5.3049,5.3448,5.389,5.3949,5.3399,5.2934,5.2334,5.1285,0.0,0.0,0.0,0.0,0.0,0.0,0.0,0.0,0.0,0.0,0.0,0.0,0.0,0.0,0.0,0.0,0.0,0.0,0.0,0.0,0.0,0.0,0.0,0.0,0.0,0.0,0.0,3.5329,0.0,0.0,3.5526,0.0,0.0,0.0,0.0,0.0,0.0,0.0,0.0,0.0,0.0,0.0,0.0,0.0,0.0,0.0,0.0,0.0,0.0,0.0,0.0,0.0,0.0,5.4938,5.7891,6.0868,6.3439,6.5537,6.4996,6.4962,6.5514,6.3551,6.1274,5.8887,0.0,0.0,0.0,0.0,0.0,0.0,0.0,0.0,0.0,0.0,0.0,0.0,0.0,0.0,0.0,0.0,0.0,0.0,0.0,0.0,0.0,0.0,0.0,0.0,0.0,0.0,3.7035,3.7752,3.8236,0.0,0.0,0.0,0.0,0.0,0.0,0.0,0.0,0.0,0.0,4.8787,5.0276,5.3131,5.3533,5.4033,5.5369,5.5597,5.5622,5.5555,5.4414,5.3475,0.0,0.0,0.0,0.0,0.0,0.0,0.0,0.0,0.0,0.0,0.0,0.0,0.0,0.0,0.0,0.0,0.0,0.0,0.0,0.0,0.0,0.0,0.0,0.0,0.0,0.0,0.0,3.9331,3.8954,0.0,0.0,0.0,0.0,0.0,0.0,0.0,0.0,0.0,0.0,0.0,4.7856,4.862,0.0,0.0,0.0,0.0,0.0,0.0,0.0,0.0,0.0,0.0,0.0,0.0,5.6418,5.9302,6.1839,6.3971,6.5639,6.5933,6.5933,6.5706,6.5006,6.2821,5.9115,0.0,0.0,0.0,0.0,0.0,0.0,0.0,0.0,0.0,0.0,0.0,0.0,0.0,0.0,0.0,0.0,0.0,0.0,0.0,0.0,0.0,0.0,0.0,0.0,0.0,3.8161,0.0,0.0,0.0,0.0,0.0,0.0,0.0,0.0,0.0,0.0,0.0,4.7785,4.9426,5.1115,5.2538,5.3449,5.4389,5.5158,0.0,0.0,0.0,0.0,0.0,0.0,0.0,0.0,0.0,0.0,0.0,0.0,0.0,0.0,5.0443,4.8245,4.8259,4.8661,4.8914,0.0,0.0,0.0,0.0,0.0,0.0,0.0,0.0,0.0,0.0,0.0,0.0,0.0,0.0,4.274,0.0,4.243,0.0,0.0,0.0,0.0,0.0,0.0,0.0,0.0,4.9373,5.0602,5.1831,5.2323,5.2691,0.0,5.2667,5.1447,0.0,0.0,0.0,0.0,0.0,0.0,0.0,0.0,5.8211,6.0858,6.3125,6.4986,6.6406,6.6914,6.6948,6.6485,6.5696,6.3565,5.9902,5.6722,5.3653,0.0,0.0,0.0,0.0,0.0,0.0,0.0,0.0,0.0,0.0,0.0,0.0,0.0,0.0,0.0,0.0,0.0,0.0,0.0,0.0,0.0,0.0,0.0,4.1027,0.0,0.0,0.0,0.0,0.0,0.0,0.0,0.0,0.0,4.7284,4.8412,4.9826,5.1242,5.2847,5.405,5.448,0.0,0.0,0.0,0.0,0.0,0.0,0.0,5.6211,5.6137,5.5647,5.5479,5.6103,5.6041,5.5897,5.581,0.0,0.0,5.1769,5.1599,5.1998,5.2273,5.2307,5.2606,5.3581,5.378,5.4156,0.0,0.0,0.0,0.0,0.0,0.0,0.0,0.0,4.5383,4.5464,0.0,4.5766,0.0,0.0,0.0,0.0,0.0,4.8181,0.0,0.0,5.2597,5.4136,5.6141,5.6265,5.6685,5.7315,5.6642,5.6274,5.604,5.2657,0.0,0.0,0.0,0.0,0.0,0.0,6.0187,6.2419,6.4559,6.6385,6.7795,6.7897,6.7897,6.7795,6.5777,6.3646,6.1448,5.9201,5.6673,5.378,5.0811,0.0,0.0,0.0,0.0,0.0,0.0,0.0,0.0,0.0,0.0,0.0,0.0,0.0,0.0,0.0,0.0,0.0,0.0,0.0,0.0,4.3822,0.0,0.0,0.0,0.0,0.0,0.0,0.0,0.0,0.0,0.0,4.9567,5.0521,5.1903,5.3382,0.0,0.0,0.0,0.0,5.7663,5.8351,5.9068,5.9508,5.9508,5.891,5.8345,5.8108,0.0,0.0,5.8281,5.8362,5.8322,5.806,5.8603,5.8098,5.5286,5.4708,5.4854,5.5477,5.5619,5.6167,5.7413,5.7645,5.7909,4.9723,0.0,0.0,0.0,0.0,4.8054,4.8365,4.8451,4.9071,4.915,4.8913,4.8942,0.0,0.0,0.0,0.0,0.0,0.0,5.2148,5.3385,5.5615,5.6988,5.7666,5.8644,5.9237,5.9445,5.9237,5.9128,5.9072,5.8236,5.6848,5.5031,0.0,0.0,0.0,0.0,6.1246,6.3404,6.5127,6.6447,6.7398,6.7924,6.7913,6.7398,6.6473,6.5143,6.3502,6.1414,5.9438,5.7457,5.4591,0.0,0.0,0.0,0.0,0.0,0.0,0.0,0.0,0.0,0.0,0.0,0.0,0.0,0.0,0.0,0.0,0.0,0.0,0.0,4.6102,4.715,4.7733,0.0,0.0,0.0,0.0,0.0,0.0,0.0,0.0,0.0,5.3194,5.3617,5.4333,0.0,0.0,5.737,5.7805,5.8728,5.9434,5.9668,6.0018,0.0,6.0277,6.0,5.971,5.9648,6.029,6.0968,6.1341,6.1711,6.1941,6.186,6.1926,6.1655,6.0849,5.9404,5.8562,5.8658,5.8838,5.9194,6.009,6.0331,6.0714,5.2928,5.1215,5.0489,5.0341,5.065,5.1182,5.15,5.1709,5.2244,5.2287,5.2059,5.2126,5.1834,5.1243,5.1471,0.0,0.0,0.0,5.5029,5.5799,5.8111,5.9349,5.9686,6.0489,6.0891,6.0891,6.0979,6.099,6.1033,6.1294,6.0662,5.9162,0.0,0.0,6.0785,6.1545,6.284,6.4714,6.5929,6.7045,6.8026,6.8495,6.8529,6.8071,6.7232,6.6222,6.5037,6.3313,6.1498,5.9713,5.7462,5.5078,0.0,0.0,0.0,0.0,0.0,0.0,0.0,0.0,0.0,0.0,0.0,3.7562,3.9472,0.0,0.0,0.0,4.5981,4.8003,4.995,5.0533,0.0,0.0,0.0,0.0,0.0,0.0,0.0,5.2583,5.4922,5.644,5.6144,5.6871,5.7385,5.7258,5.8194,5.8956,5.9246,0.0,6.0762,6.1049,6.139,6.1732,6.1983,6.1817,6.1769,6.1983,6.2481,6.3242,6.3998,6.4315,6.4483,6.4615,6.4499,6.433,6.4197,6.3177,6.2099,6.139,6.1302,6.1651,6.2355,6.2517,6.2939,5.5395,5.5295,5.4205,5.3864,5.411,5.4132,5.4379,5.4836,5.4804,5.49,5.5006,5.5174,5.4926,5.4304,5.4509,0.0,5.5654,5.6979,5.7969,5.8744,6.0231,6.1276,6.1966,6.2063,6.2063,6.2063,6.2271,6.2373,6.2384,6.2665,6.3127,6.3738,6.2481,6.2228,6.3027,6.3684,6.473,6.6144,6.689,6.7948,6.933,6.9386,6.9353,6.9274,6.8015,6.7022,6.6275,6.4837,6.3141,6.1143,5.977,5.7758,5.4961,0.0,0.0,0.0,0.0,0.0,0.0,0.0,0.0,0.0,0.0,0.0,0.0,0.0,0.0,0.0,4.9822,0.0,5.3721,5.3839,0.0,0.0,0.0,5.3858,5.4513,5.5098,5.5549,5.5728,0.0,0.0,5.8525,6.0044,6.0718,5.941,5.9589,6.0109,6.0745,6.135,6.1905,6.2559,6.3128,6.3671,6.4176,6.415,6.4247,6.4682,6.4634,6.4972,6.6033,6.6204,6.6218,6.6483,6.6393,6.6153,6.5901,6.5938,6.5647,6.3836,6.3458,6.3647,6.4368,6.454,6.4968,5.7906,5.7906,5.7616,5.6554,5.5092,5.5061,5.5442,5.6002,5.5991,5.6489,5.7376,5.7422,5.7551,5.7724,5.7737,5.7898,5.8101,5.8966,5.9735,6.0461,6.195,6.2988,6.3661,6.4207,6.4451,6.4495,6.4512,6.4549,6.4573,6.502,6.5345,6.5499,6.5517,6.5346,6.5008,6.5173,6.5744,6.6644,6.7358,6.816,6.9073,6.9286,6.9129,6.8578,6.8617,6.8301,6.7546,6.6266,6.5316,6.4758,6.2891,6.0969,5.917,5.7168,0.0,0.0,0.0,0.0,0.0,0.0,0.0,0.0,0.0,4.4168,4.5609,0.0,4.9161,0.0,5.2892,5.5234,5.6706,5.6714,0.0,0.0,5.6936,5.7086,5.6939,5.7981,5.8573,5.8157,5.9978,6.1151,6.0672,6.1936,6.289,6.2901,6.2393,6.2295,6.2931,6.3503,6.3891,6.4137,6.4888,6.5596,6.5776,6.6252,6.6569,6.6837,6.6802,6.6947,6.7368,6.7371,6.7396,6.7467,6.7429,6.7391,6.7326,6.7333,6.7259,6.6753,6.632,6.6204,6.693,6.7076,6.7344,5.8818,5.8818,5.8818,5.806,5.6934,5.7041,5.7365,5.776,5.776,5.8145,5.877,5.877,5.8924,5.9171,5.9519,5.9645,5.974,6.072,6.134,6.1782,6.2862,6.376,6.4425,6.4836,6.5171,6.55,6.57,6.5829,6.5854,6.6419,6.6663,6.6688,6.6936,6.6845,6.6469,6.6285,6.6555,6.7287,6.7987,6.8568,6.9006,6.914,6.9016,6.8621,6.8587,6.8366,6.7936,6.7095,6.6445,6.6091,6.5124,6.3807,6.2037,6.0658,5.8763,0.0,0.0,0.0,0.0,0.0,0.0,0.0,0.0,0.0,0.0,0.0,5.3315,5.5031,5.668,5.8241,5.96,5.9621,5.9492,5.9265,5.9727,6.0023,5.9963,6.0797,6.1306,6.1158,6.2363,6.3189,6.3164,6.3871,6.4726,6.5587,6.5034,6.4629,6.4857,6.5092,6.5392,6.6019,6.6421,6.6757,6.6918,6.7303,6.7607,6.7701,6.7933,6.8249,6.8598,6.8834,6.9059,6.9308,6.9269,6.9183,6.9199,6.9168,6.9168,6.9162,6.9049,6.8781,6.8439,6.8593,6.9002,5.9298,5.9341,5.9298,5.9311,5.9341,5.9537,5.9669,5.9668,5.9668,5.9787,5.9967,6.0004,6.0016,6.0048,6.0684,6.0996,6.1058,6.228,6.2903,6.3015,6.3682,6.4395,6.5081,6.5081,6.5392,6.5967,6.6452,6.6661,6.6706,6.726,6.7565,6.7559,6.7637,6.7676,6.7651,6.7336,6.7377,6.7838,6.8569,6.8916,6.8928,6.9088,6.9157,6.9157,6.8629,6.8273,6.8175,6.771,6.7093,6.6381,6.6683,6.598,6.404,6.341,6.1942,0.0,5.8475,0.0,0.0,0.0,0.0,0.0,0.0,0.0,0.0,5.5478,5.7523,6.0245,6.0555,6.11,6.2273,6.2404,6.2278,6.1887,6.2224,6.2683,6.3143,6.3447,6.3814,6.4198,6.4666,6.5139,6.5364,6.5641,6.6314,6.7233,6.7022,6.6681,6.6615,6.6355,6.6593,6.7856,6.7603,6.759,6.8117,6.8252,6.8331,6.8372,6.8825,6.9298,6.9787,7.0173,7.06,7.1049,7.0916,7.0797,7.089,7.0844,7.0844,7.0751,7.1006,7.0809,6.9658,6.9619,7.0185,6.2042,6.2042,6.2012,6.2042,6.2056,6.2095,6.1532,6.0566,6.0548,6.1299,6.2485,6.2719,6.2835,6.2822,6.2978,6.3054,6.3085,6.3927,6.46,6.5147,6.5802,6.6501,6.7184,6.7215,6.7291,6.7416,6.7513,6.7568,6.7582,6.8125,6.8364,6.8377,6.8864,6.9103,6.9116,0.0,0.0,0.0,6.8229,6.8615,6.8627,6.9569,7.0065,7.0059,7.0413,0.0,6.9694,6.9006,6.8309,6.7579,6.7093,0.0,0.0,0.0,0.0,0.0,0.0,0.0,0.0,0.0,0.0,0.0,5.9132,5.8344,5.7236,5.8806,6.0622,6.234,6.2952,6.3523,6.4329,6.4625,6.4729,6.4652,6.4654,6.4889,6.5345,6.5756,6.6065,6.6006,6.6619,6.6857,6.6529,6.697,6.7443,6.7801,6.7659,6.7797,6.8259,6.78,6.7571,6.7825,6.82,6.891,7.0053,7.0135,7.0158,7.0634,7.0809,7.0814,7.0729,7.0763,7.0826,7.1057,7.092,7.0921,7.0921,7.089,7.0982,7.0921,7.1443,7.1703,7.103,7.1011,7.1135,6.2812,6.2843,6.315,6.3304,0.0,6.3674,6.3643,6.3256,6.224,6.2245,6.3026,6.3127,6.338,6.372,6.4092,6.4402,6.4787,6.5455,6.5982,6.6309,6.6663,6.7159,6.7855,6.7855,6.8024,6.8334,6.8536,6.8576,6.859,6.9014,6.9022,6.8708,6.9012,6.8974,6.8685,6.8671,6.8607,6.8463,6.8815,6.8993,6.902,6.959,6.9896,6.9909,7.0202,0.0,0.0,0.0,0.0,0.0,0.0,0.0,0.0,0.0,0.0,6.5268,6.4475,6.3739,6.3029,6.2839,6.293,6.3275,6.3528,6.2865,6.0995,6.2471,6.3921,6.4984,6.5273,6.5723,6.6656,6.668,6.6638,6.6772,6.6911,6.7076,6.7187,6.7458,6.761,6.7542,6.7629,6.7674,6.7745,6.7858,6.8361,6.8952,6.8947,6.9092,6.9573,6.8789,6.818,6.8734,6.9404,7.0054,7.0674,7.0829,7.0892,7.113,7.1471,7.1596,7.149,7.1706,7.1937,7.1921,7.1937,7.1937,7.1937,7.1937,7.1952,7.1983,7.2229,7.2429,7.2212,7.2196,7.2196,6.3438,6.35,6.4094,6.4337,6.4412,6.4997,6.5565,6.5951,0.0,0.0,0.0,6.352,6.3827,6.4412,6.4997,6.5551,6.6136,6.6905,6.7243,6.7243,6.749,6.789,6.8429,6.8444,6.8721,6.9257,6.9538,6.9655,6.967,6.993,6.9825,6.9313,6.9324,6.9072,6.8556,6.8539,6.8984,6.9858,6.9602,6.9438,6.9483,6.9705,6.979,6.9822,6.9844,6.9806,6.9692,7.0115,7.0286,7.017,7.0629,7.0636,7.0087,6.9536,6.8671,6.7412,6.7194,6.6822,6.6105,6.64,6.6601,6.6635,6.7099,6.6589,6.4741,6.5777,6.6801,6.7524,6.7408,6.772,6.8689,6.8395,6.8257,6.8482,6.866,6.8688,6.863,6.8599,6.8593,6.8699,6.8485,6.8457,6.8887,6.8889,6.9147,7.0137,7.016,7.0244,7.0566,6.9712,6.9136,6.9886,7.0426,7.0889,7.109,7.1105,7.1136,7.1413,7.1844,7.2137,7.226,7.2722,7.3122,7.3122,7.3245,7.3337,7.3337,7.3322,7.3353,7.3322,7.3322,7.3337,7.3353,7.3368,7.3322,6.5863,6.5937,6.6299,6.6474,6.646,6.6566,6.6659,6.672,6.6443,6.632,6.632,6.632,6.6382,6.6474,6.6566,6.6659,6.6843,6.8058,6.8627,6.8688,6.9813,7.0398,7.0475,7.049,7.0521,7.0613,7.0658,7.0688,7.0703,7.1002,7.1105,7.1057,7.1324,7.1363,7.1347,7.1332,7.1389,7.1533,7.0097,6.9325,6.9357,7.0392,7.0972,7.0972,7.116,7.1022,7.0473,7.054,7.026,6.967,6.9672,6.9785,6.9924,7.0105,6.9857,6.9272,6.9452,6.9284,6.8551,6.8558,6.8594,6.8627,6.9226,6.8987,6.7498,6.7743,6.8269,6.8927,6.9087,6.9258,6.9457,6.9502,6.953,6.9561,6.9037,6.8871,6.9404,6.9141,6.8973,6.9303,6.9735,6.9885,6.9788,7.0147,7.0457,7.0766,7.0874,7.0844,7.0952,7.0705,7.0596,7.072,7.0828,7.1167,7.1675,7.1829,7.2013,7.2629,7.2722,7.2845,7.2845,7.3414,7.3845,7.3845,7.4245,7.4584,7.4615,7.4738,7.4615,7.4553,7.4569,7.46,7.4553,7.4615,7.4507,6.6125,6.62,6.6681,6.7207,6.778,6.8693,6.9059,6.9074,6.9059,6.8228,6.6921,6.6905,6.7305,6.7966,6.7997,6.8382,6.9105,6.972,7.0012,7.0043,7.0613,7.089,7.089,7.089,7.089,7.089,7.089,7.089,7.0905,7.1041,7.1147,7.1147,7.1282,7.1357,7.1357,7.1357,7.1357,7.1326,7.0929,7.0692,7.0707,7.1294,7.1595,7.1595,7.1678,7.1708,7.1516,7.1699,7.1708,7.1574,7.1694,7.1831,7.1954,7.1691,7.1279,7.0723,7.0597,7.0234,6.9534,6.9621,6.973,6.9717,6.9883,6.9914,6.9622,6.9603,6.9664,6.9841,6.9799,6.9937,7.028,7.0017,6.9926,7.0322,6.9979,6.9921,7.0224,7.03,7.0278,7.0456,7.0572,7.0624,7.0474,7.0705,7.1075,7.1398,7.1767,7.2013,7.1998,7.1998,7.189,7.1613,7.1798,7.2137,7.2475,7.2537,7.2691,7.2968,7.3307,7.3522,7.3584,7.4091,7.4491,7.4553,7.483,7.4984,7.5015,7.5015,7.5015,7.5015,7.5015,7.5015,7.5015,7.5261,7.5292,6.6683,6.6744,6.7333,6.8029,6.8847,7.0128,7.0694,7.0694,7.0648,6.9557,6.7835,6.7754,6.8397,6.9304,6.9335,6.9905,7.0828,7.1075,7.1151,7.1167,7.129,7.1383,7.1383,7.1398,7.1383,7.1383,7.1383,7.1383,7.1383,7.1383,7.1383,7.1383,7.1383,7.1383,7.1367,7.1383,7.1383,7.1382,7.1866,7.2027,7.1821,7.1864,7.1893,7.1893,7.1908,7.2012,7.2201,7.2464,7.271,7.2973,7.3188,7.3345,7.337,7.2913,7.2441,7.1999,7.1689,7.1306,7.0832,7.0954,7.1047,7.0935,7.0781,7.0832,7.12,7.1169,7.0906,7.0627,7.0465,7.0586,7.0985,7.061,7.0392,7.0913,7.0926,7.0901,7.0951,7.1166,7.1297,7.1252,7.1195,7.1136,7.1167,7.129,7.1629,7.2167,7.266,7.2968,7.2999,7.2999,7.2752,7.2506,7.2691,7.2906,7.2999,7.2968,7.303,7.3153,7.363,7.3968,7.4214,7.4769,7.5169,7.5261,7.5384,7.5569,7.5507,7.5507,7.5538,7.56,7.563,7.5522,7.56,7.5891,7.6076,6.9024,6.9131,6.9364,6.9669,6.9776,6.9959,7.0081,7.0081,7.002,7.0067,7.0052,7.0401,7.0536,7.0705,7.0705,7.0798,7.1013,7.1613,7.1906,7.1967,7.2537,7.2814,7.2752,7.2783,7.2783,7.2752,7.2722,7.266,7.2691,7.2722,7.2783,7.2814,7.2814,7.2737,7.2783,7.2783,7.2783,7.2814,7.2876,7.2428,7.1539,7.1745,7.1893,7.1893,7.1925,7.1908,7.2031,7.1967,7.2028,7.2026,7.2116,7.2203,7.2466,7.2662,7.2886,7.3111,7.3285,7.339,7.3294,7.3354,7.3114,7.297,7.274,7.2563,7.217,7.2141,7.1945,7.156,7.1465,7.1488,7.1621,7.1579,7.1543,7.1605,7.1468,7.1338,7.134,7.11,7.0935,7.0935,7.1582,7.189,7.1921,7.2321,7.2722,7.2783,7.2968,7.3122,7.3122,7.3214,7.3183,7.2999,7.303,7.306,7.3091,7.303,7.3368,7.3799,7.3968,7.4338,7.4861,7.5446,7.5922,7.5953,7.6322,7.6599,7.6661,7.6814,7.6722,7.6538,7.6568,7.6737,7.6784,7.6784,7.6753,6.9163,6.9179,6.9304,6.9733,7.0283,7.0881,7.1142,7.1142,7.1142,7.122,7.1345,7.1502,7.1567,7.1536,7.1552,7.1767,7.2167,7.2445,7.2568,7.2614,7.2876,7.2999,7.2999,7.2999,7.2999,7.2999,7.2999,7.2999,7.2999,7.2999,7.2999,7.2999,7.2999,7.2999,7.303,7.3368,7.3614,7.3614,7.3968,7.3954,7.3509,7.2876,7.255,7.255,7.255,7.2656,7.2808,7.2823,7.2929,7.3064,7.3094,7.3108,7.3259,7.3377,7.3339,7.308,7.2771,7.2609,7.264,7.2655,7.2551,7.2434,7.2434,7.2303,7.2083,7.2085,7.1965,7.1832,7.1811,7.1822,7.181,7.1708,7.1626,7.1613,7.1683,7.178,7.1749,7.2013,7.2152,7.2152,7.2383,7.2568,7.2598,7.2814,7.2999,7.306,7.3307,7.3584,7.3614,7.3922,7.4153,7.4199,7.4199,7.3999,7.3722,7.3968,7.4245,7.4553,7.4922,7.5353,7.5569,7.6137,7.6599,7.6568,7.6814,7.6983,7.6921,7.6983,7.6983,7.6983,7.6983,7.6983,7.6983,7.6983,7.6983,6.9512,6.9512,6.9512,6.9909,7.0661,7.1383,7.169,7.169,7.1706,7.1754,7.1834,7.1834,7.1924,7.2012,7.209,7.2444,7.2952,7.2999,7.2999,7.2999,7.2999,7.2999,7.2999,7.2999,7.2999,7.2999,7.2999,7.2999,7.303,7.3214,7.3276,7.3307,7.3445,7.3553,7.3568,7.4061,7.4276,7.4307,7.4769,7.5015,7.483,7.4046,7.3553,7.3537,7.3553,7.3662,7.3881,7.3927,7.3989,7.4175,7.4221,7.4267,7.4328,7.4173,7.3798,7.322,7.2736,7.2455,7.2455,7.2439,7.2425,7.235,7.2336,7.2291,7.2216,7.2201,7.2201,7.2216,7.2201,7.2185,7.2011,7.1912,7.187,7.187,7.2136,7.2275,7.2306,7.2752,7.2968,7.2999,7.2906,7.2999,7.303,7.3183,7.3337,7.3368,7.3861,7.4292,7.4307,7.4645,7.4953,7.5015,7.5107,7.4984,7.4461,7.4553,7.4984,7.5337,7.5676,7.5953,7.6215,7.6753,7.6999,7.6798,7.6952,7.6983,7.6983,7.6983,7.7061,7.7014,7.7044,7.7075,7.6983,7.7014,7.7014,7.0829,7.0799,7.0783,7.0785,7.0891,7.0954,7.0984,7.1032,7.097,7.1115,7.1419,7.1435,7.1613,7.1996,7.2235,7.2625,7.2968,7.2968,7.2983,7.2999,7.2999,7.2999,7.2999,7.2999,7.2999,7.3091,7.3091,7.3091,7.3122,7.3676,7.3953,7.3999,7.4522,7.4861,7.483,7.4892,7.4953,7.4984,7.5076,7.5076,7.5076,7.4953,7.4922,7.4922,7.4892,7.4846,7.4893,7.4924,7.4909,7.4939,7.4926,7.5053,7.5291,7.4795,7.4268,7.3876,7.3812,7.375,7.3703,7.3657,7.3551,7.34,7.3245,7.3262,7.2892,7.2861,7.2861,7.2907,7.2845,7.2737,7.2488,7.2629,7.2784,7.2814,7.286,7.2906,7.2906,7.2906,7.2999,7.306,7.3153,7.3245,7.3122,7.3553,7.3892,7.4061,7.4522,7.4953,7.4984,7.5046,7.5169,7.5292,7.5538,7.5723,7.5138,7.5261,7.5491,7.5768,7.6107,7.623,7.6661,7.6999,7.6999,7.7014,7.6983,7.6983,7.6983,7.7061,7.7153,7.7215,7.7338,7.7338,7.7522,7.7184,7.7245,7.0903,7.0903,7.0903,7.0903,7.0903,7.0903,7.0903,7.0903,7.0903,7.0967,7.1081,7.1097,7.1291,7.1642,7.174,7.2121,7.2671,7.2687,7.2796,7.2968,7.2999,7.2999,7.2999,7.2999,7.3245,7.3584,7.363,7.3892,7.4261,7.4522,7.4645,7.4645,7.4861,7.5015,7.5076,7.543,7.5661,7.5692,7.6045,7.6291,7.623,7.6291,7.6261,7.623,7.5446,7.5015,7.5015,7.5015,7.5015,7.5015,7.5015,7.5048,7.5113,7.4959,7.4559,7.4066,7.3958,7.3772,7.3417,7.3324,7.3278,7.32,7.3169,7.3169,7.303,7.2999,7.2999,7.303,7.2999,7.2922,7.2861,7.2938,7.2999,7.2999,7.2999,7.306,7.2999,7.2999,7.3153,7.3584,7.3984,7.4276,7.4261,7.4507,7.4615,7.4707,7.5214,7.5553,7.5707,7.5969,7.623,7.6291,7.6445,7.6568,7.6384,7.6291,7.6384,7.6507,7.6691,7.6722,7.6999,7.7153,7.7215,7.7307,7.7245,7.7245,7.7338,7.7615,7.7645,7.8093,7.8138,7.8015,7.8353,7.8045,7.8124,7.0903,7.0903,7.0903,7.1038,7.1218,7.1218,7.1368,7.1547,7.1547,7.1531,7.1531,7.1547,7.1662,7.1857,7.1874,7.2198,7.2699,7.2491,7.2467,7.2671,7.2796,7.2966,7.3166,7.3244,7.3676,7.4245,7.4307,7.4584,7.4984,7.523,7.5323,7.5323,7.5538,7.5661,7.5707,7.6107,7.6322,7.6414,7.6784,7.6983,7.6983,7.6983,7.6983,7.6876,7.6107,7.5661,7.5661,7.5661,7.5645,7.5661,7.5661,7.5538,7.5353,7.5323,7.5046,7.443,7.4338,7.4122,7.3738,7.3645,7.3676,7.3645,7.343,7.3337,7.3307,7.3307,7.3337,7.3322,7.3568,7.3645,7.3645,7.3676,7.3584,7.3414,7.3506,7.3645,7.363,7.3676,7.3876,7.4245,7.4645,7.4922,7.5046,7.5199,7.5292,7.5323,7.5891,7.6291,7.6414,7.6876,7.7321,7.7352,7.7553,7.7707,7.7693,7.7676,7.7091,7.7091,7.7307,7.7338,7.7368,7.7461,7.7553,7.7615,7.7645,7.7676,7.783,7.8107,7.8507,7.9047,7.8924,7.8678,7.8893,7.8986,7.8955,7.0903,7.0979,7.0919,7.1354,7.1863,7.1923,7.2265,7.2698,7.2774,7.2684,7.2608,7.2787,7.2701,7.2821,7.2734,7.302,7.3082,7.2482,7.222,7.2317,7.2525,7.2973,7.3509,7.3762,7.4258,7.492,7.5014,7.503,7.523,7.5707,7.5984,7.6107,7.6538,7.6753,7.6938,7.6876,7.6968,7.6921,7.6983,7.6983,7.6983,7.6983,7.6983,7.6983,7.6876,7.6845,7.6907,7.6907,7.6814,7.686,7.6876,7.663,7.6076,7.6,7.5723,7.5138,7.4984,7.4984,7.4922,7.4861,7.4799,7.4707,7.4338,7.3999,7.3999,7.3999,7.3999,7.4061,7.4491,7.4892,7.483,7.4892,7.4676,7.4199,7.443,7.4738,7.483,7.4953,7.4984,7.5015,7.5169,7.506,7.5199,7.5737,7.6137,7.6261,7.6691,7.7153,7.7245,7.7676,7.7984,7.8138,7.8353,7.8555,7.8832,7.8986,7.8185,7.7584,7.7861,7.8045,7.8138,7.823,7.8401,7.8493,7.8462,7.8493,7.8753,7.9,7.917,7.9509,7.9324,7.9417,7.957,7.9711,7.9526,7.1158,7.1547,7.1593,7.1966,7.2565,7.2595,7.2744,7.2877,7.2924,7.2924,7.2924,7.2924,7.2924,7.2924,7.2924,7.2974,7.303,7.2756,7.2855,7.3262,7.341,7.3535,7.3764,7.3906,7.4436,7.5273,7.5842,7.6141,7.6335,7.6552,7.6691,7.6753,7.6907,7.6983,7.6983,7.6983,7.6983,7.6983,7.6983,7.6983,7.6983,7.7014,7.7014,7.6983,7.6983,7.6983,7.6983,7.6983,7.6983,7.6983,7.6983,7.6907,7.6722,7.6691,7.6384,7.5768,7.5676,7.543,7.5076,7.5046,7.5076,7.4984,7.4799,7.4707,7.4707,7.4676,7.4676,7.4676,7.4892,7.5015,7.5076,7.543,7.5399,7.4753,7.4861,7.5107,7.523,7.5476,7.5661,7.5737,7.6076,7.6353,7.6476,7.6968,7.7307,7.7368,7.7922,7.8339,7.8462,7.8538,7.877,7.8832,7.9078,7.9263,7.9417,7.9509,7.9078,7.8585,7.8709,7.8753,7.8846,7.9078,7.9232,7.9324,7.9293,7.9386,7.9646,7.9847,7.994,8.0203,8.0357,8.0419,8.0449,8.0357,8.0142,7.1876,7.2282,7.2282,7.2654,7.3253,7.3283,7.3432,7.3612,7.3625,7.3642,7.3642,7.3672,7.3642,7.3642,7.3642,7.3642,7.3642,7.3642,7.3877,7.4144,7.3826,7.3828,7.4134,7.4538,7.4943,7.5568,7.6091,7.6405,7.6573,7.6752,7.6818,7.6818,7.6933,7.6983,7.7044,7.7245,7.7368,7.7383,7.7645,7.7769,7.7769,7.7769,7.7799,7.7799,7.7769,7.7769,7.7769,7.7785,7.7522,7.7122,7.6983,7.6983,7.6983,7.6968,7.6814,7.6507,7.6353,7.6168,7.5784,7.5799,7.5754,7.5707,7.5507,7.5384,7.5384,7.5384,7.5384,7.5384,7.563,7.583,7.6154,7.6445,7.6599,7.6585,7.6092,7.5907,7.6076,7.6476,7.6907,7.7184,7.757,7.7724,7.7908,7.8093,7.8415,7.8507,7.8801,7.9109,7.917,7.9277,7.9417,7.957,7.9895,7.9957,7.9926,7.9926,7.9909,7.9724,7.9632,7.954,7.9492,7.9878,8.0142,8.0172,8.0172,8.0234,8.0449,8.0463,8.0573,8.0911,8.1144,8.099,8.0836,8.088,8.0757,7.2907,7.2937,7.2937,7.3343,7.3911,7.3941,7.424,7.4766,7.4886,7.4886,7.4886,7.4976,7.5006,7.5006,7.5006,7.5006,7.5006,7.5006,7.5023,7.486,7.4385,7.4205,7.4661,7.5379,7.585,7.6085,7.618,7.6213,7.6375,7.6626,7.6579,7.6763,7.709,7.7134,7.7317,7.775,7.8076,7.8169,7.8661,7.8955,7.8955,7.8986,7.8986,7.8986,7.8955,7.8924,7.8893,7.8862,7.8401,7.7338,7.7307,7.7338,7.7184,7.7122,7.7245,7.7215,7.7153,7.7184,7.7122,7.7122,7.7122,7.7108,7.6661,7.6184,7.6353,7.6461,7.6461,7.6461,7.6814,7.7338,7.7783,7.7953,7.823,7.8739,7.7785,7.743,7.7906,7.8015,7.8169,7.8709,7.9047,7.9078,7.8924,7.9016,7.9139,7.917,7.9293,7.9478,7.954,7.9878,8.0094,8.0326,8.0511,8.0542,8.0449,8.0449,8.0449,8.0388,8.0326,8.0248,8.0155,8.0511,8.0727,8.0788,8.0911,8.1052,8.1082,8.1034,8.1096,8.1329,8.136,8.1206,8.1206,8.1329,8.1236,7.3193,7.3612,7.3642,7.4001,7.4587,7.4646,7.4736,7.4976,7.5437,7.5617,7.5707,7.6125,7.6228,7.6288,7.6275,7.6288,7.6245,7.6245,7.6288,7.6258,7.6075,7.5725,7.5575,7.5768,7.6306,7.6844,7.6895,7.7167,7.7342,7.7371,7.7453,7.7561,7.7796,7.8073,7.8182,7.851,7.8784,7.8832,7.8969,7.9106,7.9137,7.9137,7.9109,7.9109,7.9139,7.9139,7.9109,7.9109,7.8986,7.863,7.8555,7.8555,7.8462,7.8462,7.8432,7.8432,7.8493,7.8524,7.8524,7.8493,7.8507,7.8555,7.8216,7.8261,7.8308,7.8278,7.8278,7.8308,7.8493,7.8585,7.8753,7.8815,7.8969,7.9016,7.8703,7.8566,7.8753,7.8832,7.8924,7.9078,7.917,7.9201,7.9293,7.957,7.9817,7.9909,8.0155,8.0449,8.0388,8.0449,8.0665,8.0788,8.0942,8.1021,8.1021,8.1021,8.1004,8.0942,8.0911,8.0911,8.088,8.1004,8.1034,8.1052,8.1329,8.1483,8.1483,8.1421,8.1575,8.1852,8.2081,8.2174,8.1927,8.1866,8.1637,7.4121,7.4749,7.4749,7.5108,7.5677,7.5707,7.5707,7.5766,7.6078,7.6258,7.6347,7.6599,7.6826,7.6826,7.6796,7.6796,7.6826,7.6826,7.6796,7.6796,7.6754,7.6544,7.6335,7.6305,7.6589,7.7064,7.7159,7.7216,7.7378,7.7612,7.7681,7.7707,7.806,7.8262,7.8219,7.876,7.9019,7.9063,7.9264,7.9447,7.9447,7.9447,7.955,7.9636,7.9687,7.9738,7.9906,7.9957,7.9741,7.9263,7.9078,7.9109,7.9109,7.9109,7.9109,7.9109,7.9109,7.9078,7.9109,7.9109,7.9109,7.9078,7.9109,7.9109,7.9047,7.9109,7.9109,7.9047,7.9109,7.9232,7.9475,7.9588,7.9674,7.9714,7.955,7.9445,7.9503,7.9509,7.9663,7.9834,7.9957,7.994,7.9926,8.0278,8.0432,8.0573,8.0757,8.0911,8.099,8.1113,8.1175,8.125,8.1312,8.1342,8.1527,8.1619,8.1804,8.1743,8.1866,8.1804,8.1681,8.1681,8.1835,8.1866,8.1914,8.1945,8.2006,8.2081,8.2358,8.2635,8.3005,8.3005,8.2666,8.2512,8.2235,7.5437,7.5988,7.5988,7.6288,7.6706,7.6796,7.6676,7.6749,7.6856,7.6898,7.6958,7.6976,7.7215,7.7006,7.7275,7.7095,7.7095,7.7215,7.7155,7.7185,7.7185,7.7155,7.7155,7.6976,7.7083,7.7238,7.7035,7.7161,7.7421,7.756,7.7605,7.7813,7.8044,7.8109,7.8421,7.8777,7.8976,7.9198,7.9567,7.9798,7.9798,7.9798,7.9938,8.013,8.0195,8.0365,8.0604,8.0739,8.0322,7.925,7.9209,7.9298,7.9267,7.922,7.9203,7.9261,7.9271,7.9274,7.9203,7.9257,7.9216,7.9274,7.923,7.9175,7.9244,7.9302,7.9271,7.9285,7.9189,7.9472,7.9868,8.023,8.0261,8.0178,7.999,7.9964,8.0044,8.0097,8.0312,8.0869,8.0913,8.0962,8.1044,8.1061,8.1013,8.0819,8.1052,8.1188,8.1329,8.1452,8.1558,8.1681,8.1681,8.1681,8.1958,8.2204,8.2512,8.2697,8.2913,8.2913,8.2635,8.2635,8.2851,8.2913,8.2574,8.2574,8.2759,8.2913,8.3159,8.3344,8.3603,8.3467,8.3251,8.322,8.3036,7.6497,7.6617,7.6599,7.6659,7.6796,7.6826,7.6826,7.6886,7.7394,7.7574,7.7694,7.81,7.831,7.831,7.825,7.837,7.825,7.825,7.837,7.837,7.837,7.837,7.822,7.7831,7.7873,7.816,7.834,7.834,7.8364,7.831,7.8465,7.8507,7.8689,7.9065,7.9052,7.9264,7.9688,7.97,7.9822,7.983,7.983,7.983,7.9882,8.0024,8.0041,8.0076,8.0111,8.0147,7.9977,7.9864,7.9934,7.9894,7.972,7.9681,7.9668,7.9668,7.9712,7.9725,7.9738,7.9681,7.972,7.9668,7.9655,7.972,7.9703,7.9694,7.9707,7.972,7.9751,7.976,7.9942,7.999,8.0041,7.9988,7.9918,7.9839,7.9911,7.9951,8.0064,8.0138,8.0217,8.03,8.058,8.0693,8.0797,8.101,8.1233,8.1356,8.1536,8.1761,8.1862,8.1941,8.2051,8.2059,8.2397,8.2686,8.2992,8.3225,8.3458,8.3647,8.3389,8.3316,8.3452,8.3303,8.3049,8.3172,8.351,8.3664,8.388,8.4065,8.4188,8.4095,8.4003,8.3941,8.3849,7.7006,7.7275,7.7257,7.7454,7.7711,7.7724,7.7724,7.7801,7.81,7.828,7.834,7.8687,7.8789,7.8789,7.8789,7.8759,7.8789,7.8789,7.8807,7.8759,7.8777,7.8807,7.8777,7.8507,7.8489,7.8807,7.8759,7.8789,7.8789,7.8789,7.8765,7.8789,7.9023,7.9004,7.9112,7.9297,7.9332,7.9332,7.9398,7.9368,7.9398,7.9398,7.9541,7.967,7.9794,7.99,7.9918,7.9918,7.9812,7.9789,7.9878,8.0001,7.9966,7.99,7.99,7.99,7.99,7.99,7.99,7.99,7.9887,7.9882,7.99,7.99,7.99,7.99,7.99,7.99,7.9887,7.99,7.99,7.9706,7.9701,7.963,7.9505,7.9416,7.947,7.967,7.99,7.99,7.9953,8.0024,8.0177,8.0534,8.0753,8.1051,8.1491,8.1662,8.1687,8.1866,8.1993,8.2079,8.2255,8.2487,8.2835,8.3153,8.3422,8.3587,8.3703,8.3813,8.3722,8.3762,8.3893,8.3798,8.3795,8.4065,8.4372,8.4495,8.4526,8.4619,8.4711,8.4742,8.4711,8.4557,8.4465,7.7424,7.7951,7.7951,7.828,7.8747,7.8759,7.8699,7.8729,7.8789,7.8699,7.8789,7.8789,7.8789,7.8789,7.8789,7.8789,7.8789,7.8789,7.8789,7.8789,7.8789,7.8789,7.8777,7.8747,7.8747,7.8789,7.8789,7.8789,7.8789,7.8789,7.8789,7.8789,7.8807,7.8861,7.8825,7.8807,7.8897,7.8915,7.8933,7.8915,7.8897,7.8897,7.9058,7.9273,7.9505,7.9617,7.9617,7.9617,7.9576,7.9327,7.9309,7.947,7.9635,7.9723,7.9723,7.9706,7.9635,7.9599,7.9582,7.9635,7.9653,7.9723,7.9706,7.9706,7.967,7.9635,7.9617,7.9653,7.9635,7.9635,7.9706,7.9487,7.9369,7.9418,7.9167,7.9034,7.9214,7.9652,8.0005,7.9877,7.9909,7.9987,8.039,8.0782,8.0903,8.1134,8.1589,8.1971,8.2013,8.211,8.231,8.2626,8.2899,8.2997,8.3313,8.3368,8.3666,8.3684,8.3792,8.3823,8.3872,8.3929,8.4057,8.4568,8.4726,8.4823,8.4847,8.4865,8.4908,8.5062,8.5031,8.4939,8.497,8.5062,8.497,7.8567,7.8657,7.8639,7.8699,7.8807,7.8789,7.8789,7.8789,7.8789,7.8789,7.8789,7.8789,7.8789,7.8789,7.8789,7.8789,7.8789,7.8789,7.8789,7.8789,7.8789,7.8789,7.8789,7.8789,7.8789,7.8789,7.8789,7.8789,7.8789,7.8789,7.8789,7.8789,7.8789,7.8789,7.8789,7.8789,7.8789,7.8789,7.8789,7.8789,7.8789,7.8807,7.8825,7.8969,7.9076,7.9094,7.9058,7.9023,7.8951,7.8897,7.8897,7.8981,7.9209,7.9227,7.9167,7.9094,7.9112,7.913,7.9112,7.9058,7.9005,7.8987,7.9028,7.9041,7.9041,7.9041,7.913,7.9094,7.9106,7.9053,7.8987,7.9167,7.9274,7.952,7.9759,7.9806,8.0232,8.042,8.0416,8.0182,8.0086,8.0092,8.0544,8.1009,8.1256,8.1492,8.1849,8.2279,8.2461,8.2655,8.2838,8.3245,8.3683,8.3713,8.3804,8.3707,8.3742,8.3656,8.3691,8.3661,8.3729,8.3889,8.4178,8.4417,8.4747,8.4868,8.4923,8.502,8.5093,8.5075,8.5093,8.5093,8.5093,8.5093,8.5093,7.8608,7.8789,7.8789,7.8789,7.8789,7.8789,7.8789,7.8789,7.8789,7.8789,7.8789,7.8789,7.8789,7.8789,7.8789,7.8789,7.8789,7.8789,7.8789,7.8789,7.8789,7.8789,7.8789,7.8789,7.8789,7.8789,7.8789,7.8789,7.8789,7.8789,7.8789,7.8789,7.8789,7.8789,7.8789,7.8789,7.8789,7.8789,7.8789,7.8789,7.8789,7.8789,7.8789,7.8789,7.8807,7.8789,7.8789,7.8789,7.9016,7.9238,7.9327,7.9507,7.9686,7.9716,7.9525,7.8998,7.8867,7.8819,7.8789,7.8789,7.8825,7.8807,7.8819,7.8789,7.8789,7.8825,7.8849,7.8926,7.9238,7.9327,7.9375,7.9597,7.9986,8.0177,8.0315,8.0494,8.0734,8.0823,8.0794,8.0704,8.0628,8.069,8.0817,8.1227,8.1601,8.1904,8.2147,8.2456,8.2824,8.2922,8.305,8.3182,8.3442,8.3442,8.3491,8.351,8.351,8.3491,8.3472,8.3454,8.3472,8.3547,8.364,8.3826,8.4197,8.4509,8.4747,8.4717,8.4893,8.5039,8.5039,8.5057,8.5075,8.5093,8.5093,7.8263,7.8554,7.8644,7.868,7.8698,7.8771,7.8789,7.8789,7.8789,7.8789,7.8789,7.8789,7.8789,7.8789,7.8789,7.8789,7.8789,7.8789,7.8789,7.8789,7.8789,7.8789,7.8789,7.8789,7.8789,7.8789,7.8789,7.8789,7.8789,7.8789,7.8789,7.8789,7.8789,7.8789,7.8789,7.8789,7.8789,7.8789,7.8789,7.8789,7.8789,7.8789,7.8789,7.8849,7.8926,7.9028,7.9088,7.9297,7.9567,7.9896,8.0045,8.0207,8.0704,8.0794,8.0315,7.9417,7.9226,7.9208,7.9238,7.9267,7.9417,7.9435,7.9267,7.9238,7.9267,7.9417,7.9297,7.9297,7.9627,7.9997,8.0057,8.0434,8.0794,8.0973,8.1003,8.1063,8.1272,8.1471,8.168,8.156,8.1332,8.1399,8.1575,8.1713,8.2155,8.2215,8.2459,8.253,8.2819,8.2823,8.2883,8.2838,8.2928,8.2928,8.2946,8.3003,8.3041,8.306,8.306,8.306,8.306,8.3127,8.3259,8.339,8.3454,8.3771,8.4074,8.4387,8.4442,8.4601,8.4857,8.4948,8.4844,8.4971,8.5093,7.7696,7.777,7.8118,7.8263,7.8318,7.8608,7.8771,7.8753,7.8753,7.8789,7.8753,7.8789,7.8789,7.8789,7.8789,7.8789,7.8789,7.8789,7.8789,7.8789,7.8789,7.8789,7.8789,7.8789,7.8789,7.8789,7.8789,7.8789,7.8789,7.8789,7.8789,7.8789,7.8789,7.8789,7.8789,7.8789,7.8789,7.8789,7.8789,7.8789,7.8789,7.8819,7.8849,7.8998,7.9357,7.9686,7.9728,8.0075,8.0494,8.0614,8.0704,8.0715,8.0775,8.0823,8.0764,8.0614,8.0584,8.0554,8.0434,8.0345,8.0315,8.0285,8.0375,8.0524,8.0345,8.0315,8.0345,8.0554,8.0674,8.0674,8.0704,8.0823,8.1141,8.1471,8.168,8.1979,8.2219,8.2009,8.2219,8.2297,8.2069,8.2249,8.2466,8.2586,8.2706,8.2717,8.2747,8.2776,8.2806,8.2806,8.2806,8.2806,8.2806,8.2806,8.2806,8.2806,8.2806,8.2806,8.2806,8.2806,8.2863,8.292,8.2882,8.2995,8.3071,8.321,8.364,8.387,8.3993,8.4197,8.4454,8.4564,8.457,8.4753,8.4971,7.6423,7.7298,7.7667,7.7862,7.788,7.8063,7.8118,7.8172,7.8372,7.8463,7.8518,7.8717,7.8789,7.883,7.8789,7.8789,7.8789,7.8801,7.8789,7.8819,7.8819,7.8789,7.8789,7.8789,7.8789,7.8789,7.8789,7.8789,7.8789,7.8789,7.8789,7.8789,7.8789,7.8789,7.8789,7.8789,7.8789,7.8789,7.8789,7.8789,7.8878,7.9148,7.9357,7.9417,7.9997,8.0296,8.0464,8.0584,8.1033,8.1212,8.1362,8.159,8.183,8.1949,8.1949,8.1949,8.1919,8.156,8.0943,8.0883,8.0883,8.0853,8.0853,8.0764,8.0823,8.0853,8.0853,8.0794,8.1153,8.1351,8.1452,8.174,8.2009,8.2268,8.2249,8.2417,8.2687,8.2717,8.2687,8.2776,8.2806,8.2806,8.2806,8.2776,8.2776,8.2776,8.2776,8.2776,8.2806,8.2806,8.2806,8.2806,8.2806,8.2806,8.2806,8.2806,8.2806,8.2806,8.2806,8.2806,8.2806,8.2825,8.2806,8.2806,8.2901,8.3078,8.3323,8.3472,8.364,8.3845,8.4067,8.4141,8.4185,8.4479,8.4717,7.5001,7.6131,7.6853,7.7161,7.718,7.7365,7.7475,7.7512,7.7898,7.8134,7.8451,7.8892,7.9182,7.9152,7.9205,7.921,7.9018,7.8948,7.8895,7.8901,7.8842,7.8789,7.8789,7.8789,7.8789,7.8789,7.8789,7.8789,7.8789,7.8789,7.8789,7.8789,7.8789,7.8789,7.8789,7.8789,7.8789,7.8789,7.8789,7.8789,7.8908,7.9429,7.9668,8.0027,8.0506,8.1033,8.1063,8.1321,8.168,8.189,8.2039,8.2268,8.2567,8.2597,8.2627,8.2597,8.2597,8.2297,8.174,8.1471,8.1321,8.1291,8.1321,8.15,8.1422,8.1291,8.1321,8.1471,8.177,8.2009,8.2129,8.2507,8.2567,8.2657,8.2717,8.2776,8.2776,8.2747,8.2747,8.2806,8.2806,8.2806,8.2806,8.2806,8.2806,8.2806,8.2806,8.2806,8.2806,8.2806,8.2806,8.2806,8.2806,8.2806,8.2806,8.2806,8.2806,8.2806,8.2806,8.2806,8.2806,8.2806,8.2806,8.2806,8.2806,8.2882,8.306,8.3203,8.3315,8.3416,8.3566,8.3715,8.3882,8.4148,8.4369,7.3544,7.377,7.5297,7.5896,7.6019,7.6741,7.702,7.7052,7.745,7.7999,7.867,7.9527,7.9909,7.9969,7.9831,7.9712,7.9513,7.9278,7.9111,7.9009,7.893,7.8758,7.8735,7.8753,7.8789,7.8789,7.8789,7.8789,7.8789,7.8789,7.8789,7.8789,7.8789,7.8789,7.8789,7.8789,7.8789,7.8789,7.8789,7.8789,7.8998,7.9429,7.9878,8.0147,8.1003,8.174,8.1789,8.2178,8.2447,8.2597,8.2567,8.2597,8.2776,8.2806,8.2806,8.2806,8.2806,8.2597,8.2387,8.2357,8.2567,8.2597,8.2537,8.2387,8.2279,8.2537,8.2597,8.2447,8.2477,8.2567,8.2657,8.2776,8.2806,8.2806,8.2806,8.2806,8.2747,8.2627,8.2657,8.2747,8.2657,8.2447,8.2567,8.2507,8.2717,8.2747,8.2806,8.2806,8.2806,8.2806,8.2806,8.2806,8.2806,8.2806,8.2806,8.2806,8.2806,8.2806,8.2806,8.2806,8.2806,8.2806,8.2806,8.2806,8.2806,8.2806,8.2806,8.2958,8.3052,8.2995,8.309,8.3323,8.3547,8.3808,8.3956,7.2508,7.3016,7.3664,7.4345,7.5087,7.5383,7.5898,7.6511,7.6948,7.777,7.8819,7.9499,7.9824,7.9835,7.9824,7.9768,7.9528,7.9014,7.8863,7.8753,7.8577,7.845,7.8481,7.8626,7.8789,7.8771,7.8771,7.8789,7.8789,7.8753,7.8789,7.8789,7.8789,7.8789,7.8789,7.8789,7.8789,7.8789,7.8789,7.8789,7.9028,7.9866,8.0416,8.0506,8.171,8.2357,8.2477,8.2657,8.2776,8.2806,8.2806,8.2806,8.2806,8.2806,8.2806,8.2806,8.2806,8.2806,8.2806,8.2806,8.2806,8.2806,8.2776,8.2806,8.2806,8.2806,8.2806,8.2776,8.2806,8.2806,8.2806,8.2776,8.2806,8.2806,8.2776,8.2747,8.2597,8.2417,8.2208,8.2159,8.189,8.162,8.186,8.2148,8.2447,8.2717,8.2747,8.2806,8.2806,8.2806,8.2806,8.2806,8.2806,8.2806,8.2806,8.2806,8.2806,8.2806,8.2806,8.2806,8.2806,8.2806,8.2806,8.2806,8.2806,8.2806,8.2806,8.2806,8.2825,8.2882,8.2958,8.306,8.3296,8.3484,8.3566,7.1921,7.2448,7.2468,7.3181,7.4246,7.4414,7.4995,7.5865,7.6449,7.7491,7.8852,7.9353,7.9585,7.9585,7.9596,7.9334,7.9034,7.8574,7.8335,7.815,7.7969,7.7939,7.8081,7.8227,7.8336,7.8445,7.8463,7.8427,7.8572,7.8608,7.868,7.8753,7.8789,7.8789,7.8789,7.8789,7.8789,7.8789,7.8789,7.8968,7.9208,8.0135,8.0943,8.1123,8.2189,8.2657,8.2717,8.2776,8.2776,8.2806,8.2806,8.2806,8.2806,8.2806,8.2806,8.2806,8.2806,8.2806,8.2806,8.2806,8.2806,8.2806,8.2806,8.2806,8.2806,8.2806,8.2806,8.2806,8.2806,8.2806,8.2806,8.2806,8.2806,8.2776,8.2398,8.2309,8.2099,8.1919,8.168,8.15,8.1242,8.1093,8.1411,8.177,8.2327,8.2627,8.2776,8.2806,8.2806,8.2806,8.2806,8.2806,8.2806,8.2806,8.2806,8.2806,8.2806,8.2806,8.2806,8.2806,8.2806,8.2806,8.2806,8.2806,8.2806,8.2806,8.2806,8.2806,8.2806,8.2806,8.2901,8.2976,8.2995,8.3184,8.3259,7.1907,7.1918,7.1943,7.2597,7.3633,7.4023,7.4537,7.5323,7.6147,7.7261,7.8524,7.9151,7.943,7.9372,7.9219,7.8764,7.8158,7.7778,7.7501,7.7266,7.7118,7.7246,7.7457,7.7604,7.774,7.766,7.7788,7.8008,7.8209,7.8209,7.8409,7.868,7.8753,7.8789,7.8789,7.8789,7.8789,7.8819,7.8878,7.9238,7.9836,8.0554,8.1153,8.168,8.2368,8.2776,8.2806,8.2806,8.2806,8.2806,8.2806,8.2806,8.2806,8.2806,8.2806,8.2806,8.2806,8.2806,8.2806,8.2806,8.2806,8.2806,8.2806,8.2806,8.2806,8.2806,8.2806,8.2806,8.2806,8.2806,8.2806,8.2747,8.2687,8.2507,8.2129,8.177,8.159,8.1261,8.0943,8.0734,8.0764,8.0823,8.1081,8.1441,8.2118,8.2507,8.2717,8.2806,8.2806,8.2806,8.2806,8.2806,8.2806,8.2806,8.2806,8.2806,8.2806,8.2806,8.2806,8.2806,8.2806,8.2806,8.2806,8.2806,8.2806,8.2806,8.2806,8.2806,8.2806,8.2806,8.2806,8.2844,8.2844,8.2882,8.3014,7.1608,7.1903,7.1903,7.2346,7.3059,7.3411,7.4047,7.5027,7.6201,7.7099,7.7601,7.8127,7.8346,7.8253,7.7933,7.7589,7.7209,7.6514,7.621,7.6184,7.6108,7.6266,7.6508,7.6853,7.7113,7.728,7.7409,7.7531,7.7807,7.777,7.8026,7.8336,7.8704,7.8789,7.8789,7.8849,7.8938,7.9387,7.9519,7.9788,8.0446,8.1093,8.156,8.183,8.2477,8.2776,8.2806,8.2806,8.2776,8.2747,8.2717,8.2717,8.2687,8.2657,8.2687,8.2747,8.2747,8.2806,8.2806,8.2806,8.2806,8.2747,8.2776,8.2776,8.2806,8.2806,8.2806,8.2717,8.2597,8.2627,8.2806,8.2309,8.2099,8.1968,8.162,8.1242,8.0943,8.0494,8.0135,7.9956,7.9896,8.0375,8.0704,8.1231,8.186,8.2507,8.2747,8.2806,8.2806,8.2806,8.2806,8.2806,8.2806,8.2806,8.2806,8.2806,8.2806,8.2806,8.2806,8.2806,8.2806,8.2806,8.2806,8.2806,8.2806,8.2806,8.2806,8.2806,8.2806,8.2806,8.2806,8.2806,8.2825,8.2825,8.2863,7.1749,7.2026,7.2026,7.2264,7.2653,7.2927,7.3722,7.4892,7.5909,7.6449,7.6802,7.714,7.7263,7.7096,7.6676,7.6145,7.599,7.5287,7.4845,7.4886,7.491,7.5115,7.5478,7.5896,7.6085,7.6404,7.6621,7.677,7.6919,7.7124,7.7586,7.8166,7.8654,7.9033,7.9135,7.9267,7.9537,7.9986,8.0195,8.0464,8.1081,8.156,8.189,8.2189,8.2567,8.2806,8.2806,8.2776,8.2687,8.2567,8.2477,8.2357,8.2219,8.2129,8.2099,8.2099,8.2099,8.2069,8.2009,8.2009,8.1919,8.1968,8.2477,8.2657,8.2537,8.2387,8.2189,8.2099,8.2159,8.2129,8.2039,8.156,8.1471,8.1321,8.0962,8.0584,8.0315,7.9866,7.9507,7.9327,7.9417,7.9866,8.0494,8.1051,8.165,8.2268,8.2806,8.2806,8.2806,8.2806,8.2806,8.2806,8.2806,8.2806,8.2806,8.2806,8.2806,8.2806,8.2806,8.2806,8.2806,8.2806,8.2806,8.2806,8.2806,8.2806,8.2806,8.2806,8.2806,8.2806,8.2806,8.2806,8.2806,8.2806,8.2806,7.2271,7.2297,7.2297,7.2289,7.2368,7.2641,7.3603,7.4868,7.4938,7.5451,7.6255,7.6164,7.6123,7.6117,7.5614,7.4973,7.4455,7.3847,7.3574,7.3483,7.3583,7.3966,7.4335,7.4664,7.4933,7.5087,7.5297,7.5554,7.5792,7.6292,7.7039,7.7943,7.8645,7.9188,7.9527,7.9887,8.0241,8.0667,8.0853,8.1231,8.174,8.1919,8.2238,8.2537,8.2747,8.2806,8.2806,8.2776,8.2447,8.2129,8.186,8.1422,8.1093,8.0853,8.0823,8.0853,8.0943,8.1003,8.1063,8.1123,8.1063,8.1321,8.1979,8.2129,8.2009,8.177,8.159,8.1332,8.1242,8.1093,8.0913,8.0853,8.0794,8.0494,8.0135,7.9896,7.9716,7.9387,7.9028,7.8938,7.9058,7.9537,8.0494,8.1141,8.168,8.2327,8.2806,8.2806,8.2806,8.2806,8.2806,8.2806,8.2806,8.2806,8.2806,8.2806,8.2806,8.2806,8.2806,8.2806,8.2806,8.2806,8.2806,8.2806,8.2806,8.2806,8.2806,8.2806,8.2806,8.2806,8.2806,8.2806,8.2806,8.2806,8.2806,7.2297,7.2297,7.2297,7.2297,7.2315,7.2398,7.3075,7.4005,7.4069,7.4262,7.4454,7.4454,7.4646,7.4373,7.3425,7.2982,7.2671,7.2356,7.2156,7.2204,7.2528,7.2964,7.328,7.3516,7.3779,7.3966,7.418,7.4365,7.4732,7.5364,7.616,7.697,7.8259,7.9148,7.9969,8.0564,8.0982,8.1329,8.1426,8.186,8.2268,8.2417,8.2627,8.2747,8.2806,8.2806,8.2806,8.2806,8.2417,8.189,8.18,8.1471,8.0883,8.0823,8.0823,8.0823,8.0823,8.0823,8.0823,8.0794,8.0734,8.0644,8.1171,8.1212,8.1123,8.1033,8.0913,8.0674,8.0524,8.0464,8.0345,8.0255,8.0165,7.9896,7.9597,7.9357,7.9208,7.9118,7.8789,7.8878,7.8968,7.9686,8.0614,8.1291,8.186,8.2477,8.2806,8.2806,8.2806,8.2806,8.2806,8.2806,8.2806,8.2806,8.2806,8.2806,8.2806,8.2806,8.2806,8.2806,8.2806,8.2806,8.2806,8.2806,8.2806,8.2806,8.2806,8.2806,8.2806,8.2806,8.2806,8.2806,8.2806,8.2806,8.2806,7.2297,7.2297,7.2297,7.2297,7.2297,7.2297,7.2647,7.3125,7.3316,7.3515,7.3688,7.3752,7.3709,7.3582,7.2621,7.1981,7.1964,7.1361,7.1008,7.117,7.1567,7.1721,7.2002,7.2289,7.2528,7.2806,7.3103,7.3319,7.3731,7.4557,7.5383,7.6747,7.7933,7.9096,8.016,8.0893,8.1343,8.1668,8.2004,8.2372,8.2608,8.2787,8.2806,8.2806,8.2806,8.2806,8.2806,8.2806,8.2327,8.159,8.1411,8.0932,8.0255,7.9986,7.9986,7.9926,7.9896,7.9866,7.9866,7.9896,7.9986,8.0034,8.0045,8.0004,8.0135,8.0165,8.0075,7.9926,7.9956,7.9926,7.9806,7.9686,7.9537,7.9417,7.9118,7.8849,7.8819,7.8819,7.8849,7.8908,7.9327,7.9986,8.0704,8.1362,8.2009,8.2537,8.2806,8.2806,8.2806,8.2806,8.2806,8.2806,8.2806,8.2806,8.2806,8.2806,8.2806,8.2806,8.2806,8.2806,8.2806,8.2806,8.2806,8.2806,8.2806,8.2806,8.2806,8.2806,8.2806,8.2806,8.2806,8.2806,8.2806,8.2806,8.2806,7.2297,7.2297,7.2297,7.2297,7.2297,7.2297,7.2319,7.2341,7.2773,7.3164,7.3493,7.3537,7.3493,7.3147,7.2165,7.1655,7.1305,7.0689,7.0247,7.0165,7.0492,7.0737,7.088,7.0839,7.1386,7.1776,7.2037,7.2189,7.2767,7.3583,7.485,7.6627,7.7607,7.8716,8.004,8.0831,8.126,8.1607,8.2038,8.2432,8.2633,8.275,8.2806,8.2806,8.2806,8.2806,8.2806,8.2597,8.2189,8.1332,8.0674,8.0243,7.9344,7.8817,7.8787,7.8842,7.8907,7.8991,7.9039,7.9093,7.9058,7.8968,7.8819,7.9046,7.9327,7.9507,7.9477,7.9357,7.9357,7.9357,7.9238,7.9208,7.9118,7.9088,7.8938,7.8789,7.8789,7.8789,7.8819,7.9028,7.9656,8.0285,8.0794,8.1452,8.2249,8.2687,8.2806,8.2806,8.2806,8.2806,8.2806,8.2806,8.2806,8.2806,8.2806,8.2806,8.2806,8.2806,8.2806,8.2806,8.2806,8.2806,8.2806,8.2806,8.2806,8.2806,8.2806,8.2806,8.2806,8.2806,8.2806,8.2806,8.2806,8.2806,8.2806,7.2297,7.2297,7.2297,7.2297,7.2297,7.2297,7.2297,7.2297,7.2407,7.256,7.2625,7.2669,7.2691,7.2572,7.1546,7.102,7.0778,7.0155,6.9756,6.9795,6.9918,7.0021,7.0267,7.0247,7.0472,7.0533,7.0757,7.1164,7.1869,7.2742,7.3784,7.5345,7.6498,7.7823,7.9521,8.0239,8.0717,8.1146,8.1495,8.188,8.2072,8.256,8.2806,8.2769,8.275,8.2693,8.2712,8.2671,8.229,8.168,8.1063,7.9988,7.8492,7.8111,7.7917,7.7935,7.8209,7.8318,7.8409,7.8536,7.8644,7.8717,7.8735,7.8771,7.8878,7.8968,7.8968,7.883,7.8789,7.8789,7.8789,7.8789,7.8789,7.8789,7.8789,7.8789,7.8789,7.8789,7.8789,7.9327,7.9956,8.0494,8.0973,8.162,8.2387,8.2717,8.2776,8.2806,8.2806,8.2806,8.2806,8.2806,8.2806,8.2806,8.2806,8.2806,8.2806,8.2806,8.2806,8.2806,8.2806,8.2806,8.2806,8.2806,8.2806,8.2806,8.2806,8.2806,8.2806,8.2806,8.2806,8.2806,8.2806,8.2806,8.2806,7.2297,7.2297,7.2297,7.2297,7.2297,7.2297,7.2297,7.2297,7.2297,7.2297,7.2297,7.2297,7.2297,7.2114,7.1095,7.0598,7.0406,6.9574,6.9285,6.9299,6.9444,6.9491,6.9594,6.9656,6.9754,6.9816,7.0144,7.0615,7.1211,7.1938,7.2966,7.4569,7.5715,7.6881,7.8595,7.93,7.9751,8.0305,8.056,8.0815,8.1166,8.1707,8.2149,8.2206,8.2225,8.2225,8.2236,8.2176,8.182,8.1087,8.0277,7.9301,7.8172,7.777,7.766,7.7696,7.7825,7.7935,7.799,7.8099,7.8282,7.83,7.8263,7.8154,7.8172,7.828,7.8589,7.8536,7.8753,7.8789,7.8789,7.8789,7.8789,7.8789,7.8789,7.8789,7.8789,7.8789,7.9028,7.9519,8.0177,8.0823,8.1362,8.2039,8.2657,8.2747,8.2806,8.2806,8.2806,8.2806,8.2806,8.2806,8.2806,8.2806,8.2806,8.2806,8.2806,8.2806,8.2806,8.2806,8.2806,8.2806,8.2806,8.2806,8.2806,8.2806,8.2806,8.2806,8.2806,8.2806,8.2806,8.2806,8.2806,8.2806,8.2806,7.2297,7.2297,7.2297,7.2297,7.2297,7.2297,7.2297,7.2297,7.2297,7.2297,7.2297,7.2297,7.2297,7.1931,7.1147,7.0807,7.0254,6.9381,6.8973,6.8847,6.8889,6.9035,6.9014,6.891,6.9154,6.9485,6.9816,7.0165,7.0574,7.1393,7.2606,7.4194,7.5241,7.615,7.7524,7.8216,7.848,7.8931,7.9212,7.9364,7.9969,8.0697,8.1263,8.1456,8.1456,8.1456,8.1466,8.1329,8.1035,8.0253,7.9382,7.8358,7.759,7.7148,7.7013,7.6994,7.7087,7.7198,7.7291,7.7335,7.7464,7.7501,7.7464,7.7475,7.7494,7.7623,7.7935,7.8191,7.8409,7.8626,7.8626,7.8698,7.8698,7.8789,7.8789,7.8908,7.8938,7.8968,7.9387,7.9848,8.0506,8.1183,8.174,8.2417,8.2687,8.2776,8.2806,8.2806,8.2806,8.2806,8.2806,8.2806,8.2806,8.2806,8.2806,8.2806,8.2806,8.2806,8.2806,8.2806,8.2806,8.2806,8.2806,8.2806,8.2806,8.2806,8.2806,8.2806,8.2806,8.2806,8.2806,8.2806,8.2806,8.2806,8.2806,7.2297,7.2297,7.2297,7.2297,7.2297,7.2297,7.2297,7.2297,7.2297,7.2297,7.2297,7.2297,7.2297,7.2245,7.1095,7.0546,7.0259,6.9276,6.891,6.8805,6.8785,6.8785,6.8785,6.8805,6.8868,6.9118,6.9403,6.9651,7.0249,7.1172,7.2238,7.3554,7.4492,7.5531,7.6855,7.7276,7.74,7.7796,7.8021,7.8216,7.8923,7.9762,8.0795,8.1107,8.135,8.1234,8.1137,8.1039,8.0708,7.9968,7.8746,7.7684,7.6904,7.6261,7.5993,7.5896,7.6038,7.6189,7.6235,7.6423,7.6536,7.689,7.6834,7.6741,7.6741,7.6704,7.6983,7.7206,7.7501,7.7953,7.8081,7.83,7.8391,7.871,7.8849,7.9208,7.9417,7.9627,7.9937,8.0476,8.1123,8.1542,8.1811,8.2368,8.2747,8.2806,8.2806,8.2806,8.2967,8.2896,8.2866,8.2956,8.3016,8.2806,8.2806,8.2806,8.2806,8.2806,8.2806,8.2806,8.2806,8.2806,8.2806,8.2806,8.2806,8.2806,8.2806,8.2806,8.2806,8.2806,8.2806,8.2806,8.2806,8.2806,8.2806]},{"header":{"parameterUnit":"m.s-1","parameterCategory":1,"la1":31.0,"la2":29.5877,"lo1":-88.7671,"lo2":-86.6584,"dx":0.0162,"dy":0.0185,"nx":115,"ny":88,"refTime":"2022-11-26T18:00:00:Z","depth":0,"parameterNumber":3,"parameterNumberName":"V-component_of_WINDS"},"data":[0.0,0.0,0.0,0.0,0.0,0.0,0.0,0.0,0.0,0.0,0.0,0.0,0.0,0.0,0.0,0.0,0.0,0.0,0.0,0.0,0.0,0.0,0.0,0.0,0.0,0.0,0.0,0.0,0.0,0.0,0.0,0.0,0.0,0.0,0.0,0.0,0.0,0.0,0.0,0.0,0.0,0.0,0.0,0.0,0.0,0.0,0.0,0.0,0.0,0.0,0.0,0.0,0.0,0.0,0.0,0.0,0.0,0.0,0.0,0.0,0.0,0.0,0.0,0.0,0.0,0.0,0.0,0.0,0.0,0.0,0.0,0.0,0.0,0.0,0.0,0.0,0.0,0.0,0.0,0.0,0.0,0.0,0.0,0.0,0.0,0.0,0.0,0.0,0.0,0.0,0.0,0.0,0.0,0.0,0.0,0.0,0.0,0.0,0.0,0.0,0.0,0.0,0.0,0.0,0.0,0.0,0.0,0.0,0.0,0.0,0.0,0.0,0.0,0.0,0.0,0.0,0.0,0.0,0.0,0.0,0.0,0.0,0.0,0.0,0.0,0.0,0.0,0.0,0.0,0.0,0.0,0.0,0.0,0.0,0.0,0.0,0.0,0.0,0.0,0.0,0.0,0.0,0.0,0.0,0.0,0.0,0.0,0.0,0.0,0.0,0.0,0.0,0.0,0.0,0.0,0.0,0.0,0.0,0.0,0.0,0.0,0.0,0.0,0.0,0.0,0.0,0.0,0.0,0.0,0.0,0.0,0.0,0.0,0.0,0.0,0.0,0.0,0.0,0.0,0.0,0.0,0.0,0.0,0.0,0.0,0.0,0.0,0.0,0.0,0.0,0.0,0.0,0.0,0.0,0.0,0.0,0.0,0.0,0.0,0.0,0.0,0.0,0.0,0.0,0.0,0.0,0.0,0.0,0.0,0.0,0.0,0.0,0.0,0.0,0.0,0.0,0.0,0.0,0.0,0.0,0.0,0.0,0.0,0.0,0.0,0.0,0.0,0.0,0.0,0.0,0.0,0.0,0.0,0.0,0.0,0.0,0.0,0.0,0.0,0.0,0.0,0.0,0.0,0.0,0.0,0.0,0.0,0.0,0.0,0.0,0.0,0.0,0.0,0.0,0.0,0.0,0.0,0.0,0.0,0.0,0.0,0.0,0.0,0.0,0.0,0.0,0.0,0.0,0.0,0.0,0.0,0.0,0.0,0.0,0.0,0.0,0.0,0.0,0.0,0.0,0.0,0.0,0.0,0.0,0.0,0.0,0.0,0.0,0.0,0.0,0.0,0.0,0.0,0.0,0.0,0.0,0.0,0.0,0.0,0.0,0.0,0.0,0.0,0.0,0.0,0.0,0.0,0.0,0.0,0.0,0.0,0.0,0.0,0.0,0.0,0.0,0.0,0.0,0.0,0.0,0.0,0.0,0.0,0.0,0.0,0.0,0.0,0.0,0.0,0.0,0.0,0.0,0.0,0.0,0.0,0.0,0.0,0.0,0.0,0.0,0.0,0.0,0.0,0.0,0.0,0.0,0.0,0.0,0.0,0.0,0.0,0.0,0.0,0.0,0.0,0.0,0.0,0.0,0.0,0.0,0.0,0.0,0.0,0.0,0.0,0.0,0.0,0.0,0.0,0.0,0.0,0.0,0.0,0.0,0.0,0.0,0.0,0.0,0.0,0.0,0.0,0.0,0.0,0.0,0.0,0.0,0.0,0.0,0.0,0.0,0.0,0.0,0.0,0.0,0.0,0.0,0.0,0.0,0.0,0.0,0.0,0.0,0.0,0.0,0.0,0.0,0.0,0.0,0.0,0.0,0.0,0.0,0.0,0.0,0.0,0.0,0.0,0.0,0.0,0.0,0.0,0.0,0.0,0.0,0.0,0.0,0.0,0.0,0.0,0.0,0.0,0.0,0.0,0.0,0.0,0.0,0.0,0.0,0.0,0.0,0.0,0.0,0.0,0.0,0.0,0.0,0.0,0.0,0.0,0.0,0.0,0.0,0.0,0.0,0.0,0.0,0.0,0.0,0.0,0.0,0.0,0.0,0.0,0.0,0.0,0.0,0.0,0.0,0.0,0.0,0.0,0.0,0.0,0.0,0.0,0.0,0.0,0.0,0.0,0.0,0.0,0.0,0.0,0.0,0.0,0.0,0.0,0.0,0.0,0.0,0.0,0.0,0.0,0.0,0.0,0.0,0.0,0.0,0.0,0.0,0.0,0.0,0.0,0.0,0.0,0.0,0.0,0.0,0.0,0.0,0.0,0.0,0.0,0.0,0.0,0.0,0.0,0.0,0.0,0.0,0.0,0.0,0.0,0.0,0.0,0.0,0.0,0.0,0.0,0.0,0.0,0.0,0.0,0.0,0.0,0.0,0.0,0.0,0.0,0.0,0.0,0.0,0.0,0.0,0.0,0.0,0.0,0.0,0.0,0.0,0.0,0.0,0.0,0.0,0.0,0.0,0.0,0.0,0.0,0.0,0.0,0.0,0.0,0.0,0.0,0.0,0.0,0.0,0.0,0.0,0.0,0.0,0.0,0.0,0.0,0.0,0.0,0.0,0.0,0.0,0.0,0.0,0.0,0.0,0.0,0.0,0.0,0.0,0.0,0.0,0.0,0.0,0.0,0.0,0.0,0.0,0.0,0.0,0.0,0.0,0.0,0.0,0.0,0.0,0.0,0.0,0.0,0.0,0.0,0.0,0.0,0.0,0.0,0.0,0.0,0.0,0.0,0.0,0.0,0.0,0.0,0.0,0.0,0.0,0.0,0.0,0.0,0.0,0.0,0.0,0.0,0.0,0.0,0.0,0.0,0.0,0.0,0.0,0.0,0.0,0.0,0.0,0.0,0.0,0.0,0.0,0.0,0.0,0.0,0.0,0.0,0.0,0.0,0.0,0.0,0.0,0.0,0.0,0.0,0.0,0.0,0.0,0.0,0.0,0.0,0.0,0.0,0.0,0.0,0.0,0.0,0.0,0.0,0.0,0.0,0.0,0.0,0.0,0.0,0.0,0.0,0.0,0.0,0.0,0.0,0.0,0.0,0.0,0.0,0.0,0.0,0.0,0.0,0.0,0.0,0.0,0.0,0.0,0.0,0.0,0.0,0.0,0.0,0.0,0.0,0.0,0.0,0.0,0.0,0.0,0.0,0.0,0.0,0.0,0.0,0.0,0.0,0.0,0.0,0.0,0.0,0.0,0.0,0.0,0.0,0.0,0.0,0.0,0.0,0.0,0.0,0.0,0.0,0.0,0.0,0.0,0.0,0.0,0.0,0.0,0.0,0.0,0.0,0.0,0.0,0.0,0.0,0.0,0.0,0.0,0.0,0.0,0.0,0.0,0.0,0.0,0.0,0.0,0.0,0.0,0.0,0.0,0.0,0.0,0.0,0.0,0.0,0.0,0.0,0.0,0.0,0.0,0.0,0.0,0.0,0.0,0.0,0.0,0.0,0.0,0.0,0.0,0.0,0.0,0.0,0.0,0.0,0.0,0.0,0.0,0.0,0.0,0.0,0.0,0.0,0.0,0.0,0.0,0.0,0.0,0.0,0.0,0.0,0.0,0.0,0.0,0.0,0.0,0.0,0.0,0.0,0.0,0.0,0.0,0.0,0.0,0.0,0.0,0.0,0.0,0.0,0.0,0.0,0.0,0.0,0.0,0.0,0.0,0.0,0.0,0.0,0.0,0.0,0.0,0.0,0.0,0.0,0.0,0.0,0.0,0.0,0.0,0.0,0.0,0.0,0.0,0.0,0.0,0.0,0.0,0.0,0.0,0.0,0.0,0.0,0.0,0.0,0.0,0.0,0.0,0.0,0.0,0.0,0.0,0.0,0.0,0.0,0.0,0.0,0.0,0.0,0.0,0.0,0.0,0.0,0.0,0.0,0.0,0.0,0.0,0.0,0.0,0.0,0.0,0.0,0.0,0.0,0.0,0.0,0.0,0.0,0.0,0.0,0.0,0.0,0.0,0.0,0.0,0.0,0.0,0.0,0.0,0.0,0.0,0.0,0.0,0.0,0.0,0.0,0.0,0.0,0.0,0.0,0.0,0.0,0.0,0.0,0.0,0.0,0.0,0.0,0.0,0.0,0.0,0.0,0.0,0.0,0.0,0.0,0.0,0.0,0.0,0.0,0.0,0.0,0.0,0.0,0.0,0.0,0.0,0.0,0.0,0.0,0.0,0.0,0.0,0.0,0.0,0.0,0.0,0.0,0.0,0.0,0.0,0.0,0.0,0.0,0.0,0.0,0.0,0.0,0.0,1.098,0.0,0.0,0.0,1.0586,0.0,0.0,0.0,0.0,0.0,0.0,0.0,0.0,0.0,0.0,0.0,0.0,0.0,0.0,0.0,0.0,0.0,0.0,0.0,0.0,0.0,0.0,0.0,0.0,0.0,0.0,0.0,0.0,0.0,0.0,0.0,0.0,0.0,0.0,0.0,0.0,0.0,0.0,0.0,0.0,0.0,0.0,0.0,0.0,0.0,0.0,0.0,0.0,0.0,0.0,0.0,0.0,0.0,0.0,0.0,0.0,0.0,0.0,0.0,0.0,0.0,0.0,0.0,0.0,0.0,0.0,0.0,0.0,0.0,0.0,0.0,0.0,0.0,0.0,0.0,0.0,0.0,0.0,0.0,0.0,0.0,0.0,0.0,0.0,0.0,0.0,0.0,0.0,0.0,0.0,0.0,0.0,0.0,0.0,0.0,0.0,0.0,0.0,0.0,0.0,0.0,0.0,0.0,0.0,0.0,0.0,0.0,0.0,0.0,0.0,1.1239,1.0965,1.0791,1.0673,1.0594,0.0,0.0,0.0,0.0,0.0,0.0,0.0,0.0,0.0,0.0,0.0,0.0,0.0,0.0,0.0,0.0,0.0,0.0,0.0,0.0,0.0,0.0,0.0,0.0,0.0,0.0,0.0,0.0,0.0,0.0,0.0,0.0,0.0,0.0,0.0,0.0,0.0,0.0,0.0,0.0,0.0,0.0,0.0,0.0,0.0,0.0,0.0,0.0,0.0,0.0,0.0,0.0,0.0,0.0,0.0,0.0,0.0,0.0,0.0,0.0,0.0,0.0,0.0,0.0,0.0,0.0,0.0,0.0,0.0,0.0,0.0,0.0,0.0,0.0,0.0,0.0,0.0,0.0,0.0,0.0,0.0,0.0,0.0,0.0,0.0,0.0,0.0,0.0,0.0,0.0,0.0,0.0,0.0,0.0,0.0,0.0,0.0,0.0,0.0,0.0,0.0,0.0,0.0,0.0,0.0,0.0,0.0,0.0,0.0,0.0,0.0,0.0,1.0965,1.0823,1.0705,0.0,0.0,0.0,0.0,0.0,0.0,0.0,0.0,0.0,0.0,0.0,0.0,0.0,0.0,0.0,0.0,0.0,0.0,0.0,0.0,0.0,0.0,0.0,0.0,0.0,0.0,0.0,0.0,0.0,0.0,0.0,0.0,0.0,0.0,0.0,0.0,0.0,0.0,0.0,0.0,0.0,0.0,0.0,0.0,0.0,0.0,0.0,0.0,0.0,0.0,0.0,0.0,0.0,0.0,0.0,0.0,0.0,0.0,0.0,0.0,0.0,0.0,0.0,0.0,0.0,0.0,0.0,0.0,0.0,0.0,0.0,0.0,0.0,0.0,0.0,0.0,0.0,0.0,0.0,0.0,0.0,0.0,0.0,0.0,0.0,0.0,0.0,0.0,0.0,0.0,0.0,0.0,0.0,0.0,0.0,0.0,0.0,0.0,0.0,0.0,0.0,0.0,0.0,0.0,0.0,0.0,0.0,0.0,0.0,0.0,1.1498,1.1294,1.1145,0.0,1.1051,0.0,0.0,0.0,0.0,0.0,0.0,0.0,0.0,0.0,0.0,0.0,0.0,0.0,0.0,0.0,0.0,0.0,0.0,0.0,0.0,0.0,0.0,0.0,0.0,0.0,0.0,0.0,0.0,0.0,0.0,0.0,0.0,0.0,0.0,0.0,0.0,0.0,0.0,0.0,0.0,0.0,0.0,0.0,0.0,0.0,0.0,0.0,0.0,0.0,0.0,0.0,0.0,0.0,0.0,0.0,0.0,0.0,0.0,0.0,0.0,0.0,0.0,0.0,0.0,0.0,0.0,0.0,0.0,0.0,0.0,0.0,0.0,0.0,0.0,0.0,0.0,0.0,0.0,0.0,0.0,0.0,0.0,0.0,0.0,0.0,0.0,0.0,0.0,0.0,0.0,0.0,0.0,0.0,0.0,0.0,0.0,0.0,0.0,0.0,0.0,0.0,0.0,0.0,0.0,0.0,0.0,0.0,0.0,0.0,0.0,1.1971,1.149,1.1232,1.1106,0.0,0.0,0.0,0.0,0.0,0.0,0.0,0.0,0.0,0.0,0.0,0.0,0.0,0.0,0.0,0.0,0.0,0.0,0.0,0.0,0.0,0.0,0.0,0.0,0.0,0.0,0.0,0.0,0.0,0.0,0.0,0.0,0.0,0.0,0.0,0.0,0.0,0.0,0.0,0.0,0.0,0.0,0.0,0.0,0.0,0.0,0.0,0.0,0.0,0.0,0.0,0.0,0.0,0.0,0.0,0.0,0.0,0.0,0.0,0.0,0.0,0.0,0.0,0.0,0.0,0.0,0.0,0.0,0.0,0.0,0.0,0.0,0.0,0.0,0.0,0.0,0.0,0.0,0.0,0.0,0.0,0.0,0.0,0.0,0.0,0.0,0.0,0.0,0.0,0.0,0.0,0.0,0.0,0.0,0.0,0.0,0.0,0.0,0.0,0.0,0.0,0.0,0.0,0.0,0.0,0.0,0.0,0.0,0.0,0.0,1.2967,1.256,1.2014,1.168,1.151,1.1502,0.0,0.0,0.0,0.0,0.0,0.0,0.0,0.0,0.0,0.0,0.0,0.0,0.0,0.0,0.0,0.0,0.0,0.0,0.0,0.0,0.0,0.0,0.0,0.0,0.0,0.0,0.0,0.0,0.0,0.0,0.0,0.0,0.0,0.0,0.0,0.0,0.0,0.0,0.0,0.0,0.0,0.0,0.0,0.0,0.0,0.0,0.0,0.0,0.0,0.0,0.0,0.0,0.0,0.0,0.0,0.0,0.0,0.0,0.0,0.0,0.0,0.0,0.0,0.0,0.0,0.0,0.0,0.0,0.0,0.0,0.0,0.0,0.0,0.0,0.0,0.0,0.0,0.0,0.0,0.0,0.0,0.0,0.0,0.0,0.0,0.0,0.0,0.0,0.0,0.0,0.0,0.0,0.0,0.0,0.0,0.0,0.0,0.0,0.0,0.0,0.0,0.0,0.0,0.0,0.0,0.0,0.0,0.0,1.361,1.3458,1.3266,1.3035,1.2706,1.253,0.0,0.0,0.0,0.0,0.0,0.0,0.0,0.0,0.0,0.0,0.0,0.0,0.0,0.0,0.0,0.0,0.0,0.0,0.0,0.0,0.0,0.0,0.0,0.0,0.0,0.0,0.0,0.0,0.0,0.0,0.0,0.0,0.0,0.0,0.0,0.0,0.0,0.0,0.0,0.0,0.0,0.0,0.0,0.0,0.0,0.0,0.0,0.0,0.0,0.0,0.0,0.0,0.0,0.0,0.0,0.0,0.0,0.0,0.0,0.0,0.0,0.0,0.0,0.0,0.0,0.0,0.0,0.0,0.0,0.0,0.0,0.0,0.0,0.0,0.0,0.0,0.0,0.0,0.0,0.0,0.0,0.0,0.0,0.0,0.0,0.0,0.0,0.0,0.0,0.0,0.0,0.0,0.0,0.0,0.0,0.0,0.0,0.0,0.0,0.0,0.0,0.0,0.0,0.0,0.0,0.0,0.0,0.0,0.0,1.4807,1.4449,1.4091,1.3803,1.3566,1.3322,0.0,0.0,0.0,0.0,0.0,0.0,0.0,0.0,0.0,0.0,0.0,0.0,0.0,0.0,0.0,0.0,0.0,0.0,0.0,0.0,0.0,0.0,0.0,0.0,0.0,0.0,0.0,0.0,0.0,0.0,0.0,0.0,0.0,0.0,0.0,0.0,0.0,0.0,0.0,0.0,0.0,0.0,0.0,0.0,0.0,0.0,0.0,0.0,0.0,0.0,0.0,0.0,0.0,0.0,0.0,0.0,0.0,0.0,0.0,0.0,0.0,0.0,0.0,0.0,0.0,0.0,0.0,0.0,0.0,0.0,0.0,0.0,0.0,0.0,0.0,0.0,0.0,0.0,0.0,0.0,0.0,0.0,0.0,0.0,0.0,0.0,0.0,0.0,0.0,0.0,0.0,0.0,0.0,0.0,0.0,0.0,0.0,0.0,0.0,0.0,0.0,0.0,0.0,0.0,0.0,0.0,0.0,0.0,0.0,1.6119,1.5905,1.5652,1.5437,1.5067,1.4641,0.0,0.0,0.0,0.0,0.0,0.0,0.0,0.0,0.0,0.0,0.0,0.0,0.0,0.0,0.0,0.0,0.0,0.0,0.0,0.0,0.0,0.0,0.0,0.0,0.0,0.0,0.0,0.0,0.0,0.0,0.0,0.0,0.0,0.0,0.0,0.0,0.0,0.0,0.0,0.0,0.0,0.0,0.0,0.0,0.0,0.0,0.0,0.0,0.0,0.0,0.0,0.0,0.0,0.0,0.0,0.0,0.0,0.0,0.0,0.0,0.0,0.0,0.0,0.0,0.0,0.0,0.0,0.0,0.0,0.0,0.0,0.0,0.0,0.0,0.0,0.0,0.0,0.0,0.0,0.0,0.0,0.0,0.0,0.0,0.0,0.0,0.0,0.0,0.0,0.0,0.0,0.0,0.0,0.0,0.0,0.0,0.0,0.0,0.0,0.0,0.0,0.0,0.0,0.0,0.0,0.0,0.0,0.0,1.6746,1.7505,1.7846,1.7997,1.8002,1.7275,1.6557,0.0,0.0,0.0,0.0,0.0,0.0,0.0,0.0,0.0,0.0,0.0,0.0,0.0,0.0,0.0,0.0,0.0,0.0,0.0,0.0,0.0,0.0,0.0,0.0,0.0,0.0,0.0,0.0,0.0,0.0,0.0,0.0,0.0,0.0,0.0,0.0,0.0,0.0,0.0,0.0,0.0,0.0,0.0,0.0,0.0,0.0,0.0,0.0,0.0,0.0,0.0,0.0,0.0,0.0,0.0,0.0,0.0,0.0,0.0,0.0,0.0,0.0,0.0,0.0,0.0,0.0,0.0,0.0,0.0,0.0,0.0,0.0,0.0,0.0,0.0,0.0,0.0,0.0,0.0,0.0,0.0,0.0,0.0,0.0,0.0,0.0,0.0,0.0,0.0,0.0,0.0,0.0,0.0,0.0,0.0,0.0,0.0,0.0,0.0,0.0,0.0,0.0,0.0,0.0,0.0,0.0,0.0,0.0,0.0,1.9436,1.9895,2.0076,1.9916,1.9084,1.8033,0.0,0.0,0.0,0.0,0.0,0.0,0.0,0.0,0.0,0.0,0.0,0.0,0.0,0.0,0.0,0.0,0.0,0.0,0.0,0.0,0.0,0.0,0.0,0.0,0.0,0.0,0.0,0.0,0.0,0.0,0.0,0.0,0.0,0.0,0.0,0.0,0.0,0.0,0.0,0.0,0.0,0.0,0.0,0.0,0.0,0.0,0.0,0.0,0.0,0.0,0.0,0.0,0.0,0.0,0.0,0.0,0.0,0.0,0.0,0.0,0.0,0.0,0.0,0.0,0.0,0.0,0.0,0.0,0.0,0.0,0.0,0.0,0.0,0.0,0.0,0.0,0.0,0.0,0.0,0.0,0.0,0.0,0.0,0.0,0.0,0.0,0.0,0.0,0.0,0.0,0.0,0.0,0.0,0.0,0.0,0.0,0.0,0.0,0.0,0.0,0.0,0.0,0.0,0.0,0.0,0.0,0.0,0.0,0.0,2.263,2.2531,2.2333,2.2064,2.1179,1.9871,1.8077,0.0,0.0,0.0,0.0,0.0,0.0,0.0,0.0,0.0,0.0,0.0,0.0,0.0,0.0,0.0,0.0,0.0,0.0,0.0,0.0,0.0,0.0,0.0,0.0,0.0,0.0,0.0,0.0,0.0,0.0,0.0,0.0,0.0,0.0,0.0,0.0,0.0,0.0,0.0,0.0,0.0,0.0,0.0,0.0,0.0,0.0,0.0,0.0,0.0,0.0,0.0,0.0,0.0,0.0,0.0,0.0,0.0,0.0,0.0,0.0,0.0,0.0,0.0,0.0,0.0,0.0,0.0,0.0,0.0,0.0,0.0,0.0,0.0,0.0,0.0,0.0,0.0,0.0,0.0,0.0,0.0,0.0,0.0,0.0,0.0,0.0,0.0,0.0,0.0,0.0,0.0,0.0,0.0,0.0,0.0,0.0,0.0,0.0,0.0,0.0,0.0,0.0,0.0,0.0,0.0,0.0,0.0,0.0,2.6753,2.5614,2.479,2.4374,2.3484,2.1919,0.0,0.0,0.0,0.0,0.0,0.0,0.0,0.0,0.0,0.0,0.0,0.0,0.0,0.0,0.0,0.0,0.0,0.0,0.0,0.0,0.0,0.0,0.0,0.0,0.0,0.0,0.0,0.0,0.0,0.0,0.0,0.0,0.0,0.0,0.0,0.0,0.0,0.0,0.0,0.0,0.0,0.0,0.0,0.0,0.0,0.0,0.0,0.0,0.0,0.0,0.0,0.0,0.0,0.0,0.0,0.0,0.0,0.0,0.0,0.0,0.0,0.0,0.0,0.0,0.0,0.0,0.0,0.0,0.0,0.0,0.0,0.0,0.0,0.0,0.0,0.0,0.0,0.0,0.0,0.0,0.0,0.0,0.0,0.0,0.0,0.0,0.0,0.0,0.0,0.0,0.0,0.0,0.0,0.0,0.0,0.0,0.0,0.0,0.0,0.0,0.0,0.0,0.0,0.0,0.0,0.0,0.0,0.0,0.0,2.7925,2.8274,2.7834,2.6659,2.5318,2.35,0.0,0.0,0.0,0.0,0.0,0.0,0.0,0.0,0.0,0.0,0.0,0.0,0.0,0.0,0.0,0.0,0.0,0.0,0.0,0.0,0.0,0.0,0.0,0.0,0.0,0.0,0.0,0.0,0.0,0.0,0.0,0.0,0.0,0.0,0.0,0.0,0.0,0.0,0.0,0.0,0.0,0.0,0.0,0.0,0.0,0.0,0.0,0.0,0.0,0.0,0.0,0.0,0.0,0.0,0.0,0.0,0.0,0.0,0.0,0.0,0.0,0.0,0.0,0.0,0.0,0.0,0.0,0.0,0.0,0.0,0.0,0.0,0.0,0.0,0.0,0.0,0.0,0.0,0.0,0.0,0.0,0.0,0.0,0.0,0.0,0.0,0.0,0.0,0.0,0.0,0.0,0.0,0.0,0.0,0.0,0.0,0.0,0.0,0.0,0.0,0.0,0.0,0.0,0.0,0.0,0.0,0.0,0.0,2.6985,2.9165,2.9834,2.9754,2.8913,2.6896,2.4629,0.0,0.0,0.0,0.0,0.0,0.0,0.0,0.0,0.0,0.0,0.0,0.0,0.0,0.0,0.0,0.0,0.0,0.0,0.0,0.0,0.0,0.0,0.0,0.0,0.0,0.0,0.0,0.0,0.0,0.0,0.0,0.0,0.0,0.0,0.0,0.0,0.0,0.0,0.0,0.0,0.0,0.0,0.0,0.0,0.0,0.0,0.0,0.0,0.0,0.0,0.0,0.0,0.0,0.0,0.0,0.0,0.0,0.0,0.0,0.0,0.0,0.0,0.0,0.0,0.0,0.0,0.0,0.0,0.0,0.0,0.0,0.0,0.0,0.0,0.0,0.0,0.0,0.0,0.0,0.0,0.0,0.0,0.0,0.0,0.0,0.0,0.0,0.0,0.0,0.0,0.0,0.0,0.0,0.0,0.0,0.0,0.0,0.0,0.0,0.0,0.0,0.0,0.0,0.0,0.0,0.0,0.0,0.0,2.7911,3.0219,3.0644,3.0877,3.0788,2.8238,2.554,0.0,0.0,0.0,0.0,0.0,0.0,0.0,0.0,0.0,0.0,0.0,0.0,0.0,0.0,0.0,0.0,0.0,0.0,0.0,0.0,0.0,0.0,0.0,0.0,0.0,0.0,0.0,0.0,0.0,0.0,0.0,0.0,0.0,0.0,0.0,0.0,0.0,0.0,0.0,0.0,0.0,0.0,0.0,0.0,0.0,0.0,0.0,0.0,0.0,0.0,0.0,0.0,0.0,0.0,0.0,0.0,0.0,0.0,0.0,0.0,0.0,0.0,0.0,0.0,0.0,0.0,0.0,0.0,0.0,0.0,0.0,0.0,0.0,0.0,0.0,0.0,0.0,0.0,0.0,0.0,0.0,0.0,0.0,0.0,0.0,0.0,0.0,0.0,0.0,0.0,0.0,0.0,0.0,0.0,0.0,0.0,0.0,0.0,0.0,0.0,0.0,0.0,0.0,0.0,0.0,0.0,0.0,0.0,2.888,3.0623,3.1063,3.1265,3.1265,2.8857,2.6559,0.0,0.0,0.0,0.0,0.0,0.0,0.0,0.0,0.0,0.0,0.0,0.0,0.0,0.0,0.0,0.0,0.0,0.0,0.0,0.0,0.0,0.0,0.0,0.0,0.0,0.0,0.0,0.0,0.0,0.0,0.0,0.0,0.0,0.0,0.0,0.0,0.0,0.0,0.0,0.0,0.0,0.0,0.0,0.0,0.0,0.0,0.0,0.0,1.7596,0.0,0.0,0.0,0.0,0.0,0.0,0.0,0.0,0.0,0.0,0.0,0.0,0.0,0.0,0.0,0.0,0.0,0.0,0.0,0.0,0.0,0.0,0.0,0.0,0.0,0.0,0.0,0.0,0.0,0.0,0.0,0.0,0.0,0.0,0.0,0.0,0.0,0.0,0.0,0.0,0.0,0.0,0.0,0.0,0.0,0.0,0.0,0.0,0.0,0.0,0.0,0.0,0.0,0.0,0.0,0.0,0.0,0.0,0.0,2.9559,3.132,3.1761,3.1889,3.1614,2.9522,2.7243,0.0,0.0,0.0,0.0,0.0,0.0,0.0,0.0,0.0,0.0,0.0,0.0,0.0,0.0,0.0,0.0,0.0,0.0,0.0,0.0,0.0,0.0,0.0,0.0,0.0,0.0,0.0,0.0,0.0,0.0,0.0,0.0,0.0,0.0,0.0,0.0,0.0,0.0,0.0,0.0,0.0,0.0,0.0,0.0,0.0,0.0,0.0,0.0,0.0,0.0,0.0,0.0,0.0,0.0,0.0,0.0,0.0,0.0,0.0,0.0,0.0,0.0,0.0,0.0,0.0,0.0,0.0,0.0,0.0,0.0,0.0,0.0,0.0,0.0,0.0,0.0,0.0,0.0,0.0,0.0,0.0,0.0,0.0,0.0,0.0,0.0,0.0,0.0,0.0,0.0,0.0,0.0,0.0,0.0,0.0,0.0,0.0,0.0,0.0,0.0,0.0,0.0,0.0,0.0,0.0,0.0,0.0,2.8297,3.0094,3.1911,3.2386,3.2404,3.1983,3.0109,2.7812,2.5063,0.0,0.0,0.0,0.0,0.0,0.0,0.0,0.0,0.0,0.0,0.0,0.0,0.0,0.0,0.0,0.0,0.0,0.0,0.0,0.0,0.0,0.0,0.0,0.0,0.0,0.0,0.0,0.0,0.0,0.0,0.0,0.0,0.0,0.0,0.0,0.0,0.0,0.0,1.5184,1.6346,0.0,0.0,0.0,0.0,0.0,0.0,0.0,0.0,1.9236,0.0,0.0,0.0,0.0,0.0,0.0,0.0,0.0,0.0,0.0,0.0,0.0,0.0,0.0,0.0,0.0,0.0,0.0,0.0,0.0,0.0,0.0,0.0,0.0,0.0,0.0,0.0,0.0,0.0,0.0,0.0,0.0,0.0,0.0,0.0,0.0,0.0,0.0,0.0,0.0,0.0,0.0,0.0,0.0,0.0,0.0,0.0,0.0,0.0,0.0,0.0,0.0,0.0,0.0,0.0,0.0,2.6605,2.8847,3.0678,3.1964,3.2404,3.2404,3.1966,3.0384,2.8344,2.5847,0.0,0.0,0.0,0.0,0.0,0.0,0.0,0.0,0.0,0.0,0.0,0.0,0.0,0.0,0.0,0.0,0.0,0.0,0.0,0.0,0.0,0.0,0.0,0.0,0.0,0.0,0.0,0.0,0.0,0.0,0.0,0.0,0.0,0.0,0.0,0.0,0.0,0.0,0.0,1.7633,1.8568,0.0,0.0,0.0,0.0,0.0,0.0,0.0,0.0,2.0301,0.0,0.0,0.0,0.0,0.0,0.0,0.0,0.0,0.0,0.0,0.0,0.0,0.0,0.0,0.0,0.0,0.0,0.0,0.0,0.0,0.0,0.0,0.0,0.0,0.0,0.0,0.0,0.0,0.0,0.0,0.0,0.0,0.0,0.0,0.0,0.0,0.0,0.0,0.0,0.0,0.0,0.0,0.0,0.0,0.0,0.0,0.0,0.0,0.0,0.0,0.0,0.0,0.0,0.0,0.0,2.749,2.9489,3.1102,3.2276,3.29,3.2936,3.2313,3.077,2.8785,0.0,0.0,0.0,0.0,0.0,0.0,0.0,0.0,0.0,0.0,0.0,0.0,0.0,0.0,0.0,0.0,0.0,0.0,0.0,0.0,0.0,0.0,0.0,0.0,0.0,0.0,0.0,0.0,0.0,0.0,0.0,0.0,0.0,0.0,0.0,0.0,0.0,0.0,0.0,0.0,1.8815,1.9537,2.0154,0.0,0.0,0.0,0.0,0.0,0.0,2.1739,2.1464,0.0,0.0,0.0,0.0,0.0,0.0,0.0,0.0,0.0,0.0,0.0,0.0,0.0,0.0,0.0,0.0,0.0,0.0,0.0,0.0,0.0,0.0,0.0,0.0,0.0,0.0,0.0,0.0,0.0,0.0,0.0,0.0,0.0,0.0,0.0,0.0,0.0,0.0,0.0,0.0,0.0,0.0,0.0,0.0,0.0,0.0,0.0,0.0,0.0,0.0,0.0,0.0,0.0,0.0,0.0,2.8476,3.0201,3.1579,3.2698,3.3414,3.3431,3.2606,3.1063,2.9104,0.0,0.0,0.0,0.0,0.0,0.0,0.0,0.0,0.0,0.0,0.0,0.0,0.0,0.0,0.0,0.0,0.0,0.0,0.0,0.0,0.0,0.0,0.0,0.0,0.0,0.0,0.0,0.0,0.0,0.0,0.0,0.0,0.0,0.0,0.0,0.0,0.0,0.0,0.0,0.0,0.0,2.0544,2.1354,2.1819,0.0,0.0,0.0,0.0,2.3186,2.2964,0.0,0.0,0.0,0.0,0.0,0.0,0.0,0.0,0.0,0.0,0.0,0.0,0.0,0.0,0.0,0.0,0.0,0.0,0.0,0.0,0.0,0.0,0.0,0.0,0.0,0.0,0.0,0.0,0.0,0.0,0.0,0.0,0.0,0.0,0.0,0.0,0.0,0.0,0.0,0.0,0.0,0.0,0.0,0.0,0.0,0.0,0.0,0.0,0.0,0.0,0.0,0.0,0.0,0.0,0.0,0.0,2.8902,3.0864,3.2294,3.3103,3.3579,3.3414,3.2606,3.1029,2.9232,0.0,0.0,0.0,0.0,0.0,0.0,0.0,0.0,0.0,0.0,0.0,0.0,0.0,0.0,0.0,0.0,0.0,0.0,0.0,0.0,0.0,0.0,0.0,0.0,0.0,0.0,0.0,0.0,0.0,0.0,0.0,0.0,0.0,0.0,0.0,0.0,0.0,0.0,0.0,0.0,0.0,2.1778,2.2595,2.3041,2.3449,0.0,0.0,2.449,2.4424,2.4312,0.0,0.0,0.0,0.0,0.0,0.0,0.0,0.0,0.0,0.0,0.0,0.0,0.0,0.0,0.0,0.0,0.0,0.0,0.0,0.0,0.0,0.0,0.0,0.0,0.0,0.0,0.0,0.0,0.0,0.0,0.0,0.0,0.0,0.0,0.0,0.0,0.0,0.0,0.0,0.0,0.0,0.0,0.0,0.0,0.0,0.0,0.0,0.0,0.0,0.0,0.0,0.0,0.0,0.0,0.0,2.7851,2.989,3.1707,3.2999,3.3803,3.4215,3.4028,3.3223,3.1665,2.9772,0.0,0.0,0.0,0.0,0.0,0.0,0.0,0.0,0.0,0.0,0.0,0.0,0.0,0.0,0.0,0.0,0.0,0.0,0.0,0.0,0.0,0.0,0.0,0.0,0.0,0.0,0.0,0.0,0.0,0.0,0.0,0.0,0.0,0.0,0.0,0.0,0.0,0.0,0.0,0.0,0.0,0.0,2.3529,2.4497,0.0,0.0,0.0,2.624,2.5943,0.0,0.0,0.0,0.0,0.0,0.0,0.0,0.0,0.0,0.0,0.0,0.0,0.0,0.0,0.0,0.0,0.0,0.0,0.0,0.0,0.0,0.0,0.0,0.0,0.0,0.0,0.0,0.0,0.0,0.0,0.0,0.0,0.0,0.0,0.0,0.0,0.0,0.0,0.0,0.0,0.0,0.0,0.0,0.0,0.0,0.0,0.0,0.0,0.0,0.0,0.0,0.0,0.0,0.0,0.0,0.0,0.0,3.0725,3.2394,3.3686,3.4577,3.4789,3.4618,3.4027,3.2459,0.0,0.0,0.0,0.0,0.0,0.0,0.0,0.0,0.0,0.0,0.0,0.0,0.0,0.0,0.0,0.0,0.0,0.0,0.0,0.0,0.0,0.0,0.0,0.0,0.0,0.0,0.0,1.5191,0.0,0.0,0.0,0.0,0.0,0.0,0.0,0.0,0.0,0.0,0.0,0.0,0.0,0.0,2.3717,2.4749,2.5906,2.675,0.0,0.0,2.7725,2.7469,2.7286,2.6842,0.0,0.0,0.0,0.0,0.0,0.0,0.0,0.0,0.0,0.0,0.0,0.0,0.0,0.0,0.0,0.0,0.0,0.0,0.0,0.0,0.0,0.0,0.0,0.0,0.0,0.0,0.0,0.0,0.0,0.0,0.0,0.0,0.0,0.0,0.0,0.0,0.0,0.0,0.0,0.0,0.0,0.0,0.0,0.0,0.0,0.0,0.0,0.0,0.0,0.0,0.0,0.0,0.0,0.0,0.0,3.1127,3.2795,3.4288,3.5447,3.5109,3.492,3.4895,3.3288,3.1604,0.0,0.0,0.0,0.0,0.0,0.0,0.0,0.0,0.0,0.0,0.0,0.0,0.0,0.0,0.0,0.0,0.0,0.0,0.0,0.0,0.0,0.0,0.0,0.0,0.0,0.0,0.0,0.0,0.0,0.0,0.0,0.0,0.0,0.0,0.0,0.0,0.0,0.0,0.0,0.0,0.0,2.5063,2.6603,2.7171,2.7701,0.0,0.0,2.869,2.8923,2.832,2.7902,2.8032,0.0,0.0,0.0,0.0,0.0,0.0,0.0,0.0,0.0,0.0,0.0,0.0,0.0,0.0,0.0,0.0,0.0,0.0,0.0,0.0,0.0,0.0,0.0,0.0,0.0,0.0,0.0,0.0,0.0,0.0,0.0,0.0,0.0,0.0,0.0,0.0,0.0,0.0,0.0,0.0,0.0,0.0,0.0,0.0,0.0,0.0,0.0,0.0,0.0,0.0,0.0,0.0,0.0,3.0311,3.215,3.3866,3.5237,3.6222,3.6358,3.6147,3.5643,3.4552,3.2938,0.0,0.0,0.0,0.0,0.0,0.0,0.0,0.0,0.0,0.0,0.0,0.0,0.0,0.0,0.0,0.0,0.0,0.0,0.0,0.0,0.0,0.0,0.0,0.0,0.0,0.0,0.0,0.0,1.8375,1.8861,1.9501,0.0,0.0,0.0,0.0,0.0,0.0,0.0,0.0,0.0,0.0,2.6093,2.7166,2.8228,0.0,0.0,2.9752,2.9987,2.9801,2.9519,2.918,2.8756,2.7916,0.0,0.0,0.0,0.0,0.0,0.0,0.0,0.0,0.0,0.0,0.0,0.0,0.0,0.0,0.0,0.0,0.0,0.0,0.0,0.0,0.0,0.0,0.0,0.0,0.0,0.0,0.0,0.0,0.0,0.0,0.0,0.0,0.0,0.0,0.0,0.0,0.0,0.0,0.0,0.0,0.0,0.0,0.0,0.0,0.0,0.0,0.0,0.0,0.0,0.0,0.0,0.0,3.125,3.2969,3.4687,3.6055,3.7049,3.7207,3.7053,3.6567,3.5714,3.4201,0.0,0.0,0.0,0.0,0.0,0.0,0.0,0.0,0.0,0.0,0.0,0.0,0.0,0.0,0.0,0.0,0.0,0.0,0.0,0.0,0.0,0.0,0.0,0.0,0.0,0.0,0.0,0.0,1.962,2.0101,2.0665,0.0,0.0,0.0,0.0,0.0,0.0,0.0,0.0,0.0,0.0,2.7222,2.8237,2.9377,3.0224,3.0471,3.0957,3.1167,3.0869,3.0581,3.0215,2.9609,0.0,0.0,0.0,0.0,0.0,0.0,0.0,0.0,0.0,0.0,0.0,0.0,0.0,0.0,0.0,0.0,0.0,0.0,0.0,0.0,0.0,0.0,0.0,0.0,0.0,0.0,0.0,2.0836,0.0,0.0,2.0576,0.0,0.0,0.0,0.0,0.0,0.0,0.0,0.0,0.0,0.0,0.0,0.0,0.0,0.0,0.0,0.0,0.0,0.0,0.0,0.0,0.0,0.0,3.1719,3.3402,3.512,3.6604,3.7814,3.7502,3.7482,3.7777,3.6645,3.5354,3.402,0.0,0.0,0.0,0.0,0.0,0.0,0.0,0.0,0.0,0.0,0.0,0.0,0.0,0.0,0.0,0.0,0.0,0.0,0.0,0.0,0.0,0.0,0.0,0.0,0.0,0.0,2.0529,2.0926,2.1181,0.0,0.0,0.0,0.0,0.0,0.0,0.0,0.0,0.0,0.0,2.7444,2.8463,3.0079,3.0636,3.1177,3.1988,3.214,3.2174,3.2135,3.1455,3.0893,0.0,0.0,0.0,0.0,0.0,0.0,0.0,0.0,0.0,0.0,0.0,0.0,0.0,0.0,0.0,0.0,0.0,0.0,0.0,0.0,0.0,0.0,0.0,0.0,0.0,0.0,0.0,2.3735,2.3377,0.0,0.0,0.0,0.0,0.0,0.0,0.0,0.0,0.0,0.0,0.0,2.8507,2.898,0.0,0.0,0.0,0.0,0.0,0.0,0.0,0.0,0.0,0.0,0.0,0.0,3.2593,3.4238,3.5703,3.6934,3.7873,3.8066,3.8066,3.7912,3.7484,3.6269,3.4173,0.0,0.0,0.0,0.0,0.0,0.0,0.0,0.0,0.0,0.0,0.0,0.0,0.0,0.0,0.0,0.0,0.0,0.0,0.0,0.0,0.0,0.0,0.0,0.0,0.0,2.1235,0.0,0.0,0.0,0.0,0.0,0.0,0.0,0.0,0.0,0.0,0.0,2.6675,2.7822,2.8883,2.9857,3.0626,3.1342,3.1885,0.0,0.0,0.0,0.0,0.0,0.0,0.0,0.0,0.0,0.0,0.0,0.0,0.0,0.0,3.0798,2.8846,2.8747,2.8986,2.9173,0.0,0.0,0.0,0.0,0.0,0.0,0.0,0.0,0.0,0.0,0.0,0.0,0.0,0.0,2.6545,0.0,2.6081,0.0,0.0,0.0,0.0,0.0,0.0,0.0,0.0,2.985,3.0612,3.1297,3.1614,3.1836,0.0,3.1802,3.0798,0.0,0.0,0.0,0.0,0.0,0.0,0.0,0.0,3.3629,3.5137,3.6445,3.7519,3.834,3.8633,3.8652,3.8361,3.793,3.6699,3.4606,3.2769,3.0976,0.0,0.0,0.0,0.0,0.0,0.0,0.0,0.0,0.0,0.0,0.0,0.0,0.0,0.0,0.0,0.0,0.0,0.0,0.0,0.0,0.0,0.0,0.0,2.3153,0.0,0.0,0.0,0.0,0.0,0.0,0.0,0.0,0.0,2.6531,2.7234,2.8226,2.9213,3.0262,3.1147,3.1653,0.0,0.0,0.0,0.0,0.0,0.0,0.0,3.3942,3.4065,3.3892,3.4018,3.4718,3.504,3.5269,3.5406,0.0,0.0,3.1997,3.1678,3.1923,3.2072,3.2093,3.2277,3.2854,3.2977,3.3187,0.0,0.0,0.0,0.0,0.0,0.0,0.0,0.0,2.9666,2.9542,0.0,2.8998,0.0,0.0,0.0,0.0,0.0,2.9255,0.0,0.0,3.1917,3.277,3.3983,3.4079,3.4291,3.4608,3.4287,3.4064,3.3923,3.1894,0.0,0.0,0.0,0.0,0.0,0.0,3.4815,3.6106,3.732,3.8376,3.9216,3.9274,3.9274,3.9216,3.8024,3.6792,3.5522,3.418,3.2699,3.1069,2.9336,0.0,0.0,0.0,0.0,0.0,0.0,0.0,0.0,0.0,0.0,0.0,0.0,0.0,0.0,0.0,0.0,0.0,0.0,0.0,0.0,2.5269,0.0,0.0,0.0,0.0,0.0,0.0,0.0,0.0,0.0,0.0,2.8366,2.9058,3.0023,3.0898,0.0,0.0,0.0,0.0,3.4712,3.5083,3.5558,3.5888,3.5888,3.5594,3.547,3.5783,0.0,0.0,3.7848,3.8082,3.8215,3.8611,3.9065,3.8341,3.5284,3.4664,3.4652,3.4982,3.5051,3.5353,3.616,3.6305,3.6472,3.6563,0.0,0.0,0.0,0.0,3.3046,3.3008,3.295,3.3079,3.2822,3.226,3.2145,0.0,0.0,0.0,0.0,0.0,0.0,3.3302,3.4051,3.5495,3.6393,3.6782,3.7428,3.7806,3.7916,3.7806,3.7759,3.7701,3.6833,3.5221,3.3025,0.0,0.0,0.0,0.0,3.6483,3.7745,3.8746,3.9507,4.0048,4.0386,4.0404,4.0048,3.9156,3.8181,3.7196,3.5659,3.4316,3.3215,3.1538,0.0,0.0,0.0,0.0,0.0,0.0,0.0,0.0,0.0,0.0,0.0,0.0,0.0,0.0,0.0,0.0,0.0,0.0,0.0,2.6634,2.7239,2.7559,0.0,0.0,0.0,0.0,0.0,0.0,0.0,0.0,0.0,3.2061,3.2117,3.2365,0.0,0.0,3.4365,3.4626,3.5593,3.631,3.6453,3.7299,0.0,3.7917,3.8063,3.8154,3.8252,3.9129,4.0163,4.1084,4.1723,4.2149,4.2268,4.2586,4.2498,4.1601,3.9623,3.8418,3.8343,3.821,3.8235,3.8791,3.8922,3.9193,3.9975,3.8157,3.7169,3.6512,3.6149,3.6277,3.6165,3.5934,3.6053,3.5852,3.5425,3.5325,3.4921,3.426,3.3987,0.0,0.0,0.0,3.6466,3.6932,3.8463,3.9282,3.9482,4.0037,4.0279,4.0279,4.0146,4.0058,4.0063,3.9663,3.8623,3.6901,0.0,0.0,3.6569,3.7049,3.7851,3.898,3.9688,4.0334,4.09,4.1181,4.1202,4.0901,4.0098,3.9349,3.8669,3.7364,3.6135,3.5086,3.3595,3.21,0.0,0.0,0.0,0.0,0.0,0.0,0.0,0.0,0.0,0.0,0.0,2.1659,2.2804,0.0,0.0,0.0,2.653,2.7715,2.8875,2.9193,0.0,0.0,0.0,0.0,0.0,0.0,0.0,3.2164,3.3656,3.4841,3.5317,3.5775,3.5837,3.5152,3.5792,3.6417,3.6618,0.0,3.8246,3.8449,3.9369,4.0137,4.0324,4.0649,4.1005,4.1318,4.2119,4.3085,4.3985,4.4695,4.5204,4.556,4.5927,4.6231,4.6348,4.4752,4.2954,4.1848,4.1422,4.1462,4.1886,4.1995,4.2278,4.2602,4.2477,4.1265,4.0291,3.963,3.96,3.926,3.8754,3.8732,3.8732,3.8717,3.8477,3.8081,3.7606,3.731,0.0,3.7849,3.8818,3.9446,3.9904,4.0913,4.1599,4.2043,4.2109,4.2109,4.2109,4.1731,4.1578,4.1561,4.1207,4.1216,4.1565,3.9328,3.818,3.8222,3.8644,3.9255,4.0088,4.0515,4.1105,4.1915,4.1898,4.1877,4.1856,4.0994,4.0371,3.9945,3.9078,3.8033,3.6807,3.5603,3.4171,3.2455,0.0,0.0,0.0,0.0,0.0,0.0,0.0,0.0,0.0,0.0,0.0,0.0,0.0,0.0,0.0,2.8783,0.0,3.1016,3.1123,0.0,0.0,0.0,3.1864,3.2291,3.3065,3.3978,3.5098,0.0,0.0,3.8189,3.9719,3.9974,3.7826,3.8054,3.8617,3.9073,3.9865,4.0514,4.0942,4.1783,4.2518,4.2957,4.3346,4.3898,4.4715,4.5126,4.5732,4.6667,4.7169,4.7753,4.8386,4.8905,4.923,4.9632,4.9126,4.8272,4.5376,4.4693,4.4696,4.5097,4.5191,4.5465,4.5038,4.5038,4.4712,4.3273,4.1257,4.1233,4.1377,4.1605,4.162,4.1538,4.1448,4.1385,4.1003,4.0419,4.0334,4.0376,4.0494,4.1097,4.1633,4.2163,4.3101,4.3798,4.4266,4.4645,4.4841,4.4846,4.4754,4.4701,4.4666,4.4012,4.3739,4.3791,4.27,4.1957,4.1615,4.172,4.206,4.261,4.3015,4.3501,4.4031,4.3769,4.3433,4.3061,4.2332,4.1727,4.124,4.0112,3.9343,3.8983,3.7766,3.6566,3.5465,3.3864,0.0,0.0,0.0,0.0,0.0,0.0,0.0,0.0,0.0,2.5452,2.6316,0.0,2.8365,0.0,3.0576,3.191,3.2719,3.3095,0.0,0.0,3.3873,3.4534,3.5149,3.5989,3.6957,3.8039,3.9393,4.0523,4.1237,4.2295,4.3046,4.3029,4.2109,4.1624,4.2149,4.2909,4.3451,4.3644,4.4622,4.5453,4.5604,4.6014,4.672,4.7895,4.8146,4.8612,4.9821,5.008,5.0241,5.0408,5.0524,5.0639,5.0791,5.0652,5.0425,4.9536,4.8212,4.7169,4.7631,4.7762,4.7925,4.5902,4.5902,4.5902,4.5031,4.3613,4.3473,4.3498,4.3624,4.3624,4.3567,4.3512,4.3512,4.3304,4.2966,4.3218,4.331,4.3379,4.409,4.4566,4.4887,4.5594,4.6218,4.67,4.6998,4.7268,4.7479,4.7135,4.6955,4.6919,4.6184,4.5763,4.5726,4.5362,4.5008,4.4728,4.3665,4.3325,4.3775,4.4204,4.4528,4.4786,4.4579,4.4339,4.4086,4.3485,4.3031,4.2761,4.1748,4.1092,4.0848,3.981,3.8743,3.7668,3.6402,3.5004,0.0,0.0,0.0,0.0,0.0,0.0,0.0,0.0,0.0,0.0,0.0,3.0781,3.1792,3.2765,3.3732,3.4736,3.501,3.5306,3.561,3.6355,3.7143,3.7902,3.8919,3.9932,4.0865,4.2015,4.3024,4.3818,4.4853,4.5877,4.6756,4.6388,4.5676,4.4941,4.5288,4.5814,4.6281,4.7268,4.8141,4.8452,4.8786,4.9232,4.9896,5.0239,5.0732,5.1634,5.2165,5.2514,5.2703,5.2883,5.2996,5.3039,5.3015,5.3015,5.283,5.1944,5.0866,5.0211,5.0266,5.0566,4.6303,4.631,4.6303,4.6286,4.631,4.5995,4.5631,4.5245,4.5245,4.5283,4.5368,4.5319,4.5303,4.5326,4.578,4.6016,4.6063,4.7038,4.7508,4.762,4.8097,4.858,4.9097,4.9097,4.9333,4.9738,4.9088,4.8738,4.8743,4.7976,4.7612,4.7553,4.7443,4.7387,4.7287,4.5259,4.428,4.4503,4.4956,4.521,4.5191,4.5161,4.5126,4.5126,4.4648,4.4337,4.4273,4.3553,4.2923,4.2442,4.1744,4.073,3.9485,3.8644,3.7449,0.0,3.4876,0.0,0.0,0.0,0.0,0.0,0.0,0.0,0.0,3.2111,3.3336,3.487,3.5116,3.5655,3.6819,3.7058,3.7421,3.8064,3.8929,3.9813,4.0688,4.1796,4.2866,4.3762,4.46,4.5426,4.6328,4.7418,4.8485,4.9213,4.9763,4.937,4.7736,4.7495,4.7968,4.8821,4.9568,5.0243,5.1039,5.1315,5.1404,5.161,5.1982,5.2457,5.2977,5.3694,5.4357,5.4734,5.4971,5.5251,5.5385,5.5318,5.5318,5.5183,5.4855,5.4149,5.2759,5.2551,5.3098,4.85,4.85,4.8476,4.85,4.8483,4.8432,4.7885,4.7027,4.6987,4.7356,4.7865,4.7558,4.7404,4.7421,4.7538,4.7568,4.7592,4.8227,4.8762,4.9204,4.9698,5.0198,5.0655,5.0679,5.0707,5.0802,5.0673,5.0599,5.0581,4.978,4.9385,4.9366,4.8753,4.8414,4.8395,0.0,0.0,0.0,4.7139,4.7406,4.7387,4.7118,4.701,4.695,4.6275,0.0,4.5233,4.4786,4.4281,4.3755,4.3285,0.0,0.0,0.0,0.0,0.0,0.0,0.0,0.0,0.0,0.0,0.0,3.5376,3.4561,3.3129,3.4316,3.562,3.6629,3.736,3.8004,3.8558,3.9578,4.0227,4.0424,4.1661,4.2873,4.3739,4.4667,4.5804,4.7245,4.7931,4.8602,4.9313,5.0094,5.0505,5.0744,5.0869,5.0944,5.0914,5.0485,5.04,5.0647,5.1189,5.1869,5.2819,5.297,5.3199,5.3863,5.4149,5.4399,5.4765,5.4976,5.5149,5.5298,5.5347,5.5409,5.5409,5.5385,5.5458,5.5409,5.5692,5.5612,5.4503,5.4335,5.443,4.9102,4.9126,4.9366,4.9487,0.0,4.9775,4.9751,4.9421,4.8628,4.8495,4.8827,4.8631,4.8688,4.895,4.9235,4.9473,4.9741,5.0282,5.0687,5.0967,5.121,5.1591,5.2096,5.2096,5.2196,5.2434,5.2234,5.2117,5.2098,5.1535,5.1132,5.0899,5.0486,5.0141,4.9874,4.9893,4.9248,4.7966,4.8213,4.8366,4.8328,4.8192,4.8094,4.8075,4.7715,0.0,0.0,0.0,0.0,0.0,0.0,0.0,0.0,0.0,0.0,4.128,4.0044,3.9155,3.8743,3.8155,3.7929,3.8113,3.8526,3.796,3.6064,3.7097,3.81,3.8757,3.9414,4.0103,4.0972,4.197,4.2837,4.3492,4.463,4.5644,4.6311,4.729,4.8225,4.8988,4.973,5.0391,5.1079,5.1513,5.2012,5.2462,5.2726,5.2986,5.3385,5.2546,5.1992,5.2682,5.3285,5.3785,5.4261,5.438,5.449,5.5013,5.5339,5.556,5.576,5.5991,5.6203,5.6159,5.6203,5.6203,5.6203,5.6203,5.6183,5.6207,5.64,5.6461,5.5976,5.5869,5.5869,4.9759,4.9807,5.0189,5.0322,5.0353,5.081,5.1225,5.1555,0.0,0.0,0.0,4.9655,4.9895,5.0353,5.081,5.1243,5.17,5.2301,5.2566,5.2566,5.2758,5.3071,5.3523,5.3504,5.3721,5.4049,5.3751,5.3599,5.358,5.3176,5.2797,5.2438,5.2358,5.2109,5.169,5.1648,5.0987,4.9714,4.9333,4.9159,4.9163,4.912,4.9066,4.9089,4.899,4.8907,4.8799,4.8189,4.78,4.7693,4.7081,4.6504,4.606,4.5617,4.4942,4.4013,4.291,4.2111,4.1709,4.109,4.0689,4.0709,4.1446,4.1081,3.9237,3.9939,4.0661,4.1126,4.1688,4.2444,4.3471,4.4363,4.5286,4.6355,4.7271,4.7984,4.8475,4.9526,5.0266,5.0517,5.1199,5.1821,5.2353,5.2801,5.3299,5.4062,5.4415,5.488,5.5102,5.4037,5.3441,5.4386,5.4837,5.5323,5.551,5.5491,5.5578,5.5731,5.6068,5.6328,5.6424,5.6784,5.7097,5.7097,5.7193,5.7265,5.7265,5.7285,5.7309,5.7285,5.7285,5.7265,5.7309,5.7289,5.7221,5.2361,5.2331,5.2061,5.1964,5.1983,5.2037,5.2109,5.2157,5.194,5.1844,5.1844,5.1844,5.1892,5.1964,5.2037,5.2109,5.2253,5.3173,5.3587,5.3635,5.4544,5.5001,5.5092,5.5073,5.5097,5.5169,5.5111,5.5073,5.5053,5.4667,5.4469,5.4339,5.4052,5.3807,5.3764,5.3783,5.3643,5.3386,5.178,5.0918,5.0942,5.0646,5.0507,5.0507,5.0174,4.9759,4.9317,4.9221,4.894,4.8557,4.8418,4.8186,4.7777,4.737,4.676,4.5877,4.5318,4.4859,4.4411,4.4256,4.42,4.4222,4.4661,4.3949,4.1617,4.2407,4.3257,4.3753,4.4732,4.5543,4.5809,4.6797,4.7591,4.7892,4.8847,4.9751,5.028,5.1103,5.1916,5.258,5.3238,5.3685,5.4066,5.4559,5.4861,5.5164,5.5279,5.5381,5.5433,5.5178,5.5063,5.5222,5.5337,5.5602,5.5967,5.6087,5.6231,5.6712,5.6784,5.6881,5.6881,5.7357,5.7694,5.7694,5.8007,5.8271,5.8295,5.8392,5.8295,5.8247,5.8227,5.8251,5.8247,5.8295,5.8179,5.316,5.3191,5.3278,5.3369,5.3464,5.382,5.3985,5.3966,5.3985,5.3336,5.2344,5.2301,5.2614,5.3101,5.3125,5.3456,5.3991,5.4471,5.4669,5.4693,5.5169,5.5385,5.5385,5.5385,5.5385,5.5385,5.5385,5.5385,5.5366,5.5192,5.5119,5.5119,5.4944,5.4847,5.4847,5.4847,5.4847,5.4823,5.354,5.2879,5.2859,5.2724,5.2646,5.2646,5.2466,5.2159,5.1692,5.1438,5.109,5.0671,5.0434,5.0238,5.0062,4.9618,4.9046,4.8408,4.7759,4.7179,4.6681,4.641,4.6317,4.6336,4.6722,4.6605,4.57,4.5444,4.5565,4.6008,4.6776,4.734,4.76,4.8742,4.9619,4.9871,5.1018,5.1887,5.22,5.2945,5.3622,5.4032,5.4458,5.4837,5.5029,5.5241,5.553,5.5751,5.6039,5.6231,5.6251,5.6251,5.6135,5.5919,5.6063,5.6328,5.6592,5.664,5.676,5.6977,5.7241,5.7409,5.7458,5.7886,5.8199,5.8247,5.8464,5.8584,5.8608,5.8608,5.8608,5.8608,5.8608,5.8608,5.8608,5.88,5.8824,5.4271,5.432,5.4647,5.4843,5.4947,5.547,5.5699,5.5699,5.5694,5.4742,5.3267,5.3054,5.3437,5.4116,5.414,5.4616,5.5337,5.553,5.5558,5.5602,5.5698,5.577,5.577,5.5751,5.577,5.577,5.577,5.577,5.577,5.577,5.577,5.577,5.577,5.577,5.579,5.577,5.577,5.5707,5.5145,5.4678,5.4367,5.4246,5.4206,5.4206,5.4187,5.4049,5.3731,5.3376,5.3039,5.2745,5.2446,5.2226,5.2123,5.1619,5.1137,5.0678,4.9964,4.9352,4.8938,4.8623,4.8487,4.8582,4.8874,4.9281,4.971,4.8999,4.8278,4.8201,4.8713,4.9224,4.9676,5.0744,5.1643,5.2055,5.3023,5.364,5.3769,5.4454,5.4925,5.4983,5.5312,5.5578,5.5602,5.5698,5.5963,5.6352,5.6736,5.6977,5.7001,5.7001,5.6808,5.6616,5.676,5.6929,5.7001,5.6977,5.7025,5.7121,5.7526,5.779,5.7983,5.8416,5.8728,5.88,5.8897,5.9041,5.8993,5.8993,5.9017,5.9065,5.9089,5.9037,5.9065,5.9326,5.947,5.6899,5.6892,5.6546,5.648,5.6472,5.6557,5.6592,5.6592,5.6606,5.6298,5.5691,5.5313,5.514,5.5241,5.5241,5.5313,5.5482,5.5919,5.6116,5.6164,5.664,5.6857,5.6808,5.6833,5.6833,5.6808,5.6784,5.6736,5.676,5.6784,5.6833,5.6857,5.6857,5.6828,5.6833,5.6833,5.6833,5.6857,5.6777,5.608,5.4801,5.4402,5.4206,5.4206,5.423,5.4187,5.4218,5.4108,5.4092,5.403,5.3975,5.3794,5.3439,5.2974,5.2531,5.215,5.1703,5.1418,5.135,5.1333,5.1403,5.1809,5.1795,5.2178,5.2917,5.2957,5.2032,5.0691,5.1094,5.1731,5.1947,5.2996,5.3698,5.3745,5.4315,5.4678,5.4741,5.5052,5.5327,5.5327,5.5832,5.6135,5.6159,5.6472,5.6784,5.6833,5.6977,5.7097,5.7097,5.7169,5.7145,5.7001,5.7025,5.7049,5.7073,5.7025,5.7289,5.7626,5.779,5.8079,5.8488,5.8945,5.935,5.9374,5.9663,5.9879,5.9928,6.0048,5.9976,5.9831,5.9855,6.0021,6.0024,6.0024,6.0,5.765,5.7631,5.748,5.7452,5.752,5.7591,5.7641,5.7641,5.7641,5.7544,5.7389,5.7194,5.6673,5.589,5.5871,5.6039,5.6352,5.6568,5.6664,5.6668,5.6905,5.7001,5.7001,5.7001,5.7001,5.7001,5.7001,5.7001,5.7001,5.7001,5.7001,5.7001,5.7001,5.7001,5.7025,5.7289,5.7482,5.7482,5.779,5.7617,5.7045,5.6268,5.5858,5.5858,5.5858,5.572,5.5521,5.5502,5.5362,5.512,5.508,5.4997,5.4861,5.4637,5.4361,5.3922,5.3419,5.3178,5.3201,5.3181,5.3257,5.3415,5.3415,5.3593,5.3888,5.3951,5.3525,5.285,5.3077,5.3389,5.3471,5.4128,5.4559,5.4641,5.5191,5.5641,5.5617,5.6042,5.6371,5.6371,5.652,5.6664,5.6688,5.6857,5.7001,5.7049,5.7241,5.7458,5.7482,5.7722,5.7935,5.7938,5.7938,5.7814,5.7598,5.779,5.8007,5.8247,5.8536,5.8872,5.9041,5.9519,5.9879,5.9855,6.0048,6.0213,6.0165,6.0213,6.0213,6.0213,6.0213,6.0213,6.0213,6.0213,6.0213,5.8328,5.8328,5.8328,5.8401,5.8475,5.8582,5.8638,5.8638,5.8619,5.856,5.8462,5.8462,5.7854,5.6866,5.664,5.6759,5.6997,5.7001,5.7001,5.7001,5.7001,5.7001,5.7001,5.7001,5.7001,5.7001,5.7001,5.7001,5.7025,5.7169,5.7217,5.7241,5.7381,5.7434,5.7478,5.7862,5.8031,5.8055,5.8416,5.8608,5.8464,5.7818,5.7434,5.7454,5.7434,5.7293,5.7011,5.7015,5.687,5.65,5.6503,5.6442,5.6297,5.6179,5.5832,5.5238,5.4841,5.463,5.463,5.4586,5.4669,5.4768,5.4788,5.4847,5.4945,5.4965,5.4965,5.4945,5.4965,5.4922,5.4634,5.5086,5.5397,5.546,5.6074,5.6404,5.6428,5.6808,5.6977,5.7001,5.6929,5.7001,5.7025,5.7145,5.7265,5.7289,5.7674,5.8011,5.8055,5.8319,5.856,5.8608,5.868,5.8584,5.8175,5.8247,5.8584,5.8893,5.9158,5.9374,5.9546,6.0,6.0192,6.0069,6.0189,6.0213,6.0213,6.0213,6.024,6.0237,6.0261,6.0285,6.0213,6.0237,6.0237,5.9433,5.9408,5.9427,5.9363,5.9419,5.9405,5.9431,5.9372,5.9386,5.9212,5.8906,5.8887,5.8608,5.8138,5.7716,5.735,5.7041,5.7041,5.7021,5.7001,5.7001,5.7001,5.7001,5.7001,5.7001,5.7073,5.7073,5.7073,5.7097,5.753,5.7746,5.7814,5.8223,5.8488,5.8464,5.8512,5.856,5.8584,5.8656,5.8656,5.8656,5.856,5.8536,5.8536,5.8512,5.8443,5.8447,5.8471,5.8426,5.845,5.8341,5.8178,5.7805,5.736,5.6699,5.5859,5.5685,5.5637,5.5634,5.5631,5.5771,5.6163,5.6171,5.6406,5.6566,5.6606,5.6606,5.6801,5.6626,5.6383,5.5747,5.6204,5.6705,5.6729,5.6861,5.6929,5.6929,5.6929,5.7001,5.7049,5.7121,5.7193,5.7097,5.7434,5.7698,5.7862,5.8223,5.856,5.8584,5.8632,5.8728,5.8824,5.9017,5.9161,5.8704,5.88,5.9013,5.923,5.9494,5.9591,5.9928,6.0192,6.0192,6.0237,6.0213,6.0213,6.0213,6.024,6.0312,6.0361,6.0457,6.0457,6.0601,6.0337,6.0385,5.9527,5.9527,5.9527,5.9527,5.9527,5.9527,5.9527,5.9527,5.9527,5.945,5.9314,5.9295,5.9062,5.8697,5.8516,5.8045,5.7418,5.7398,5.7259,5.7041,5.7001,5.7001,5.7001,5.7001,5.7193,5.7458,5.7526,5.7698,5.7986,5.8223,5.8319,5.8319,5.8488,5.8608,5.8656,5.8965,5.9113,5.9137,5.9446,5.9639,5.9591,5.9639,5.9615,5.9591,5.8945,5.8608,5.8608,5.8608,5.8608,5.8608,5.8608,5.8502,5.8355,5.8171,5.7795,5.7155,5.7039,5.6896,5.659,5.6518,5.6578,5.6742,5.6782,5.6845,5.6961,5.7001,5.7001,5.7025,5.7001,5.6781,5.6669,5.6825,5.7001,5.7001,5.7001,5.7049,5.7001,5.7001,5.7121,5.7458,5.777,5.8031,5.7986,5.8179,5.8295,5.8367,5.8797,5.9061,5.9182,5.9353,5.9591,5.9639,5.9759,5.9855,5.9711,5.9639,5.9711,5.9807,5.9952,5.9976,6.0192,6.0312,6.0361,6.0433,6.0385,6.0385,6.0457,6.0673,6.0697,6.1013,6.1082,6.0986,6.1251,6.101,6.1037,5.9527,5.9527,5.9527,5.9608,5.9759,5.9759,5.9885,6.0035,6.0035,6.0055,6.0055,6.0035,5.9899,5.9664,5.9644,5.9251,5.851,5.8083,5.7675,5.7418,5.7259,5.7296,5.7421,5.7321,5.753,5.8007,5.8055,5.8271,5.8584,5.8776,5.8848,5.8848,5.9017,5.9113,5.9182,5.9494,5.9663,5.9735,6.0024,6.0213,6.0213,6.0213,6.0213,6.0096,5.9494,5.9113,5.9113,5.9113,5.9134,5.9113,5.9113,5.9017,5.8872,5.8848,5.8632,5.8151,5.8079,5.7911,5.7578,5.7506,5.753,5.7506,5.7337,5.7265,5.7241,5.7241,5.7265,5.7285,5.7478,5.7506,5.7506,5.753,5.7458,5.7357,5.743,5.7506,5.7526,5.753,5.7718,5.8007,5.8319,5.8536,5.8632,5.8752,5.8824,5.8848,5.9326,5.9639,5.9735,6.0096,6.0478,6.0502,6.0625,6.0745,6.07,6.0721,6.0264,6.0264,6.0433,6.0457,6.0481,6.0553,6.0625,6.0673,6.0697,6.0721,6.0842,6.1058,6.1371,6.1758,6.1662,6.147,6.1638,6.171,6.1686,5.9527,5.9558,5.9508,5.984,6.0267,6.0317,6.0638,6.1034,6.1065,6.0989,6.0959,6.111,6.097,6.107,6.093,6.0831,6.0144,5.9089,5.8482,5.83,5.7916,5.798,5.8373,5.8117,5.818,5.8666,5.8673,5.8652,5.8776,5.9182,5.9398,5.9494,5.9831,6.0,6.0144,6.0096,6.0168,6.0165,6.0213,6.0213,6.0213,6.0213,6.0213,6.0213,6.0096,6.0072,6.012,6.012,6.0048,6.0117,6.0096,5.9903,5.947,5.9378,5.9161,5.8704,5.8584,5.8584,5.8536,5.8488,5.844,5.8367,5.8079,5.7814,5.7814,5.7814,5.7814,5.7862,5.8199,5.8512,5.8464,5.8512,5.8343,5.7938,5.8151,5.8392,5.8464,5.856,5.8584,5.8608,5.8728,5.8677,5.8752,5.9206,5.9519,5.9615,5.9952,6.0312,6.0385,6.0721,6.0962,6.1082,6.1251,6.1374,6.159,6.171,6.1085,6.0649,6.0866,6.101,6.1082,6.1154,6.1253,6.1326,6.1301,6.1326,6.1563,6.1756,6.1855,6.2119,6.1975,6.2047,6.2167,6.2242,6.2097,5.9709,6.0035,6.0041,6.0387,6.0889,6.0914,6.104,6.1185,6.119,6.119,6.119,6.119,6.119,6.119,6.119,6.1131,6.0941,6.0477,5.999,5.9492,5.9247,5.9216,5.9368,5.9316,5.9342,5.9607,5.9957,5.9957,5.9773,5.9876,5.9952,6.0,6.012,6.0213,6.0213,6.0213,6.0213,6.0213,6.0213,6.0213,6.0213,6.0237,6.0237,6.0213,6.0213,6.0213,6.0213,6.0213,6.0213,6.0213,6.0213,6.012,5.9976,5.9952,5.9711,5.923,5.9158,5.8965,5.8656,5.8632,5.8656,5.8584,5.844,5.8367,5.8367,5.8343,5.8343,5.8343,5.8512,5.8608,5.8656,5.8965,5.8941,5.8436,5.8488,5.868,5.8776,5.8969,5.9113,5.9206,5.947,5.9687,5.9783,6.0168,6.0433,6.0481,6.0914,6.1205,6.1301,6.1395,6.1542,6.159,6.1782,6.1927,6.2047,6.2119,6.1782,6.1398,6.1494,6.1563,6.1636,6.1782,6.1903,6.1975,6.1951,6.2023,6.2261,6.2384,6.2456,6.2626,6.2747,6.2795,6.2819,6.2747,6.2578,6.0311,6.0618,6.0618,6.0964,6.1466,6.1492,6.1617,6.1768,6.1813,6.1793,6.1793,6.1818,6.1793,6.1793,6.1793,6.1793,6.1793,6.1793,6.1511,6.0882,6.0284,6.0219,6.0401,6.0461,6.0519,6.0616,6.0899,6.0945,6.0671,6.0507,6.0423,6.0423,6.0276,6.0213,6.0261,6.0385,6.0481,6.0526,6.0697,6.0794,6.0794,6.0794,6.0818,6.0818,6.0794,6.0794,6.0794,6.0772,6.0601,6.0288,6.0213,6.0213,6.0213,6.0168,6.0048,5.9807,5.9687,5.9543,5.9209,5.9254,5.9185,5.9182,5.8993,5.8897,5.8897,5.8897,5.8897,5.8897,5.9089,5.9278,5.9498,5.9759,5.9879,5.9834,5.945,5.9305,5.947,5.9783,6.012,6.0337,6.0604,6.0724,6.0869,6.1013,6.1299,6.1371,6.1566,6.1807,6.1855,6.1972,6.2047,6.2167,6.2386,6.2434,6.241,6.241,6.2432,6.2287,6.2215,6.2143,6.2141,6.2408,6.2578,6.2602,6.2602,6.265,6.2819,6.2865,6.2915,6.3179,6.3325,6.3205,6.3085,6.3155,6.3059,6.121,6.1235,6.1235,6.1542,6.2019,6.2044,6.2295,6.2701,6.2802,6.2802,6.2802,6.2877,6.2902,6.2902,6.2902,6.2902,6.2902,6.2902,6.2882,6.2468,6.1694,6.1238,6.1545,6.1656,6.1696,6.1716,6.1724,6.1682,6.1606,6.1293,6.0914,6.106,6.0773,6.04,6.061,6.0881,6.1034,6.1106,6.1491,6.1686,6.1686,6.171,6.171,6.171,6.1686,6.1662,6.1638,6.1614,6.1253,6.0457,6.0433,6.0457,6.0337,6.0288,6.0385,6.0361,6.0312,6.0337,6.0288,6.0288,6.0288,6.0243,5.9928,5.9522,5.9687,5.9738,5.9738,5.9738,6.0048,6.0457,6.0839,6.0938,6.1154,6.1518,6.0772,6.0529,6.0935,6.0986,6.1106,6.1494,6.1758,6.1782,6.1662,6.1734,6.1831,6.1855,6.1951,6.2095,6.2143,6.2408,6.2576,6.2723,6.2867,6.2891,6.2819,6.2819,6.2819,6.2771,6.2723,6.2696,6.2624,6.2867,6.3035,6.3083,6.3179,6.3253,6.3277,6.3275,6.3324,6.347,6.3494,6.3374,6.3374,6.347,6.3398,6.1416,6.1768,6.1793,6.2094,6.2551,6.2601,6.2676,6.2877,6.3299,6.345,6.3525,6.3877,6.3998,6.4048,6.4002,6.4048,6.3977,6.3977,6.4048,6.4023,6.3693,6.326,6.3135,6.3086,6.3111,6.3134,6.3071,6.3048,6.277,6.2549,6.251,6.2563,6.202,6.1859,6.1911,6.1684,6.1587,6.159,6.1732,6.1874,6.1898,6.1898,6.1807,6.1807,6.1831,6.1831,6.1807,6.1807,6.171,6.1467,6.1374,6.1374,6.1301,6.1301,6.1277,6.1277,6.1326,6.135,6.135,6.1326,6.1371,6.1374,6.1109,6.1179,6.1181,6.1157,6.1157,6.1181,6.1326,6.1398,6.1563,6.1612,6.1732,6.1734,6.1628,6.1486,6.1563,6.159,6.1662,6.1782,6.1855,6.1879,6.1951,6.2167,6.236,6.2432,6.2624,6.2819,6.2771,6.2819,6.2987,6.3083,6.3203,6.3229,6.3229,6.3229,6.3251,6.3203,6.3179,6.3179,6.3155,6.3251,6.3275,6.3253,6.347,6.359,6.359,6.3542,6.3662,6.3878,6.4093,6.4165,6.3973,6.3925,6.371,6.2195,6.2722,6.2722,6.3023,6.35,6.3525,6.3525,6.3576,6.3873,6.4023,6.4099,6.4346,6.45,6.45,6.4475,6.4475,6.45,6.45,6.4475,6.4475,6.4404,6.4228,6.4053,6.4028,6.4053,6.4094,6.4101,6.3971,6.3715,6.3553,6.3468,6.3313,6.3001,6.2812,6.2742,6.2753,6.2679,6.2749,6.2873,6.3018,6.3018,6.3018,6.2888,6.278,6.2715,6.2649,6.2499,6.2434,6.2266,6.1927,6.1782,6.1807,6.1807,6.1807,6.1807,6.1807,6.1807,6.1782,6.1807,6.1807,6.1807,6.1782,6.1807,6.1807,6.1758,6.1807,6.1807,6.1758,6.1807,6.1903,6.2162,6.2461,6.2669,6.2806,6.2888,6.277,6.2254,6.2119,6.2239,6.2338,6.2434,6.2456,6.241,6.272,6.2841,6.2915,6.3059,6.3179,6.3205,6.3301,6.3349,6.3444,6.3492,6.3516,6.366,6.3732,6.3876,6.3828,6.3925,6.3876,6.378,6.378,6.3901,6.3925,6.3926,6.395,6.3998,6.4093,6.4309,6.4526,6.4814,6.4814,6.455,6.4429,6.4213,6.3299,6.3797,6.3797,6.4048,6.44,6.4475,6.4375,6.4471,6.4526,6.4597,6.4647,6.4626,6.4827,6.4651,6.4877,6.4726,6.4726,6.4827,6.4777,6.4802,6.4802,6.4777,6.4777,6.4626,6.468,6.4739,6.4676,6.471,6.4641,6.4292,6.4115,6.4108,6.3765,6.3499,6.3611,6.3792,6.3918,6.3955,6.4181,6.4331,6.4331,6.4331,6.4157,6.3917,6.3898,6.3747,6.3508,6.34,6.3108,6.2196,6.2059,6.2198,6.2174,6.2172,6.2193,6.2309,6.2422,6.2355,6.2193,6.2376,6.2239,6.2355,6.2285,6.2102,6.2331,6.2446,6.2422,6.2468,6.2148,6.2546,6.2927,6.3603,6.3878,6.3919,6.4342,6.3999,6.3208,6.2825,6.2994,6.336,6.343,6.3432,6.339,6.3368,6.3366,6.3107,6.3253,6.3396,6.347,6.3566,6.3684,6.378,6.378,6.378,6.3997,6.4189,6.4429,6.4574,6.4742,6.4742,6.4526,6.4526,6.4694,6.4742,6.4477,6.4477,6.4622,6.4742,6.4934,6.5079,6.5318,6.5175,6.5006,6.4982,6.4838,6.4224,6.4325,6.4346,6.4396,6.4475,6.45,6.45,6.4551,6.4978,6.5128,6.5229,6.5534,6.571,6.571,6.566,6.576,6.566,6.566,6.576,6.576,6.576,6.576,6.5634,6.5308,6.538,6.5584,6.5735,6.5735,6.5646,6.5528,6.5585,6.5475,6.501,6.4923,6.4876,6.4617,6.453,6.4576,6.4674,6.4789,6.4789,6.4789,6.4724,6.4549,6.4527,6.4484,6.444,6.4396,6.4296,6.4062,6.3725,6.3586,6.3804,6.3915,6.3869,6.3869,6.394,6.3986,6.4032,6.3915,6.4054,6.3869,6.3823,6.4054,6.4076,6.3961,6.4008,6.4054,6.4078,6.3942,6.4089,6.4342,6.4527,6.4593,6.468,6.4653,6.4315,6.4203,6.4187,6.4282,6.4309,6.4268,6.3917,6.3899,6.3767,6.3434,6.3466,6.3562,6.3775,6.4058,6.4246,6.4525,6.4575,6.469,6.4956,6.5221,6.5463,6.5609,6.5756,6.5831,6.5591,6.524,6.5383,6.5193,6.4885,6.4981,6.5246,6.5366,6.5534,6.5678,6.5775,6.5702,6.563,6.5582,6.551,6.4651,6.4877,6.4898,6.5028,6.5208,6.5254,6.5254,6.5283,6.5534,6.5685,6.5735,6.599,6.6112,6.6112,6.6112,6.6086,6.6112,6.6112,6.609,6.6086,6.6065,6.609,6.6065,6.5839,6.586,6.609,6.6086,6.6112,6.6112,6.6112,6.6018,6.6112,6.5832,6.5671,6.5724,6.544,6.5397,6.5397,6.5378,6.5353,6.5378,6.5378,6.5205,6.4985,6.4833,6.4702,6.468,6.468,6.4811,6.4901,6.4792,6.4639,6.4683,6.4702,6.4702,6.4702,6.4702,6.4702,6.4702,6.4702,6.4655,6.4724,6.4702,6.4702,6.4702,6.4702,6.4702,6.4702,6.4655,6.4702,6.4702,6.4941,6.5009,6.5096,6.5248,6.5357,6.5292,6.4985,6.4702,6.4702,6.4636,6.4549,6.4421,6.46,6.4702,6.4579,6.4966,6.5066,6.5159,6.5374,6.5403,6.5545,6.5575,6.5723,6.6038,6.6328,6.6618,6.6787,6.6954,6.7004,6.6931,6.6441,6.6024,6.5765,6.5579,6.5678,6.5919,6.6015,6.6039,6.6111,6.6183,6.6208,6.6183,6.6063,6.5991,6.5003,6.5409,6.5409,6.5685,6.604,6.6086,6.6036,6.6061,6.6112,6.6036,6.6112,6.6112,6.6112,6.6112,6.6112,6.6112,6.6112,6.6112,6.6112,6.6112,6.6112,6.6112,6.6065,6.604,6.604,6.6112,6.6112,6.6112,6.6112,6.6112,6.6112,6.6112,6.609,6.6026,6.6069,6.609,6.5983,6.5961,6.594,6.5961,6.5983,6.5983,6.5789,6.553,6.5248,6.505,6.505,6.505,6.5161,6.5465,6.5486,6.5292,6.5028,6.492,6.492,6.4941,6.5028,6.5072,6.5093,6.5028,6.5006,6.492,6.4941,6.4941,6.4985,6.5028,6.505,6.5006,6.5028,6.5028,6.4941,6.527,6.5536,6.5722,6.6025,6.6244,6.6212,6.5623,6.544,6.5226,6.5434,6.5461,6.5462,6.5599,6.5697,6.5847,6.6217,6.649,6.6561,6.6566,6.6505,6.6611,6.6645,6.6649,6.6941,6.706,6.7375,6.754,6.7778,6.7803,6.7804,6.736,6.6824,6.6556,6.6418,6.642,6.6327,6.6304,6.6375,6.6495,6.6471,6.6399,6.6423,6.6495,6.6423,6.5889,6.5965,6.5986,6.6036,6.609,6.6112,6.6112,6.6112,6.6112,6.6112,6.6112,6.6112,6.6112,6.6112,6.6112,6.6112,6.6112,6.6112,6.6112,6.6112,6.6112,6.6112,6.6112,6.6112,6.6112,6.6112,6.6112,6.6112,6.6112,6.6112,6.6112,6.6112,6.6112,6.6112,6.6112,6.6112,6.6112,6.6112,6.6112,6.6112,6.6112,6.609,6.6069,6.5896,6.5767,6.5746,6.5789,6.5832,6.5918,6.5983,6.5983,6.5943,6.5914,6.5892,6.5842,6.5746,6.5724,6.5702,6.5724,6.5789,6.5853,6.5875,6.5764,6.581,6.581,6.581,6.5702,6.5746,6.5792,6.5857,6.5875,6.6025,6.6262,6.6577,6.6778,6.6965,6.7248,6.7145,6.6844,6.6576,6.657,6.6501,6.6506,6.6556,6.6685,6.6768,6.6948,6.7225,6.7373,6.7382,6.7343,6.7523,6.7727,6.7752,6.7826,6.7822,6.7964,6.8008,6.8151,6.8126,6.8105,6.797,6.7673,6.7375,6.6959,6.668,6.661,6.6612,6.6519,6.6543,6.6519,6.6519,6.6519,6.6519,6.6519,6.6326,6.6112,6.6112,6.6112,6.6112,6.6112,6.6112,6.6112,6.6112,6.6112,6.6112,6.6112,6.6112,6.6112,6.6112,6.6112,6.6112,6.6112,6.6112,6.6112,6.6112,6.6112,6.6112,6.6112,6.6112,6.6112,6.6112,6.6112,6.6112,6.6112,6.6112,6.6112,6.6112,6.6112,6.6112,6.6112,6.6112,6.6112,6.6112,6.6112,6.6112,6.6112,6.6112,6.6112,6.609,6.6112,6.6112,6.6112,6.6266,6.6488,6.6564,6.6714,6.6865,6.689,6.6692,6.6287,6.614,6.6137,6.6112,6.6112,6.6069,6.609,6.6137,6.6112,6.6112,6.6069,6.6162,6.619,6.6488,6.6564,6.6567,6.6789,6.7116,6.7314,6.7392,6.7543,6.7744,6.7819,6.7794,6.7719,6.7505,6.737,6.7401,6.7518,6.7679,6.7742,6.7755,6.7933,6.8161,6.8166,6.8195,6.8342,6.8517,6.8517,6.8519,6.8497,6.8497,6.8519,6.8542,6.8565,6.8542,6.8451,6.8337,6.8109,6.765,6.7259,6.6959,6.6935,6.6774,6.6589,6.6589,6.6566,6.6543,6.6519,6.6519,6.6733,6.639,6.6283,6.624,6.6219,6.6133,6.6112,6.6112,6.6112,6.6112,6.6112,6.6112,6.6112,6.6112,6.6112,6.6112,6.6112,6.6112,6.6112,6.6112,6.6112,6.6112,6.6112,6.6112,6.6112,6.6112,6.6112,6.6112,6.6112,6.6112,6.6112,6.6112,6.6112,6.6112,6.6112,6.6112,6.6112,6.6112,6.6112,6.6112,6.6112,6.6112,6.6112,6.6162,6.619,6.6312,6.6363,6.6538,6.6764,6.7041,6.7166,6.7339,6.7719,6.7794,6.7392,6.6639,6.6441,6.6463,6.6488,6.6513,6.6639,6.6617,6.6513,6.6488,6.6513,6.6639,6.6538,6.6538,6.6815,6.7163,6.7213,6.7493,6.7794,6.7945,6.797,6.802,6.8196,6.8324,6.85,6.8399,6.8246,6.8227,6.826,6.8338,6.8479,6.853,6.8542,6.864,6.8842,6.896,6.901,6.9125,6.92,6.92,6.9177,6.911,6.9064,6.9042,6.9042,6.9042,6.9042,6.9021,6.8862,6.8703,6.8565,6.8177,6.7741,6.735,6.7281,6.7144,6.6821,6.6705,6.6773,6.6611,6.6519,6.7392,6.7307,6.6903,6.6733,6.6669,6.6326,6.6133,6.6155,6.6155,6.6112,6.6155,6.6112,6.6112,6.6112,6.6112,6.6112,6.6112,6.6112,6.6112,6.6112,6.6112,6.6112,6.6112,6.6112,6.6112,6.6112,6.6112,6.6112,6.6112,6.6112,6.6112,6.6112,6.6112,6.6112,6.6112,6.6112,6.6112,6.6112,6.6112,6.6112,6.6112,6.6137,6.6162,6.6287,6.6589,6.6865,6.6937,6.7191,6.7543,6.7643,6.7719,6.7766,6.7816,6.7819,6.7769,6.7643,6.7618,6.7593,6.7493,6.7417,6.7392,6.7367,6.7442,6.7568,6.7417,6.7392,6.7417,6.7593,6.7693,6.7693,6.7719,6.7819,6.8048,6.8324,6.85,6.8751,6.8952,6.8776,6.8952,6.8979,6.8826,6.8977,6.9082,6.9183,6.9283,6.9331,6.9356,6.9381,6.9406,6.9406,6.9406,6.9406,6.9406,6.9406,6.9406,6.9406,6.9406,6.9406,6.9406,6.9406,6.9338,6.927,6.9316,6.918,6.9089,6.886,6.8337,6.7993,6.7903,6.765,6.7328,6.719,6.712,6.6889,6.6611,6.8774,6.7789,6.7366,6.7201,6.718,6.6967,6.6903,6.6839,6.6604,6.6498,6.6433,6.6197,6.6112,6.6183,6.6112,6.6112,6.6112,6.6158,6.6112,6.6137,6.6137,6.6112,6.6112,6.6112,6.6112,6.6112,6.6112,6.6112,6.6112,6.6112,6.6112,6.6112,6.6112,6.6112,6.6112,6.6112,6.6112,6.6112,6.6112,6.6112,6.6187,6.6413,6.6589,6.6639,6.7163,6.7414,6.7518,6.7618,6.7995,6.8145,6.8271,6.8424,6.8625,6.8726,6.8726,6.8726,6.8701,6.8399,6.7919,6.7869,6.7869,6.7844,6.7844,6.7769,6.7819,6.7844,6.7844,6.7794,6.8095,6.8224,6.8346,6.855,6.8776,6.8954,6.8977,6.908,6.9306,6.9331,6.9306,6.9381,6.9406,6.9406,6.9406,6.9381,6.9381,6.9381,6.9381,6.9381,6.9406,6.9406,6.9406,6.9406,6.9406,6.9406,6.9406,6.9406,6.9406,6.9406,6.9406,6.9406,6.9406,6.9383,6.9406,6.9406,6.9293,6.9019,6.8724,6.8542,6.8337,6.8086,6.7811,6.7719,6.7603,6.7235,6.6935,7.0323,6.9039,6.8293,6.8004,6.7983,6.7772,6.7646,6.7603,6.7158,6.7065,6.7114,6.6898,6.6736,6.6711,6.683,6.6945,6.6931,6.665,6.6531,6.6463,6.623,6.6112,6.6112,6.6112,6.6112,6.6112,6.6112,6.6112,6.6112,6.6112,6.6112,6.6112,6.6112,6.6112,6.6112,6.6112,6.6112,6.6112,6.6112,6.6112,6.6212,6.6686,6.6887,6.7188,6.759,6.7995,6.802,6.8199,6.85,6.8675,6.8801,6.8954,6.9205,6.923,6.9255,6.923,6.923,6.8979,6.855,6.8324,6.8199,6.8173,6.8199,6.8349,6.8321,6.8173,6.8199,6.8324,6.8575,6.8776,6.8876,6.9155,6.9205,6.928,6.9331,6.9381,6.9381,6.9356,6.9356,6.9406,6.9406,6.9406,6.9406,6.9406,6.9406,6.9406,6.9406,6.9406,6.9406,6.9406,6.9406,6.9406,6.9406,6.9406,6.9406,6.9406,6.9406,6.9406,6.9406,6.9406,6.9406,6.9406,6.9406,6.9406,6.9406,6.9316,6.9042,6.8931,6.8794,6.861,6.8428,6.8246,6.804,6.7649,6.7373,7.1957,7.1668,7.0062,6.9356,6.9278,6.8419,6.8104,6.8245,6.7735,6.7878,6.8236,6.826,6.8174,6.8224,6.8145,6.8344,6.8815,6.801,6.7605,6.7182,6.6672,6.6269,6.6176,6.6155,6.6112,6.6112,6.6112,6.6112,6.6112,6.6112,6.6112,6.6112,6.6112,6.6112,6.6112,6.6112,6.6112,6.6112,6.6112,6.6112,6.6287,6.6686,6.7062,6.7288,6.797,6.855,6.8553,6.8879,6.9105,6.923,6.9205,6.923,6.9381,6.9406,6.9406,6.9406,6.9406,6.923,6.9055,6.9029,6.9205,6.923,6.918,6.9055,6.9002,6.918,6.923,6.9105,6.913,6.9205,6.928,6.9381,6.9406,6.9406,6.9406,6.9406,6.9356,6.9255,6.928,6.9356,6.928,6.9105,6.9205,6.9155,6.9331,6.9356,6.9406,6.9406,6.9406,6.9406,6.9406,6.9406,6.9406,6.9406,6.9406,6.9406,6.9406,6.9406,6.9406,6.9406,6.9406,6.9406,6.9406,6.9406,6.9406,6.9406,6.9406,6.9225,6.9112,6.918,6.9067,6.8724,6.8451,6.8131,6.7948,7.2945,7.2381,7.1721,7.1015,7.0288,6.9912,6.9815,6.9841,6.9475,6.926,6.9313,6.9069,6.8933,6.898,6.8933,6.8998,6.9095,6.8496,6.8253,6.7783,6.7148,6.6634,6.6476,6.6305,6.6112,6.6133,6.6133,6.6112,6.6112,6.6155,6.6112,6.6112,6.6112,6.6112,6.6112,6.6112,6.6112,6.6112,6.6112,6.6112,6.6312,6.7015,6.7514,6.759,6.8525,6.9029,6.913,6.928,6.9381,6.9406,6.9406,6.9406,6.9406,6.9406,6.9406,6.9406,6.9406,6.9406,6.9406,6.9406,6.9406,6.9406,6.9381,6.9406,6.9406,6.9406,6.9406,6.9381,6.9406,6.9406,6.9406,6.9381,6.9406,6.9406,6.9381,6.9356,6.923,6.908,6.8904,6.8901,6.8675,6.845,6.865,6.8854,6.9105,6.9331,6.9356,6.9406,6.9406,6.9406,6.9406,6.9406,6.9406,6.9406,6.9406,6.9406,6.9406,6.9406,6.9406,6.9406,6.9406,6.9406,6.9406,6.9406,6.9406,6.9406,6.9406,6.9406,6.9383,6.9316,6.9225,6.9042,6.8817,6.859,6.8428,7.4558,7.4046,7.4027,7.3101,7.1738,7.1508,7.1636,7.1797,7.129,7.0852,7.0571,7.036,7.0334,7.0334,7.0382,7.0382,7.0308,6.9708,6.9153,6.8536,6.7852,6.7231,6.6946,6.6775,6.6647,6.6519,6.6498,6.654,6.6369,6.6326,6.624,6.6155,6.6112,6.6112,6.6112,6.6112,6.6112,6.6112,6.6112,6.6262,6.6463,6.7241,6.7919,6.807,6.8926,6.928,6.9331,6.9381,6.9381,6.9406,6.9406,6.9406,6.9406,6.9406,6.9406,6.9406,6.9406,6.9406,6.9406,6.9406,6.9406,6.9406,6.9406,6.9406,6.9406,6.9406,6.9406,6.9406,6.9406,6.9406,6.9406,6.9406,6.9406,6.9381,6.9102,6.9027,6.8851,6.8701,6.85,6.8349,6.817,6.8045,6.8274,6.8575,6.9004,6.9255,6.9381,6.9406,6.9406,6.9406,6.9406,6.9406,6.9406,6.9406,6.9406,6.9406,6.9406,6.9406,6.9406,6.9406,6.9406,6.9406,6.9406,6.9406,6.9406,6.9406,6.9406,6.9406,6.9406,6.9406,6.9293,6.9202,6.918,6.8953,6.8862,7.6942,7.7038,7.6855,7.5588,7.3754,7.314,7.3287,7.3657,7.2974,7.2481,7.2269,7.2568,7.2784,7.2731,7.2551,7.2412,7.209,7.1349,7.0552,6.9647,6.8642,6.7967,6.7667,6.7498,6.7281,6.7434,6.7286,6.7031,6.6797,6.6797,6.6562,6.624,6.6155,6.6112,6.6112,6.6112,6.6112,6.6137,6.6187,6.6488,6.699,6.7593,6.8095,6.85,6.9077,6.9381,6.9406,6.9406,6.9406,6.9406,6.9406,6.9406,6.9406,6.9406,6.9406,6.9406,6.9406,6.9406,6.9406,6.9406,6.9406,6.9406,6.9406,6.9406,6.9406,6.9406,6.9406,6.9406,6.9406,6.9406,6.9406,6.9356,6.9306,6.9155,6.8876,6.8575,6.8424,6.8148,6.7919,6.7744,6.7769,6.7819,6.7998,6.8299,6.8829,6.9155,6.9331,6.9406,6.9406,6.9406,6.9406,6.9406,6.9406,6.9406,6.9406,6.9406,6.9406,6.9406,6.9406,6.9406,6.9406,6.9406,6.9406,6.9406,6.9406,6.9406,6.9406,6.9406,6.9406,6.9406,6.9406,6.9361,6.9361,6.9316,6.9157,7.738,7.7106,7.7106,7.6906,7.6444,7.5399,7.5104,7.5232,7.4882,7.4576,7.4449,7.4464,7.4347,7.4219,7.3875,7.367,7.3389,7.2135,7.1145,7.0887,6.9702,6.9123,6.8738,6.8293,6.7999,6.781,6.7662,6.7582,6.7265,6.7307,6.701,6.6647,6.6334,6.6112,6.6112,6.6162,6.6237,6.6614,6.6761,6.6987,6.754,6.8045,6.8399,6.8625,6.913,6.9381,6.9406,6.9406,6.9381,6.9356,6.9331,6.9331,6.9306,6.928,6.9306,6.9356,6.9356,6.9406,6.9406,6.9406,6.9406,6.9356,6.9381,6.9381,6.9406,6.9406,6.9406,6.9331,6.923,6.9255,6.9406,6.9027,6.8851,6.8703,6.845,6.817,6.7919,6.7543,6.7241,6.7091,6.7041,6.7442,6.7719,6.8123,6.865,6.9155,6.9356,6.9406,6.9406,6.9406,6.9406,6.9406,6.9406,6.9406,6.9406,6.9406,6.9406,6.9406,6.9406,6.9406,6.9406,6.9406,6.9406,6.9406,6.9406,6.9406,6.9406,6.9406,6.9406,6.9406,6.9406,6.9406,6.9383,6.9383,6.9338,7.8471,7.8217,7.8217,7.8475,7.8595,7.727,7.6675,7.6628,7.6449,7.6241,7.5886,7.5598,7.5472,7.5308,7.4899,7.438,7.4148,7.3022,7.1962,7.1806,7.0932,7.0315,6.981,6.9356,6.9148,6.8795,6.8612,6.8445,6.8277,6.8046,6.7519,6.6907,6.6696,6.6611,6.6549,6.6513,6.6739,6.7116,6.7292,6.7518,6.7998,6.8399,6.8675,6.8926,6.9205,6.9406,6.9406,6.9381,6.9306,6.9205,6.913,6.9029,6.8952,6.8876,6.8851,6.8851,6.8851,6.8826,6.8776,6.8776,6.8701,6.8703,6.913,6.928,6.918,6.9055,6.8926,6.8851,6.8901,6.8876,6.8801,6.8399,6.8324,6.8199,6.7897,6.7618,6.7392,6.7015,6.6714,6.6564,6.6639,6.7015,6.7543,6.7973,6.8475,6.8954,6.9406,6.9406,6.9406,6.9406,6.9406,6.9406,6.9406,6.9406,6.9406,6.9406,6.9406,6.9406,6.9406,6.9406,6.9406,6.9406,6.9406,6.9406,6.9406,6.9406,6.9406,6.9406,6.9406,6.9406,6.9406,6.9406,6.9406,6.9406,6.9406,8.0265,8.0294,8.0294,8.0197,8.002,7.8712,7.8029,7.774,7.7727,7.7284,7.6546,7.6581,7.6622,7.6408,7.5861,7.5342,7.4699,7.3927,7.3094,7.2409,7.1916,7.1467,7.1083,7.0737,7.0452,7.0288,7.0062,6.9727,6.9527,6.892,6.8083,6.7346,6.7429,6.7334,6.7176,6.7294,6.748,6.7763,6.7844,6.8123,6.855,6.8701,6.8929,6.918,6.9356,6.9406,6.9406,6.9381,6.9105,6.8876,6.865,6.8321,6.8045,6.7844,6.7819,6.7844,6.7919,6.797,6.802,6.807,6.802,6.8199,6.8751,6.8876,6.8776,6.8575,6.8424,6.8246,6.817,6.8045,6.7894,6.7844,6.7794,6.7543,6.7241,6.7041,6.689,6.6614,6.6312,6.6237,6.6338,6.6739,6.7543,6.8048,6.85,6.9004,6.9406,6.9406,6.9406,6.9406,6.9406,6.9406,6.9406,6.9406,6.9406,6.9406,6.9406,6.9406,6.9406,6.9406,6.9406,6.9406,6.9406,6.9406,6.9406,6.9406,6.9406,6.9406,6.9406,6.9406,6.9406,6.9406,6.9406,6.9406,6.9406,8.0294,8.0294,8.0294,8.0294,8.0226,7.9835,7.9269,7.867,7.8609,7.8427,7.8244,7.8244,7.8061,7.816,7.7121,7.6572,7.5789,7.4845,7.3949,7.3355,7.2925,7.2488,7.2169,7.1929,7.1715,7.1467,7.1245,7.0995,7.0608,6.9933,6.9065,6.8397,6.8292,6.8161,6.8224,6.8429,6.848,6.8432,6.8438,6.865,6.8954,6.908,6.9255,6.9356,6.9406,6.9406,6.9406,6.9406,6.908,6.8675,6.86,6.8324,6.7869,6.7819,6.7819,6.7819,6.7819,6.7819,6.7819,6.7794,6.7744,6.7668,6.8073,6.8145,6.807,6.7995,6.7894,6.7693,6.7568,6.7518,6.7417,6.7342,6.7267,6.7041,6.6789,6.6589,6.6463,6.6388,6.6112,6.6187,6.6262,6.6865,6.7643,6.8173,6.865,6.913,6.9406,6.9406,6.9406,6.9406,6.9406,6.9406,6.9406,6.9406,6.9406,6.9406,6.9406,6.9406,6.9406,6.9406,6.9406,6.9406,6.9406,6.9406,6.9406,6.9406,6.9406,6.9406,6.9406,6.9406,6.9406,6.9406,6.9406,6.9406,6.9406,8.0294,8.0294,8.0294,8.0294,8.0294,8.0294,7.9978,7.9541,7.9312,7.9181,7.902,7.896,7.9,7.8691,7.7664,7.698,7.6835,7.5364,7.446,7.4305,7.3868,7.3664,7.339,7.3162,7.2925,7.2647,7.2349,7.2129,7.1708,7.0906,7.0027,6.9407,6.9253,6.9175,6.9261,6.9548,6.9743,6.9482,6.9268,6.9195,6.9278,6.9428,6.9406,6.9406,6.9406,6.9406,6.9406,6.9406,6.9004,6.8424,6.8274,6.7872,6.7342,6.7116,6.7116,6.7066,6.7041,6.7015,6.7015,6.7041,6.7116,6.7119,6.7166,6.7094,6.7241,6.7267,6.7191,6.7066,6.7091,6.7066,6.6965,6.6865,6.6739,6.6639,6.6388,6.6162,6.6137,6.6137,6.6162,6.6212,6.6564,6.7116,6.7719,6.8271,6.8776,6.918,6.9406,6.9406,6.9406,6.9406,6.9406,6.9406,6.9406,6.9406,6.9406,6.9406,6.9406,6.9406,6.9406,6.9406,6.9406,6.9406,6.9406,6.9406,6.9406,6.9406,6.9406,6.9406,6.9406,6.9406,6.9406,6.9406,6.9406,6.9406,6.9406,8.0294,8.0294,8.0294,8.0294,8.0294,8.0294,8.0275,8.0255,7.981,7.9452,7.9201,7.9161,7.9201,7.9043,7.7982,7.7389,7.6969,7.5888,7.5125,7.5202,7.4895,7.4664,7.4528,7.4567,7.4043,7.372,7.3465,7.326,7.2687,7.1916,7.1108,7.0524,7.0609,7.0488,7.0232,7.0692,7.0794,7.0395,6.9951,6.9668,6.9491,6.9474,6.9406,6.9406,6.9406,6.9406,6.9406,6.923,6.8926,6.8246,6.7693,6.7295,6.6725,6.6503,6.6477,6.6413,6.6578,6.6539,6.6542,6.6478,6.6338,6.6262,6.6137,6.6291,6.6564,6.6714,6.6689,6.6589,6.6589,6.6589,6.6488,6.6463,6.6388,6.6363,6.6237,6.6112,6.6112,6.6112,6.6137,6.6312,6.684,6.7367,6.7794,6.8346,6.8977,6.9306,6.9406,6.9406,6.9406,6.9406,6.9406,6.9406,6.9406,6.9406,6.9406,6.9406,6.9406,6.9406,6.9406,6.9406,6.9406,6.9406,6.9406,6.9406,6.9406,6.9406,6.9406,6.9406,6.9406,6.9406,6.9406,6.9406,6.9406,6.9406,6.9406,8.0294,8.0294,8.0294,8.0294,8.0294,8.0294,8.0294,8.0294,8.0196,8.0057,7.9998,7.9958,7.9938,7.9677,7.8551,7.7973,7.7665,7.6435,7.5793,7.5545,7.5431,7.5335,7.5106,7.5125,7.4914,7.4856,7.4644,7.4257,7.3575,7.2822,7.227,7.1891,7.1923,7.1704,7.1288,7.1774,7.1766,7.1281,7.0882,7.0436,7.0212,6.9699,6.9406,6.9451,6.9474,6.9541,6.9519,6.9446,6.9049,6.85,6.802,6.7416,6.6706,6.6971,6.7137,6.7116,6.6797,6.6669,6.6562,6.6412,6.6283,6.6197,6.6176,6.6133,6.6187,6.6262,6.6262,6.6183,6.6112,6.6112,6.6112,6.6112,6.6112,6.6112,6.6112,6.6112,6.6112,6.6112,6.6112,6.6564,6.7091,6.7543,6.7945,6.845,6.9055,6.9331,6.9381,6.9406,6.9406,6.9406,6.9406,6.9406,6.9406,6.9406,6.9406,6.9406,6.9406,6.9406,6.9406,6.9406,6.9406,6.9406,6.9406,6.9406,6.9406,6.9406,6.9406,6.9406,6.9406,6.9406,6.9406,6.9406,6.9406,6.9406,6.9406,8.0294,8.0294,8.0294,8.0294,8.0294,8.0294,8.0294,8.0294,8.0294,8.0294,8.0294,8.0294,8.0294,8.0091,7.8959,7.8407,7.8108,7.6806,7.6277,7.6,7.5868,7.5878,7.5783,7.5726,7.5583,7.5526,7.5221,7.4779,7.4266,7.3726,7.3205,7.3199,7.3197,7.2997,7.2653,7.2984,7.2838,7.2227,7.1942,7.1656,7.1259,7.0637,7.0123,7.0056,7.0033,7.0033,7.0081,7.003,6.9726,6.914,6.8525,6.7804,6.732,6.7307,6.7434,6.7392,6.7243,6.7116,6.7052,6.6924,6.6711,6.669,6.6733,6.6861,6.6839,6.6894,6.653,6.6412,6.6155,6.6112,6.6112,6.6112,6.6112,6.6112,6.6112,6.6112,6.6112,6.6112,6.6312,6.6761,6.7314,6.7819,6.8271,6.8801,6.928,6.9356,6.9406,6.9406,6.9406,6.9406,6.9406,6.9406,6.9406,6.9406,6.9406,6.9406,6.9406,6.9406,6.9406,6.9406,6.9406,6.9406,6.9406,6.9406,6.9406,6.9406,6.9406,6.9406,6.9406,6.9406,6.9406,6.9406,6.9406,6.9406,6.9406,8.0294,8.0294,8.0294,8.0294,8.0294,8.0294,8.0294,8.0294,8.0294,8.0294,8.0294,8.0294,8.0294,7.9888,7.9017,7.864,7.7982,7.6928,7.656,7.6462,7.6425,7.6293,7.6312,7.6406,7.6132,7.583,7.5526,7.5202,7.4818,7.4416,7.4329,7.4519,7.4465,7.4263,7.4416,7.4427,7.415,7.3726,7.3424,7.3203,7.2599,7.1788,7.1148,7.0926,7.0926,7.0926,7.0974,7.0893,7.0637,7.0225,6.9501,6.8832,6.8345,6.8255,6.8172,6.8193,6.8088,6.7962,6.7857,6.7747,6.7599,6.7557,6.7599,6.7646,6.7625,6.7477,6.7116,6.6818,6.6562,6.6305,6.6305,6.6219,6.6219,6.6112,6.6112,6.6212,6.6237,6.6262,6.6614,6.7037,6.759,6.812,6.855,6.908,6.9306,6.9381,6.9406,6.9406,6.9406,6.9406,6.9406,6.9406,6.9406,6.9406,6.9406,6.9406,6.9406,6.9406,6.9406,6.9406,6.9406,6.9406,6.9406,6.9406,6.9406,6.9406,6.9406,6.9406,6.9406,6.9406,6.9406,6.9406,6.9406,6.9406,6.9406,8.0294,8.0294,8.0294,8.0294,8.0294,8.0294,8.0294,8.0294,8.0294,8.0294,8.0294,8.0294,8.0294,8.0236,7.8959,7.8349,7.803,7.7023,7.6616,7.65,7.6519,7.6519,7.6519,7.65,7.6444,7.6218,7.5906,7.5678,7.5497,7.5328,7.5337,7.5587,7.5762,7.5613,7.5443,7.5403,7.5276,7.4922,7.4689,7.4427,7.3677,7.2769,7.1678,7.1325,7.1107,7.124,7.1351,7.1461,7.16,7.1491,7.1098,7.0409,6.9931,6.9651,6.9597,6.9356,6.9258,6.9092,6.8982,6.8774,6.8649,6.8251,6.8314,6.8419,6.8419,6.8461,6.8146,6.7894,6.7557,6.7095,6.6946,6.669,6.6583,6.6266,6.6162,6.6463,6.6639,6.6815,6.7113,6.7565,6.807,6.8422,6.8648,6.9077,6.9356,6.9406,6.9406,6.9406,6.9579,6.9481,6.9456,6.9531,6.9582,6.9406,6.9406,6.9406,6.9406,6.9406,6.9406,6.9406,6.9406,6.9406,6.9406,6.9406,6.9406,6.9406,6.9406,6.9406,6.9406,6.9406,6.9406,6.9406,6.9406,6.9406,6.9406]}]]